[[{"header":{"parameterUnit":"m.s-1","parameterCategory":1,"la1":30.6,"la2":29.2853,"lo1":-89.7004,"lo2":-87.6739,"dy":0.0162,"dx":0.0183,"nx":112,"ny":82,"refTime":"2026-05-02T00:00:00:Z","depth":0,"parameterNumber":2,"parameterNumberName":"U-component_of_WINDS"},"data":[0.0,0.0,0.0,0.0,0.0,0.0,0.0,0.0,0.0,0.0,0.0,0.0,0.0,0.0,0.0,0.0,0.0,0.0,0.0,0.0,0.0,0.0,0.0,0.0,0.0,0.0,0.0,0.0,0.0,0.0,0.0,0.0,0.0,0.0,0.0,0.0,0.0,0.0,0.0,0.0,0.0,0.0,0.0,0.0,0.0,0.0,0.0,0.0,0.0,0.0,0.0,0.0,0.0,0.0,0.0,0.0,0.0,0.0,0.0,0.0,0.0,0.0,0.0,0.0,0.0,0.0,0.0,0.0,0.0,0.0,0.0,0.0,0.0,0.0,0.0,0.0,0.0,0.0,0.0,0.0,0.0,0.0,0.0,0.0,0.0,0.0,0.0,0.0,0.0,0.0,0.0,0.4489,0.4631,0.4587,0.4333,0.4313,0.4191,0.3911,0.0,0.0,0.0,0.0,0.0,0.0,0.0,0.0,0.0,0.0,0.0,0.0,0.0,0.0,0.0,0.0,0.0,0.0,0.0,0.0,0.0,0.0,0.0,0.0,0.0,0.0,0.0,0.0,0.0,0.0,0.0,0.0,0.0,0.0,0.0,0.0,0.0,0.0,0.0,0.0,0.0,0.0,0.0,0.0,0.0,0.0,0.0,0.0,0.0,0.0,0.0,0.0,0.0,0.0,0.0,0.0,0.0,0.0,0.0,0.0,0.0,0.0,0.0,0.0,0.0,0.0,0.0,0.0,0.0,0.0,0.0,0.0,0.0,0.0,0.0,0.0,0.0,0.0,0.0,0.0,0.0,0.0,0.0,0.0,0.0,0.0,0.0,0.0,0.0,0.0,0.0,0.0,0.0,0.0,0.0,0.0,0.0,0.0,0.0,0.0,0.0,0.0,0.0,0.0,0.4296,0.464,0.4699,0.4587,0.4333,0.4313,0.4191,0.3911,0.0,0.0,0.0,0.0,0.0,0.0,0.0,0.0,0.0,0.0,0.0,0.0,0.0,0.0,0.0,0.0,0.0,0.0,0.0,0.0,0.0,0.0,0.0,0.0,0.0,0.0,0.0,0.0,0.0,0.0,0.0,0.0,0.0,0.0,0.0,0.0,0.0,0.0,0.0,0.0,0.0,0.0,0.0,0.0,0.0,0.0,0.0,0.0,0.0,0.0,0.0,0.0,0.0,0.0,0.0,0.0,0.0,0.0,0.0,0.0,0.0,0.0,0.0,0.0,0.0,0.0,0.0,0.0,0.0,0.0,0.0,0.0,0.0,0.0,0.0,0.0,0.0,0.0,0.0,0.0,0.0,0.0,0.0,0.0,0.0,0.0,0.0,0.0,0.0,0.0,0.0,0.0,0.0,0.0,0.0,0.0,0.0,0.0,0.0,0.0,0.0,0.0,0.0,0.5062,0.4951,0.5126,0.501,0.4873,0.4745,0.4726,0.4606,0.4354,0.3725,0.0,0.0,0.0,0.0,0.0,0.0,0.0,0.0,0.0,0.0,0.0,0.0,0.0,0.0,0.0,0.0,0.0,0.0,0.0,0.0,0.0,0.0,0.0,0.0,0.0,0.0,0.0,0.0,0.0,0.0,0.0,0.0,0.0,0.0,0.0,0.0,0.0,0.0,0.0,0.0,0.0,0.0,0.0,0.0,0.0,0.0,0.0,0.0,0.0,0.0,0.0,0.0,0.0,0.0,0.0,0.0,0.0,0.0,0.0,0.0,0.0,0.0,0.0,0.0,0.0,0.0,0.0,0.0,0.0,0.0,0.0,0.0,0.0,0.0,0.0,0.0,0.0,0.0,0.0,0.0,0.0,0.0,0.0,0.0,0.0,0.0,0.0,0.0,0.0,0.0,0.0,0.0,0.0,0.0,0.0,0.0,0.0,0.0,0.0,0.0,0.0,0.0,0.5705,0.5633,0.5511,0.531,0.5166,0.5108,0.5108,0.4952,0.4626,0.4004,0.0,0.0,0.0,0.0,0.0,0.0,0.0,0.0,0.0,0.0,0.0,0.0,0.0,0.0,0.0,0.0,0.0,0.0,0.0,0.0,0.0,0.0,0.0,0.0,0.0,0.0,0.0,0.0,0.0,0.0,0.0,0.0,0.0,0.0,0.0,0.0,0.0,0.0,0.0,0.0,0.0,0.0,0.0,0.0,0.0,0.0,0.0,0.0,0.0,0.0,0.0,0.0,0.0,0.0,0.0,0.0,0.0,0.0,0.0,0.0,0.0,0.0,0.0,0.0,0.0,0.0,0.0,0.0,0.0,0.0,0.0,0.0,0.0,0.0,0.0,0.0,0.0,0.0,0.0,0.0,0.0,0.0,0.0,0.0,0.0,0.0,0.0,0.0,0.0,0.0,0.0,0.0,0.0,0.0,0.0,0.0,0.0,0.0,0.0,0.0,0.0,0.0,0.5865,0.5986,0.5549,0.5492,0.5368,0.5127,0.5108,0.4873,0.4374,0.3818,0.0,0.0,0.0,0.0,0.0,0.0,0.0,0.0,0.0,0.0,0.0,0.0,0.0,0.0,0.0,0.0,0.0,0.0,0.0,0.0,0.0,0.0,0.0,0.0,0.0,0.0,0.0,0.0,0.0,0.0,0.0,0.0,0.0,0.0,0.0,0.0,0.0,0.0,0.0,0.0,0.0,0.0,0.0,0.0,0.0,0.0,0.0,0.0,0.0,0.0,0.0,0.0,0.0,0.0,0.0,0.0,0.0,0.0,0.0,0.0,0.0,0.0,0.0,0.0,0.0,0.0,0.0,0.0,0.0,0.0,0.0,0.0,0.0,0.0,0.0,0.0,0.0,0.0,0.0,0.0,0.0,0.0,0.0,0.0,0.0,0.0,0.0,0.0,0.0,0.0,0.0,0.0,0.0,0.0,0.0,0.0,0.0,0.0,0.0,0.0,0.0,0.0,0.6254,0.613,0.0,0.5678,0.5454,0.5349,0.5195,0.501,0.4814,0.0,0.0,0.0,0.0,0.0,0.0,0.0,0.0,0.0,0.0,0.0,0.0,0.0,0.0,0.0,0.0,0.0,0.0,0.0,0.0,0.0,0.0,0.0,0.0,0.0,0.0,0.0,0.0,0.0,0.0,0.0,0.0,0.0,0.0,0.0,0.0,0.0,0.0,0.0,0.0,0.0,0.0,0.0,0.0,0.0,0.0,0.0,0.0,0.0,0.0,0.0,0.0,0.0,0.0,0.0,0.0,0.0,0.0,0.0,0.0,0.0,0.0,0.0,0.0,0.0,0.0,0.0,0.0,0.0,0.0,0.0,0.0,0.0,0.0,0.0,0.0,0.0,0.0,0.0,0.0,0.0,0.0,0.0,0.0,0.0,0.0,0.0,0.0,0.0,0.0,0.0,0.0,0.0,0.0,0.0,0.0,0.0,0.0,0.0,0.0,0.0,0.0,0.675,0.6561,0.6289,0.0,0.5852,0.5606,0.5511,0.5253,0.5069,0.4971,0.0,0.0,0.0,0.0,0.0,0.0,0.0,0.0,0.0,0.0,0.0,0.0,0.0,0.0,0.0,0.0,0.0,0.0,0.0,0.0,0.0,0.0,0.0,0.0,0.0,0.0,0.0,0.0,0.0,0.0,0.0,0.0,0.0,0.0,0.0,0.0,0.0,0.0,0.0,0.0,0.0,0.0,0.0,0.0,0.0,0.0,0.0,0.0,0.0,0.0,0.0,0.0,0.0,0.0,0.0,0.0,0.0,0.0,0.0,0.0,0.0,0.0,0.0,0.0,0.0,0.0,0.0,0.0,0.0,0.0,0.0,0.0,0.0,0.0,0.0,0.0,0.0,0.0,0.0,0.0,0.0,0.0,0.0,0.0,0.0,0.0,0.0,0.0,0.0,0.0,0.0,0.0,0.0,0.0,0.0,0.0,0.0,0.0,0.0,0.0,0.0,0.0,0.6782,0.6723,0.65,0.6236,0.6016,0.58,0.553,0.5272,0.4991,0.0,0.0,0.0,0.0,0.0,0.0,0.0,0.0,0.0,0.0,0.0,0.0,0.0,0.0,0.0,0.0,0.0,0.0,0.0,0.0,0.0,0.0,0.0,0.0,0.0,0.0,0.0,0.0,0.0,0.0,0.0,0.0,0.0,0.0,0.0,0.0,0.0,0.0,0.0,0.0,0.0,0.0,0.0,0.0,0.0,0.0,0.0,0.0,0.0,0.0,0.0,0.0,0.0,0.0,0.0,0.0,0.0,0.0,0.0,0.0,0.0,0.0,0.0,0.0,0.0,0.0,0.0,0.0,0.0,0.0,0.0,0.0,0.0,0.0,0.0,0.0,0.0,0.0,0.0,0.0,0.0,0.0,0.0,0.0,0.0,0.0,0.0,0.0,0.0,0.0,0.0,0.0,0.0,0.0,0.0,0.0,0.0,0.0,0.0,0.0,0.0,0.0,0.0,0.7373,0.7109,0.6778,0.6697,0.6341,0.6076,0.6004,0.5797,0.5547,0.5291,0.0,0.0,0.0,0.0,0.0,0.0,0.0,0.0,0.0,0.0,0.0,0.0,0.0,0.0,0.0,0.0,0.0,0.0,0.0,0.0,0.0,0.0,0.0,0.0,0.0,0.0,0.0,0.0,0.0,0.0,0.0,0.0,0.0,0.0,0.0,0.0,0.0,0.0,0.0,0.0,0.0,0.0,0.0,0.0,0.0,0.0,0.0,0.0,0.0,0.0,0.0,0.0,0.0,0.0,0.0,0.0,0.0,0.0,0.0,0.0,0.0,0.0,0.0,0.0,0.0,0.0,0.0,0.0,0.0,0.0,0.0,0.0,0.0,0.0,0.0,0.0,0.0,0.0,0.0,0.0,0.0,0.0,0.0,0.0,0.0,0.0,0.0,0.0,0.0,0.0,0.0,0.0,0.0,0.0,0.0,0.0,0.0,0.0,0.0,0.0,0.0,0.0,0.7632,0.727,0.6908,0.6908,0.648,0.6189,0.6189,0.6016,0.573,0.5365,0.0,0.0,0.0,0.0,0.0,0.0,0.0,0.0,0.0,0.0,0.0,0.0,0.0,0.0,0.0,0.0,0.0,0.0,0.0,0.0,0.0,0.0,0.0,0.0,0.0,0.0,0.0,0.0,0.0,0.0,0.0,0.0,0.0,0.0,0.0,0.0,0.0,0.0,0.0,0.0,0.0,0.0,0.0,0.0,0.0,0.0,0.0,0.0,0.0,0.0,0.0,0.0,0.0,0.0,0.0,0.0,0.0,0.0,0.0,0.0,0.0,0.0,0.0,0.0,0.0,0.0,0.0,0.0,0.0,0.0,0.0,0.0,0.0,0.0,0.0,0.0,0.0,0.0,0.0,0.0,0.0,0.0,0.0,0.0,0.0,0.0,0.0,0.0,0.0,0.0,0.0,0.0,0.0,0.0,0.0,0.0,0.0,0.0,0.0,0.0,0.0,0.0,0.7688,0.7332,0.6944,0.6927,0.6532,0.6259,0.6236,0.607,0.5744,0.5226,0.0,0.0,0.0,0.0,0.0,0.0,0.0,0.0,0.0,0.0,0.0,0.0,0.0,0.0,0.0,0.0,0.0,0.0,0.0,0.0,0.0,0.0,0.0,0.0,0.0,0.0,0.0,0.0,0.0,0.0,0.0,0.0,0.0,0.0,0.0,0.0,0.0,0.0,0.0,0.0,0.0,0.0,0.0,0.0,0.0,0.0,0.0,0.0,0.0,0.0,0.0,0.0,0.0,0.0,0.0,0.0,0.0,0.0,0.0,0.0,0.6915,0.0,0.0,0.0,0.0,0.0,0.0,0.0,0.0,0.0,0.0,0.0,0.0,0.0,0.0,0.0,0.0,0.0,0.0,0.0,0.0,0.0,0.0,0.0,0.0,0.0,0.0,0.0,0.0,0.0,0.0,0.0,0.0,0.0,0.0,0.0,0.0,0.0,0.0,0.0,0.0,0.0,0.808,0.7797,0.7362,0.7162,0.6901,0.6693,0.6535,0.6465,0.63,0.5995,0.0,0.0,0.0,0.0,0.0,0.0,0.0,0.0,0.0,0.0,0.0,0.0,0.0,0.0,0.0,0.0,0.0,0.0,0.0,0.0,0.0,0.0,0.0,0.0,0.0,0.0,0.0,0.0,0.0,0.0,0.0,0.0,0.0,0.0,0.0,0.0,0.0,0.0,0.0,0.0,0.0,0.0,0.0,0.0,0.0,0.0,0.0,0.0,0.0,0.0,0.0,0.0,0.0,0.0,0.0,0.0,0.0,0.0,0.0,0.0,0.0,0.8107,0.0,0.0,0.0,0.0,0.0,0.0,0.0,0.0,0.0,0.0,0.0,0.0,0.0,0.0,0.0,0.0,0.0,0.0,0.0,0.0,0.0,0.0,0.0,0.0,0.0,0.0,0.0,0.0,0.0,0.0,0.0,0.0,0.0,0.0,0.0,0.0,0.0,0.0,0.0,0.0,0.8259,0.8183,0.7926,0.7665,0.7713,0.7562,0.703,0.6981,0.6709,0.6047,0.5789,0.0,0.0,0.0,0.0,0.0,0.0,0.0,0.0,0.0,0.0,0.0,0.0,0.0,0.0,0.0,0.0,0.0,0.0,0.0,0.0,0.0,0.0,0.0,0.0,0.0,0.0,0.0,0.0,0.0,0.0,0.0,0.0,0.0,0.0,0.0,0.0,0.0,0.0,0.0,0.0,0.0,0.0,0.0,0.0,0.0,0.0,0.0,0.0,0.0,0.0,0.0,0.0,0.0,1.1316,1.1983,1.2603,1.1053,1.108,1.2297,1.0769,1.0121,1.0066,0.0,0.0,0.0,0.0,0.0,0.0,0.0,0.0,0.0,0.0,0.0,0.0,0.0,0.0,0.0,0.0,0.0,0.0,0.0,0.0,0.0,0.0,0.0,0.0,0.0,1.1618,1.1544,0.0,0.0,0.0,0.0,0.0,0.0,0.0,0.0,0.0,0.0,0.0,0.0,0.8482,0.8713,0.8672,0.8372,0.8602,0.8471,0.7687,0.7495,0.7019,0.6139,0.6311,0.6114,0.0,0.0,0.0,0.0,0.0,0.0,0.0,0.0,0.0,0.0,0.0,0.0,0.0,0.0,0.0,0.0,0.0,0.0,0.0,0.0,0.0,0.0,0.0,0.0,0.0,0.0,0.0,0.0,0.0,0.0,0.0,0.0,0.5678,0.7253,0.0,0.0,0.0,0.0,0.0,0.0,0.0,0.0,0.0,0.0,0.0,0.0,0.0,1.1431,1.2122,1.2349,1.243,1.2377,1.2478,1.254,1.2513,1.2204,1.2158,1.2296,1.193,0.0,1.1709,1.0912,0.0,0.0,0.0,0.0,0.0,0.0,0.0,0.0,0.0,0.0,0.0,0.0,0.0,0.0,0.0,0.0,0.0,0.0,0.0,0.0,0.0,0.0,1.1801,1.1911,1.2021,1.2003,0.0,1.0525,0.9515,0.9404,0.8155,0.0,0.0,0.0,0.0,0.0,0.0,0.0,0.9203,0.9671,0.9805,0.9354,0.915,0.8907,0.855,0.7848,0.7344,0.7194,0.6374,0.6051,0.6374,0.5563,0.0,0.0,0.0,0.0,0.0,0.0,0.0,0.0,0.0,0.0,0.0,0.0,0.0,0.0,0.0,0.0,0.0,0.0,0.0,0.0,0.0,0.0,0.0,0.0,0.0,0.0,0.0,0.0,0.0,0.6643,0.7499,0.8241,0.8026,0.7941,0.0,0.0,0.0,0.0,0.0,0.0,0.0,0.0,0.0,1.1657,1.2074,1.2451,1.2792,1.3249,1.3468,1.344,1.3887,1.4069,1.4015,1.3868,1.3793,1.3752,1.3538,1.3453,1.3361,1.2095,1.1581,1.1544,0.0,0.0,0.0,0.0,1.1269,1.1636,1.2095,1.2031,0.0,1.2132,0.0,0.0,0.0,0.0,0.0,0.0,0.0,0.0,0.0,0.0,1.2766,1.2766,1.3123,1.3453,1.3453,1.2535,1.159,0.0,1.0428,0.9747,0.9244,0.0,0.0,0.0,0.0,0.0,0.9999,1.0442,1.0577,1.0053,1.0207,1.0094,0.9479,0.8941,0.849,0.8153,0.723,0.6812,0.7031,0.6298,0.5924,0.0,0.0,0.0,0.0,0.0,0.0,0.0,0.0,0.0,0.0,0.0,0.0,0.0,0.0,0.0,0.0,0.0,0.0,0.0,0.0,0.0,0.0,0.0,0.0,0.0,0.0,0.0,0.0,0.7806,0.8746,0.9184,0.9256,0.9348,0.0,0.0,0.0,0.0,0.0,0.0,1.1799,1.2448,1.29,1.3134,1.3176,1.3281,1.3457,1.4059,1.4348,1.4341,1.4945,1.5214,1.5189,1.5015,1.4928,1.4919,1.4666,1.4556,1.4445,1.2996,1.2407,1.2388,1.2187,1.2095,1.2095,1.2095,1.2223,1.248,1.3096,1.3298,1.3335,1.3537,0.0,1.3188,1.26,0.0,0.0,0.0,0.0,1.2453,1.2695,1.3202,1.3655,1.3655,1.4124,1.4545,1.4499,1.4022,1.3372,0.0,1.2204,1.1825,1.1099,0.0,0.0,0.0,0.0,1.1148,1.0881,1.1324,1.1474,1.0929,1.1176,1.1117,1.0397,0.9958,0.9488,0.8962,0.8089,0.7548,0.7406,0.6941,0.6531,0.6232,0.0,0.0,0.0,0.0,0.0,0.0,0.0,0.0,0.0,0.0,0.0,0.0,0.0,0.0,0.0,0.0,0.0,0.0,0.0,0.0,0.0,0.0,0.0,0.0,0.0,0.0,0.0,0.0,0.0,0.9936,1.0194,0.0,0.0,0.0,0.0,1.26,1.2643,1.27,1.273,1.2784,1.3181,1.4003,1.4043,1.4434,1.5254,1.5312,1.5299,1.5234,1.5272,1.5253,1.5209,1.5068,1.4988,1.4973,1.4766,1.4697,1.4612,1.3637,1.3243,1.3151,1.2388,1.2095,1.2095,1.2095,1.2582,1.3243,1.328,1.3298,1.3427,1.4187,1.3912,1.328,1.3243,1.2711,0.0,0.0,1.3243,1.344,1.4332,1.4604,1.4622,1.4622,1.466,1.4656,1.4522,1.4469,1.4205,0.0,1.2519,1.1869,1.1751,0.0,1.1369,1.1257,1.1809,1.2119,1.186,1.2451,1.2692,1.2164,1.1843,1.1571,1.1275,1.0453,0.987,0.9581,0.8689,0.7932,0.7413,0.707,0.6794,0.6579,0.5553,0.0,0.0,0.0,0.0,0.0,0.0,0.0,0.0,0.0,0.0,0.0,0.0,0.0,0.0,0.0,0.0,0.0,0.0,0.0,0.0,0.0,0.0,0.0,0.0,0.0,0.0,0.0,0.0,1.0906,1.1487,0.0,1.2232,1.2549,1.2743,1.2745,1.3264,1.3595,1.3637,1.4165,1.4622,1.4922,1.4941,1.5098,1.5391,1.5391,1.5387,1.536,1.5318,1.5291,1.5266,1.5075,1.4995,1.4988,1.4875,1.4822,1.4804,1.4466,1.4229,1.404,1.3765,1.3637,1.3637,1.3637,1.3838,1.4077,1.4077,1.4077,1.4114,1.4407,1.4316,1.4077,1.4077,1.3875,1.371,1.3985,1.4077,1.4143,1.4475,1.4578,1.4578,1.4578,1.4578,1.4696,1.5172,1.527,1.5343,1.5582,1.4501,1.3406,1.2866,1.3016,1.3025,1.2471,1.2819,1.3051,1.2824,1.292,1.2794,1.2266,1.2092,1.1909,1.1645,1.1139,1.0632,1.0157,0.9286,0.8501,0.7886,0.7371,0.7128,0.7235,0.645,0.614,0.0,0.0,0.0,0.0,0.0,0.0,0.0,0.0,0.0,0.0,0.0,0.0,0.0,0.0,0.0,0.0,0.0,0.0,0.0,0.0,0.0,0.0,0.0,0.0,0.0,0.0,1.1521,1.1795,1.2613,1.3132,1.3142,1.3397,1.3577,1.3577,1.4101,1.4452,1.45,1.5075,1.5391,1.5391,1.5391,1.5391,1.5391,1.5391,1.5391,1.5391,1.5343,1.5323,1.5311,1.5159,1.5094,1.5049,1.4973,1.4925,1.4917,1.4921,1.4804,1.4643,1.4589,1.4545,1.4488,1.4488,1.4488,1.4488,1.4488,1.4488,1.4488,1.4488,1.4488,1.4488,1.4488,1.4488,1.4499,1.4556,1.4578,1.4589,1.4614,1.4624,1.4614,1.4589,1.477,1.5035,1.5245,1.5729,1.6188,1.6431,1.5845,1.5117,1.452,1.4513,1.4404,1.38,1.3651,1.3555,1.341,1.3244,1.2961,1.251,1.2471,1.2332,1.1976,1.1732,1.1359,1.0735,0.987,0.9081,0.8475,0.7732,0.7379,0.747,0.6899,0.6575,0.652,0.0,0.0,0.0,0.0,0.0,0.0,0.0,0.0,0.0,0.0,0.0,0.0,0.0,0.0,0.0,0.0,0.0,0.0,0.0,0.0,0.0,0.0,0.0,1.0116,1.0912,1.1801,1.2637,1.3495,1.4027,1.4022,1.4791,1.5285,1.5285,1.5291,1.5291,1.5291,1.5355,1.539,1.5391,1.5391,1.5391,1.5391,1.5391,1.5391,1.5391,1.5391,1.5364,1.5303,1.5297,1.5253,1.5209,1.5056,1.5014,1.5007,1.4944,1.4913,1.4895,1.4766,1.4624,1.4517,1.4517,1.4499,1.4488,1.4488,1.4488,1.4488,1.4488,1.4488,1.4488,1.4488,1.4499,1.4533,1.4666,1.4688,1.4737,1.4877,1.4904,1.4877,1.4737,1.5293,1.5629,1.4773,1.5802,1.6665,1.5949,1.6426,1.6872,1.6642,1.5962,1.5378,1.5187,1.4309,0.0,1.3652,1.3528,1.3311,1.3031,1.3013,1.2794,1.2251,1.219,1.1946,1.1335,1.0421,0.9673,0.9141,0.8166,0.7513,0.7268,0.6871,0.6419,0.5903,0.0,0.0,0.0,0.0,0.0,0.0,0.0,0.0,0.0,0.0,0.0,0.0,0.0,0.0,0.0,0.0,0.0,0.0,0.0,0.0,0.0,0.0,1.0765,1.0871,1.223,1.3284,1.3481,1.4214,1.4702,1.4661,1.4911,1.5087,1.5087,1.5159,1.5253,1.5291,1.5328,1.5351,1.5391,1.5391,1.5391,1.5391,1.5391,1.5391,1.5391,1.5391,1.5388,1.5371,1.5327,1.5291,1.5272,1.5171,1.514,1.514,1.5133,1.5066,1.4962,1.4885,1.4766,1.4645,1.4645,1.4571,1.4488,1.4488,1.4488,1.4488,1.4488,1.4488,1.4488,1.4488,1.4578,1.4656,1.4697,1.4776,1.4841,1.4895,1.4904,1.4895,1.4841,1.502,1.5403,1.6216,1.6274,1.6608,1.8033,1.8023,1.7573,1.6927,1.6621,1.6461,1.6401,1.5911,0.0,1.4753,1.44,1.3899,1.3081,1.3013,1.2869,1.2514,1.2312,1.1933,1.1272,1.0399,0.9835,0.9673,0.8952,0.8509,0.8446,0.8331,0.8199,0.0,0.0,0.0,0.0,0.0,0.0,0.0,0.0,0.0,0.0,0.0,0.0,0.0,0.0,0.0,0.0,0.0,0.0,0.0,0.0,0.0,0.0,1.148,1.2076,1.2147,1.309,1.3906,1.4217,1.4673,1.4942,1.4913,1.4944,1.4962,1.5007,1.5082,1.5159,1.5247,1.5272,1.5328,1.5365,1.5385,1.5391,1.5391,1.5391,1.5391,1.5391,1.5391,1.5391,1.5391,1.532,1.5294,0.0,1.5618,1.5734,1.5772,1.6118,1.5997,0.0,0.0,0.0,0.0,0.0,1.4614,1.4488,1.4488,1.4488,1.4488,1.4488,1.4533,1.4571,1.4571,1.4677,1.4794,1.4812,1.4873,1.4942,1.4942,1.4942,1.4925,1.4913,1.5159,1.5546,1.6068,1.6302,1.6687,1.7673,1.7992,0.0,1.7477,1.7403,1.7403,1.7403,1.6848,1.6221,1.5678,1.5071,1.4399,1.3709,1.3339,1.3051,1.2797,1.2626,0.0,0.0,0.0,1.0273,0.9905,0.9606,0.0,0.0,0.0,0.0,0.0,0.0,0.0,0.0,0.908,0.9449,0.0,0.0,0.0,0.0,0.0,0.0,0.0,0.0,0.0,0.0,0.0,0.0,0.0,0.0,0.0,0.0,1.2871,1.3457,1.356,1.3626,1.3978,1.4783,1.4886,1.4877,1.4859,1.4877,1.4911,1.495,1.4992,1.5035,1.5177,0.0,0.0,0.0,0.0,1.5389,1.5391,1.5391,1.5391,1.5391,1.5391,1.5391,1.5391,1.533,1.5354,1.5509,1.6195,1.6561,1.6696,1.7407,1.7273,1.6535,1.5431,1.4954,1.4913,1.4776,1.4645,1.4545,1.4545,0.0,0.0,1.4637,1.4699,1.4746,1.483,1.4869,1.4928,1.4985,1.5021,1.5028,1.5028,1.5028,1.5007,1.4944,1.5478,1.5828,1.5186,1.5995,1.6701,1.6146,1.7008,1.7872,1.795,1.8115,1.8243,1.8243,1.7384,1.6612,1.6336,1.5483,1.4761,1.4412,0.0,0.0,1.3067,1.3031,1.2794,1.2312,1.1679,1.0946,1.0134,1.0314,1.0404,1.036,1.0591,1.0704,1.0704,1.1316,1.1349,1.0865,1.0603,1.0871,0.0,0.0,0.0,0.0,0.0,0.0,0.0,0.0,0.0,0.0,0.0,0.0,0.0,0.0,0.0,1.2403,1.275,1.3141,1.3938,1.4077,1.4238,1.4698,1.4747,1.4697,1.4589,1.4677,1.4738,1.4757,1.4867,1.495,1.5035,1.5054,1.5127,1.5291,1.5308,1.5359,1.5391,1.5391,1.5391,1.5391,0.0,0.0,1.5391,1.539,1.576,1.6438,1.6484,1.6894,1.756,1.765,1.7606,1.7304,1.5642,1.498,1.497,1.4894,1.4832,1.4813,1.4813,1.4813,1.4926,1.5583,1.5377,1.499,1.5621,1.5437,0.0,1.5007,1.5082,1.5152,1.5152,1.5152,1.5165,1.5146,1.5255,1.5477,1.5874,1.566,1.5695,1.6683,1.6557,1.6509,1.7045,1.8207,1.9069,1.9069,1.817,1.7223,1.6472,1.5468,1.4521,1.3701,1.3498,1.3379,1.3329,1.3121,1.2959,1.285,1.2325,1.1792,1.1288,1.1624,1.1659,1.1343,1.1378,1.1412,1.1412,1.1541,1.1917,1.2532,1.2265,1.1951,0.0,0.0,0.0,0.0,0.0,0.0,0.0,0.0,0.0,0.0,0.0,0.9974,1.1052,0.0,1.2092,1.3123,1.3288,1.3471,1.3971,1.4051,1.4144,1.4421,1.453,1.4537,1.4375,1.4504,1.4624,1.4678,1.4766,1.4831,1.4942,1.4985,1.5054,1.5152,1.5254,1.5323,1.5349,1.5384,1.5391,1.541,1.584,1.6055,1.6055,1.6465,1.6898,1.7325,1.7689,1.8078,1.8458,1.8369,1.8357,1.8215,1.6867,1.6318,1.6292,1.6255,1.6203,1.6139,1.6139,1.6139,1.6224,1.663,1.6525,1.6238,1.6219,1.5987,1.5657,1.521,1.5146,1.5189,1.5189,1.5189,1.5189,1.5189,1.5189,1.5293,1.5637,1.5334,1.5205,1.5904,1.5964,1.6012,1.6337,1.733,1.8096,1.8096,1.7629,1.7095,1.6514,1.5673,1.4849,1.4177,1.3733,1.3478,1.3413,1.3156,1.3013,1.3013,1.2626,1.2297,1.2116,1.2415,1.2504,1.2313,1.2436,1.2505,1.2505,1.2505,1.2755,1.3191,1.3069,1.2835,0.0,0.0,0.0,0.0,0.0,0.0,0.0,0.0,0.8243,0.943,1.0176,1.0929,1.1952,1.2219,1.26,1.3574,1.3739,1.3751,1.3824,1.3838,1.3913,1.4051,1.427,1.435,1.4201,1.435,1.4492,1.4656,1.4666,1.4717,1.4841,1.4906,1.495,1.4995,1.5159,1.5331,1.5535,1.5599,1.5701,1.5898,1.6602,1.6934,1.6973,1.7617,1.8003,1.8213,1.9073,1.9418,1.9338,1.9261,1.9242,1.9184,1.8484,1.8179,1.807,1.7745,1.7551,1.7462,1.7462,1.7462,1.7481,1.7661,1.7668,1.7516,1.6992,1.6776,1.6542,1.5695,1.5445,1.5407,1.5247,1.5189,1.5189,1.5189,1.5189,1.5189,1.5189,1.5127,1.5035,1.5014,1.5384,1.5708,1.5673,1.6115,1.6581,1.6853,1.6762,1.6566,1.6315,1.5627,1.5028,1.465,1.4014,1.354,1.3413,1.3191,1.3085,1.3085,1.2834,1.2687,1.2743,1.2924,1.3031,1.3085,1.3294,1.3396,1.3396,1.3396,1.3396,1.3396,1.3396,1.3396,0.2306,0.3364,0.4483,0.5633,0.6343,0.7119,0.0,0.0,0.954,1.0174,1.0859,1.1418,1.1553,1.212,1.2665,1.3035,1.3104,1.3244,1.3569,1.363,1.363,1.3661,1.3838,1.4024,1.4175,1.4214,1.4307,1.4511,1.4522,1.4589,1.4717,1.4728,1.4812,1.4988,1.5021,1.5464,1.6356,1.6372,1.679,1.7617,1.7715,1.7793,1.7852,1.7949,1.8418,1.9199,2.0,2.0279,2.0177,2.0158,2.0158,2.0139,2.0062,1.9996,1.9815,1.8259,1.7682,1.7675,1.7675,1.7675,1.779,1.8559,1.8316,1.7823,1.8496,1.8177,1.7388,1.658,1.6349,1.6176,1.5407,1.5189,1.5189,1.5189,1.5189,1.5189,1.5189,1.5183,1.514,1.5028,1.5049,1.5047,1.4877,1.4892,1.5384,1.6715,1.6298,1.577,1.556,1.4833,1.4248,1.4023,1.3759,1.354,1.3413,1.3363,1.3363,1.3363,1.3103,1.3051,1.3295,1.3121,1.3121,1.3346,1.3379,1.3396,1.3396,1.3396,1.3396,1.3396,1.3396,1.3396,0.2263,0.3465,0.0,0.0,0.6061,0.6781,0.7708,0.8525,0.9363,1.0365,1.1015,1.1541,1.2047,1.2265,1.2471,0.0,1.2906,1.3051,1.3244,1.3379,1.3494,1.3494,1.3575,1.3711,1.3997,1.4136,1.4282,1.4476,1.4488,1.4522,1.4571,1.4656,1.4952,1.5518,1.5687,1.6204,1.7119,1.7221,1.7449,1.7849,1.8405,1.8672,1.8711,1.9258,1.9707,2.0078,2.0371,2.046,2.0406,2.0321,2.0312,2.0312,2.0312,2.0312,2.0215,1.9485,1.9215,1.9215,1.9215,1.9215,1.9273,1.9638,1.9504,1.9196,1.9049,1.8754,1.8292,1.7446,1.6849,1.6426,1.6042,1.558,1.5189,1.5189,1.5189,1.5189,1.5189,1.5189,1.5183,1.5133,1.5049,1.4966,1.4898,1.484,1.5029,1.5631,1.5321,1.4971,1.4891,1.4575,1.4295,1.411,1.378,1.357,1.3526,1.3446,1.3396,1.3396,1.3278,1.3278,1.3396,1.3294,1.3294,1.3396,1.3396,1.3396,1.3396,1.3396,1.3396,1.3396,1.3396,1.3396,0.2163,0.0,0.0,0.4918,0.5539,0.6203,0.7146,0.8066,0.907,1.0328,1.0826,1.1244,1.1984,1.2035,0.0,1.2305,1.2591,1.2813,1.2887,1.3121,1.3294,1.3294,1.3346,1.351,1.3798,1.3955,1.4123,1.4307,1.4387,1.4429,1.4429,1.4763,1.5269,1.5886,1.6338,1.7006,1.7917,1.8052,1.8256,1.8501,1.9189,1.954,1.957,2.0273,2.0605,2.0605,2.0547,2.0527,2.0488,2.0402,2.0347,2.0331,2.0312,2.0312,2.0312,2.0312,2.0312,2.0312,2.0312,2.0312,2.0312,2.0312,2.0312,2.0177,1.9542,1.9369,1.9169,1.8292,1.7638,1.7138,1.6888,1.6369,1.583,1.5618,1.5561,1.5484,1.5247,1.5189,1.5189,1.5189,1.5127,1.5035,1.4977,1.495,1.4911,1.485,1.4677,1.4556,1.4556,1.4522,1.4411,1.4214,1.3941,1.3721,1.3617,1.3509,1.3446,1.3396,1.3396,1.3396,1.3396,1.3396,1.3396,1.3396,1.3396,1.3396,1.3396,1.3396,1.3396,1.3396,1.3396,1.3548,0.0,0.0,0.3484,0.4544,0.5068,0.5807,0.7645,0.8388,0.9019,1.0082,1.0319,1.0467,1.0883,1.115,1.1416,1.1679,1.1999,1.2312,1.2572,1.2834,1.3013,1.3013,1.3226,1.3462,0.0,1.36,1.3691,1.3913,1.411,1.4201,1.4201,1.5141,1.5747,1.5893,1.6787,1.7757,1.8744,1.8904,1.9381,2.0227,2.0319,2.04,2.0469,2.0566,2.0605,2.0605,2.0605,2.0566,2.0508,2.0508,2.0455,2.0389,2.0331,2.0312,2.0312,2.0312,2.0312,2.0312,2.0312,2.0312,2.0312,2.0312,2.0312,2.0312,2.0273,2.0254,2.0081,1.9203,1.8946,1.8727,1.7888,1.7638,1.7426,1.6657,1.6465,1.6234,1.5388,1.5189,1.5189,1.5189,1.5209,1.514,1.4947,1.4957,1.492,1.4728,1.4707,1.4678,1.4678,1.4571,1.4411,1.4214,1.4188,1.4024,1.363,1.3601,1.354,1.3413,1.3396,1.3396,1.3396,1.3396,1.3396,1.3396,1.3396,1.3396,1.3396,1.3396,1.3396,1.3396,1.3396,1.3921,0.0,0.0,0.2864,0.3715,0.4581,0.547,0.6364,0.7328,0.828,0.908,0.9445,0.9754,1.0108,1.061,1.1001,1.1102,1.1709,1.2231,1.2332,1.2569,1.2724,1.2724,1.2799,0.0,0.0,0.0,0.0,1.3867,1.3969,1.4051,1.4188,1.5026,1.5835,1.6546,1.751,1.8478,1.9441,1.9602,1.9873,2.0292,2.0379,2.0448,2.0508,2.0566,2.0605,2.0605,2.0605,2.0586,2.0566,2.0527,2.0482,2.0467,2.0381,2.036,2.0369,2.0331,2.0312,2.0312,2.0312,2.0312,2.0312,2.0312,2.0312,2.0312,2.0312,2.0312,2.0235,1.9946,1.9446,1.8927,1.8645,1.8126,1.7619,1.735,1.6888,1.6426,1.6138,1.5618,1.5189,1.5189,1.5189,1.5177,1.512,1.5114,1.5075,1.4912,1.4794,1.4677,1.4589,1.4522,1.4476,1.4399,1.4282,1.4149,1.4011,1.3751,1.3586,1.354,1.3446,1.3396,1.3396,1.3396,1.3396,1.3396,1.3396,1.3396,1.3396,1.3887,1.4141,1.4141,1.4812,1.5315,0.0498,0.1189,0.1818,0.2942,0.376,0.4523,0.539,0.6227,0.7028,0.7797,0.8219,0.8612,0.9014,0.9557,1.0053,1.0385,1.0985,1.1512,1.1831,1.2102,1.2325,1.2435,1.2533,0.0,0.0,0.0,0.0,1.357,1.3706,1.4023,1.4504,1.5342,1.63,1.7293,1.8308,1.912,1.9726,1.9858,2.0022,2.0227,2.0276,2.0348,2.0479,2.0518,2.0537,2.0537,2.0546,2.0566,2.0566,2.0547,2.0547,2.0527,2.0451,2.0434,2.0435,2.0366,2.0332,2.0331,2.0312,2.0312,2.0312,2.0312,2.0312,2.0312,2.0312,2.0312,2.0312,2.0312,1.9908,1.9473,1.9473,1.9042,1.8542,1.8241,1.7779,1.7318,1.7003,1.6484,1.6099,1.6099,1.5868,1.5645,1.5594,1.5325,1.5095,1.5002,1.4898,1.4738,1.4581,1.4533,1.4488,1.4488,1.4387,1.4282,1.4219,1.3969,1.378,1.3706,1.3573,1.351,1.3591,1.3462,1.3463,1.3591,1.351,1.3647,1.4019,1.4486,1.483,1.505,1.5801,1.6291,-0.0613,-0.0061,0.0435,0.2166,0.2662,0.3114,0.472,0.513,0.5429,0.6328,0.6726,0.7098,0.0,0.0,0.8686,0.9604,0.9927,1.0325,1.1164,1.1498,1.18,0.0,0.0,0.0,0.0,0.0,0.0,1.3075,0.0,1.4075,1.5026,1.6061,1.707,1.8049,1.9045,1.9569,1.9614,1.9726,1.9903,2.0076,2.0104,2.0205,2.0383,2.0402,2.0402,2.0406,2.0477,2.0488,2.0508,2.0566,2.0586,2.0586,2.0527,2.0519,2.0499,2.043,2.0408,2.0408,2.0319,2.03,2.0312,2.0312,2.0312,2.0312,2.0312,2.0312,2.0312,2.0312,2.0312,2.0312,2.0312,2.0312,2.01,1.9261,1.903,1.8761,1.7953,1.7741,1.7702,1.7702,1.7042,1.6458,1.6334,1.5594,1.5021,1.5021,1.4995,1.492,1.4728,1.4581,1.4499,1.4499,1.4499,1.4411,1.4227,1.4219,1.4123,1.3927,1.3739,1.3691,1.3899,1.3589,1.3575,1.3952,1.3759,1.4173,1.5178,1.5213,1.5529,1.608,1.6391,1.6917,-0.2096,-0.1014,0.0229,0.1129,0.2032,0.2893,0.3612,0.4359,0.4978,0.5204,0.5632,0.6051,0.0,0.0,0.0,0.89,0.9925,0.0,1.0963,1.1227,0.0,0.0,0.0,1.2186,1.2688,1.2991,0.0,0.0,1.4274,1.4452,1.4845,1.6203,1.724,1.7785,1.8681,1.9292,1.9601,1.9726,1.9824,1.9882,2.0037,2.0135,2.0185,2.0327,2.0404,2.0404,2.0411,2.043,2.0431,2.0505,2.0527,2.0527,2.0566,2.0563,2.0562,2.0506,2.0466,2.0469,2.0408,2.0347,2.0312,2.0312,2.0312,2.0312,2.0312,2.0312,2.0312,2.0312,2.0312,2.0312,2.0312,2.0312,2.0235,2.0023,1.9473,1.8934,1.8722,1.8164,1.7702,1.7702,1.7042,1.6497,1.6458,1.5722,1.5146,1.5146,1.5056,1.4962,1.4859,1.4737,1.4645,1.4645,1.4567,1.4476,1.4441,1.4282,1.4175,1.4136,1.3941,1.3856,1.3899,1.3813,1.4091,1.4775,1.473,1.5152,1.6065,1.6617,1.6974,1.7135,1.7966,1.8446,-0.2756,-0.1947,-0.0903,0.0234,0.1603,0.2725,0.2868,0.3594,0.4244,0.4233,0.4679,0.0,0.0,0.0,0.0,0.0,0.0,0.0,1.0602,1.0808,1.0996,0.0,1.1468,0.0,1.2718,1.3031,1.3557,0.0,1.4651,1.5069,1.5782,1.6616,1.7469,1.8246,1.8731,1.915,1.9471,1.9545,1.9619,1.9701,1.9839,1.9936,2.0065,2.0161,2.0271,2.0369,0.0,2.0352,2.0349,2.0422,2.0467,2.0508,2.0547,2.0566,2.0605,2.0552,2.0536,2.0549,2.0504,2.0444,2.0379,2.0361,2.035,2.035,2.035,2.0331,2.0312,2.0312,2.0312,2.0312,2.0312,2.0312,2.0312,2.0312,1.9927,1.9561,1.9561,1.9196,1.8734,1.835,1.7907,1.7491,1.708,1.6619,1.6292,1.6292,1.6233,1.6173,1.6132,1.5337,1.4766,1.4717,1.4635,1.4549,1.4517,1.4399,1.432,1.432,1.4149,1.4226,1.4662,1.451,1.4884,1.5865,1.5806,1.622,1.714,1.7557,1.7889,1.8163,1.8835,1.9067,-0.2929,-0.2696,-0.2286,-0.0568,0.1204,0.2485,0.2415,0.2929,0.3388,0.3417,0.0,0.4223,0.4247,0.0,0.6044,0.7191,0.0,0.8936,1.0095,1.0347,1.0592,1.1113,1.1322,1.1823,1.2766,1.3198,1.3698,1.4424,1.4952,1.5761,1.6915,1.7112,1.771,1.8861,1.8966,1.9067,1.9259,1.9289,1.938,1.9555,1.9601,1.9713,1.9953,1.9974,2.0106,2.0249,2.0285,0.0,2.0312,2.0369,2.041,2.0464,2.0486,2.0527,2.0586,2.0586,2.0586,2.0605,2.0609,2.0565,2.0492,2.0437,2.041,2.0407,2.0407,2.0369,2.0304,2.03,2.0312,2.0312,2.0312,2.0312,2.0312,2.0312,2.0312,2.0312,2.0312,2.0312,2.0073,1.9323,1.9081,1.8761,1.801,1.7779,1.7702,1.7702,1.7702,1.7702,1.7702,1.6265,1.5178,1.4944,1.497,1.4935,1.4717,1.4774,1.4818,1.4818,1.4659,1.4956,1.5821,1.5518,1.5883,1.7037,1.6878,1.7293,1.8262,1.8262,1.8538,1.9035,1.923,1.9214,-0.2981,-0.269,-0.239,-0.107,0.0401,0.1683,0.2277,0.2615,0.0,0.0,0.0,0.3467,0.3897,0.4833,0.0,0.6629,0.0,0.0,0.0,0.0,1.0445,0.0,0.0,0.0,0.0,0.0,0.0,0.0,0.0,1.6164,1.6354,1.7187,1.7877,1.833,1.877,1.9036,1.9052,1.923,1.932,1.935,1.9527,1.9623,1.9669,1.9901,2.0022,2.0069,2.0233,0.0,2.0312,2.0312,2.0311,2.0347,2.0402,2.0469,2.0527,2.0527,2.0547,2.0605,2.0604,2.0583,2.0563,2.0501,2.0447,2.04,2.04,2.04,2.0376,2.0318,2.0312,2.0312,2.0312,2.0312,2.0312,2.0312,2.0312,2.0312,2.0312,2.0312,2.0254,2.0092,1.9485,1.8953,1.8799,1.8184,1.7702,1.7702,1.7702,1.7702,1.7702,1.7378,1.6859,1.6103,1.6477,1.6478,1.5722,1.6177,1.6487,1.6487,1.6442,1.6515,1.6688,1.6616,1.7,1.7862,1.7866,1.8251,1.9087,1.9087,1.9146,1.9243,1.9274,1.9274,-0.3019,-0.269,-0.2456,-0.1373,-0.0,0.1309,0.2104,0.0,0.0,0.0,0.0,0.3195,0.3538,0.0,0.0,0.0,0.0,0.0,0.0,0.0,0.0,0.0,0.0,0.0,0.0,0.0,0.0,0.0,0.0,1.6439,1.6755,1.7552,1.8078,1.8187,1.8715,1.9002,1.9002,1.9198,1.9305,1.9305,1.9413,1.9499,1.9614,1.9821,1.9924,2.0012,2.0205,0.0,2.0312,2.0312,2.0312,2.03,2.0334,2.039,2.0457,2.0483,2.0527,2.0547,2.0586,2.0605,2.0586,2.0566,2.0523,2.051,2.051,2.049,2.0445,2.0409,2.0377,2.035,2.035,2.0331,2.0312,2.0312,2.0312,2.0312,2.0312,2.0312,2.0312,2.0312,1.9965,1.9677,1.9677,1.9331,1.9042,1.9042,1.9042,1.9042,1.9042,1.9024,1.8477,1.7121,1.7151,1.7071,1.6608,1.6774,1.6908,1.6908,1.6908,1.7092,1.7513,1.7513,1.7913,1.8702,1.872,1.8904,1.9305,1.9305,1.9305,1.9305,1.9305,1.9305,-0.2978,-0.269,-0.2526,-0.1778,-0.0434,0.0973,0.1969,0.2404,0.0,0.0,0.2826,0.3072,0.322,0.0,0.0,0.0,0.0,0.0,0.0,0.0,0.0,0.0,0.0,0.0,0.0,0.0,0.0,0.0,0.0,0.0,1.7175,1.7698,1.8001,1.8001,1.8547,1.8825,1.8825,1.9049,1.918,1.9246,1.9246,1.9335,1.9541,1.9726,1.9858,1.9973,2.0197,0.0,0.0,2.0312,2.0312,2.0312,2.0312,2.0331,2.0388,2.0435,2.0483,2.0508,2.0566,2.0586,2.0605,2.0605,2.0605,2.0605,2.0605,2.0566,2.0527,2.0508,2.0467,2.041,2.039,2.0352,2.0325,2.0319,2.0312,2.0312,2.0312,2.0312,2.0312,2.0312,2.0312,2.0312,2.0312,2.0312,2.0312,2.0312,2.0312,2.0312,2.0312,2.0312,1.9769,1.8335,1.8004,1.7771,1.7498,1.7485,1.7445,1.7422,1.7403,1.7697,1.8335,1.8353,1.8647,1.9305,1.9305,1.9305,1.9305,1.9305,1.9305,1.9305,1.9305,1.9305,-0.2948,-0.269,-0.2663,-0.2596,-0.1238,0.0454,0.1883,0.0,0.0,0.2228,0.2502,0.2821,0.3081,0.3577,0.4123,0.0,0.0,0.6768,0.0,0.0,0.0,0.0,0.0,0.0,0.0,0.0,0.0,0.0,0.0,0.0,1.6841,1.7199,1.7375,1.7375,1.7958,1.827,1.827,1.8528,1.8789,1.9018,1.9018,1.9134,1.9335,1.9657,1.9821,1.9843,2.0162,0.0,0.0,2.0312,2.0312,2.0312,2.0312,2.0312,2.0312,2.0311,2.0402,2.0508,2.0508,2.0547,2.0605,2.0605,2.0605,2.0605,2.0605,2.0605,2.0586,2.0527,2.0506,2.0472,2.0413,2.0394,2.0386,2.0395,2.035,2.0312,2.0312,2.0312,2.0312,2.0312,2.0312,2.0312,2.0312,2.0312,2.0312,2.0312,2.0312,2.0312,2.0312,2.0312,2.0246,2.0065,1.9877,1.9381,1.8456,1.8977,1.9277,1.9084,1.9069,1.9106,1.9179,1.9179,1.9216,1.9305,1.9305,1.9305,1.9305,1.9305,1.9305,1.9305,1.9305,1.9305,-0.2944,-0.2683,-0.269,-0.2696,-0.16,-0.0186,0.1114,0.0,0.2114,0.2185,0.2459,0.2789,0.3046,0.3408,0.3766,0.4125,0.462,0.5312,0.0,0.0,0.0,0.0,0.0,0.0,0.0,0.0,0.0,0.0,0.0,0.0,1.6191,1.6901,1.7296,1.7296,1.7893,1.8187,1.8187,1.8469,1.8642,1.8752,1.8931,1.9035,1.9134,1.9523,1.9713,1.9802,2.0022,0.0,0.0,2.0312,2.0312,2.0312,2.0312,2.0312,2.0312,2.0312,2.0366,2.0452,2.0482,2.0547,2.0605,2.0605,2.0605,2.0605,2.0605,2.0605,2.0586,2.0566,2.0563,2.0554,2.0534,2.0495,2.0443,2.0405,2.0352,2.0308,2.0308,2.0312,2.0312,2.0312,2.0312,2.0312,2.0312,2.0312,2.0312,2.0312,2.0312,2.0312,2.0312,2.0312,2.0312,2.0312,2.0115,1.9831,1.9447,1.959,1.9656,1.9499,1.9485,1.9442,1.9305,1.9305,1.9305,1.9305,1.9305,1.9305,1.9305,1.9305,1.9305,1.9308,1.9803,2.0023,-0.2837,-0.2678,-0.2683,-0.2693,-0.1863,-0.0693,0.0,0.0,0.2019,0.2079,0.2415,0.2762,0.2939,0.3266,0.3569,0.3751,0.3971,0.4462,0.5492,0.0,0.0,0.0,0.0,0.0,0.0,0.0,0.0,0.0,0.0,0.0,0.0,1.5959,1.6597,1.6994,1.7516,1.7832,1.7936,1.8111,1.8313,1.8489,1.8752,1.8931,1.9001,1.9413,1.9643,1.975,1.9914,0.0,0.0,2.0277,2.0312,2.0312,2.0312,2.0312,2.0312,2.0312,2.0331,2.0376,2.045,2.0505,2.0566,2.0586,2.0605,2.0605,2.0605,2.0605,2.0605,2.0605,2.0605,2.0605,2.0605,2.0566,2.0526,2.046,2.0416,2.0366,2.0357,2.035,2.0331,2.0312,2.0312,2.0312,2.0312,2.0312,2.0312,2.0312,2.0312,2.0312,2.0312,2.0312,2.0312,2.0312,2.0169,2.0069,2.0012,1.9903,1.979,1.9669,1.9623,1.9541,1.938,1.9335,1.9305,1.9305,1.9305,1.9305,1.9305,1.9305,1.9418,1.9675,2.0244,2.0759,-0.2607,-0.2596,-0.2683,-0.2693,-0.1991,-0.0904,0.0,0.1355,0.1803,0.1814,0.2285,0.2697,0.2697,0.3132,0.3506,0.3506,0.4119,0.4696,0.4978,0.0,0.0,0.0,0.0,0.0,0.0,0.0,0.0,0.0,0.0,0.0,0.0,1.4151,1.495,1.6282,1.6633,1.6977,1.732,1.732,1.7608,1.8208,1.8469,1.8752,1.9001,1.9413,1.9596,0.0,0.0,0.0,0.0,2.0225,2.0312,2.0312,2.0312,2.0312,2.0312,2.0312,2.0312,2.0315,2.0391,2.0445,2.0508,2.0586,2.0605,2.0605,2.0605,2.0605,2.0605,2.0605,2.0605,2.0605,2.0605,2.0605,2.0605,2.0605,2.0547,2.0497,2.0495,2.0446,2.0389,2.0312,2.0312,2.0312,2.0312,2.0312,2.0312,2.0312,2.0312,2.0312,2.0312,2.0312,2.0312,2.0312,2.0304,2.0225,2.0022,2.0012,1.9953,1.9821,1.9669,1.9614,1.9601,1.9413,1.9305,1.9305,1.9305,1.9305,1.9305,1.9305,1.9711,2.0484,2.0503,2.1383,-0.236,-0.2311,-0.2414,-0.2639,-0.1991,-0.0908,0.0575,0.1356,0.1806,0.1794,0.211,0.2437,0.2654,0.2982,0.3371,0.3772,0.4048,0.4352,0.0,0.0,0.0,0.0,0.0,0.0,0.0,0.0,0.0,0.0,0.0,0.0,0.0,1.4358,1.4949,1.5588,1.593,1.65,1.728,1.7296,1.7509,1.7927,1.8391,1.8642,1.8752,1.9196,1.9471,0.0,0.0,0.0,0.0,2.0225,2.0312,2.0312,2.0312,2.0312,2.0312,2.0312,2.0312,2.03,2.032,2.0418,2.0508,2.0527,2.0566,2.0605,2.0605,2.0605,2.0605,2.0605,2.0605,2.0605,2.0605,2.0605,2.0605,2.0605,2.0547,2.0507,2.0504,2.0449,2.039,2.0371,2.0321,2.0312,2.0312,2.0312,2.0312,2.0312,2.0312,2.0312,2.0312,2.0312,2.0312,2.0312,2.0312,2.0277,2.0205,2.0205,2.0134,1.9953,1.9802,1.9695,1.9596,1.9413,1.9305,1.9305,1.9305,1.9305,1.9289,1.9858,2.0849,2.2208,2.2208,2.2795,0.0,-0.2194,-0.2301,-0.2482,-0.1734,-0.0628,0.0628,0.1378,0.1794,0.1806,0.2022,0.2302,0.2632,0.2918,0.3257,0.3729,0.3918,0.4214,0.0,0.0,0.0,0.0,0.0,0.0,0.0,0.0,0.0,0.0,0.0,0.0,0.0,1.3436,1.3986,1.4715,1.5423,1.6225,1.7085,1.7101,1.7344,1.7811,1.8351,1.8585,1.8604,1.9099,1.9365,0.0,0.0,0.0,0.0,2.0188,2.0312,2.0312,2.0312,2.0312,2.0312,2.0312,2.0312,2.0312,2.0312,2.0377,2.0472,2.0486,2.0547,2.0605,2.0605,2.0605,2.0605,2.0605,2.0605,2.0605,2.0605,2.0605,2.0605,2.0605,2.0566,2.0547,2.0547,2.05,2.0477,2.0438,2.0395,2.0369,2.0335,2.035,2.035,2.035,2.0331,2.0312,2.0312,2.0312,2.0312,2.0312,2.0312,2.0312,2.0312,2.0312,2.0241,2.0115,1.9953,1.9832,1.9682,1.9509,1.9365,1.9305,1.9601,1.9748,1.9767,2.0904,2.197,2.3015,2.3309,2.3731,0.0,-0.2181,-0.2324,-0.2136,-0.1235,-0.0149,0.0747,0.1396,0.0,0.1806,0.2,0.2285,0.2652,0.2907,0.3193,0.3516,0.3821,0.0,0.0,0.0,0.0,0.0,0.0,0.0,0.0,0.0,0.0,0.0,0.0,0.0,0.0,1.185,1.2448,1.369,1.4989,1.6016,1.6789,1.6789,1.7142,1.7811,1.8351,1.8585,1.8604,1.9099,1.9305,0.0,0.0,0.0,0.0,2.0153,2.0285,2.0312,2.0312,2.0312,2.0312,2.0312,2.0312,2.0312,2.0312,2.035,2.0417,2.0472,2.0547,2.0605,2.0605,2.0605,2.0605,2.0605,2.0605,2.0605,2.0605,2.0605,2.0605,2.0605,2.0605,2.0605,2.0605,2.0605,2.0586,2.0527,2.0508,2.0476,2.0412,2.04,2.0392,2.0392,2.0354,2.0308,2.0312,2.0312,2.0312,2.0312,2.0312,2.0312,2.0312,2.0312,2.0312,2.0312,2.0115,1.9934,1.9813,1.9725,1.9606,1.9412,2.0189,2.0613,2.0668,2.2227,2.3033,2.3107,2.3859,2.419,-0.1835,0.0,-0.1829,-0.1328,-0.0652,0.0206,0.0,0.1708,0.1794,0.1806,0.0,0.2128,0.2876,0.2883,0.3107,0.4047,0.4255,0.0,0.0,0.0,0.0,0.0,0.0,0.0,0.0,0.0,0.0,0.0,0.0,0.0,0.0,1.2284,1.2711,1.3041,1.384,1.5067,1.6773,1.6789,1.7142,1.7811,1.8351,1.8585,1.8604,1.9099,1.9305,0.0,0.0,0.0,1.9802,2.0002,2.0161,2.0312,2.0312,2.0312,2.0312,2.0312,2.0312,2.0312,2.0312,2.035,2.0417,2.0531,2.0586,2.0605,2.0605,2.0605,2.0605,2.0605,2.0605,2.0605,2.0605,2.0605,2.0605,2.0605,2.0605,2.0605,2.0605,2.0605,2.0605,2.0586,2.0547,2.0487,2.0474,2.0425,2.0405,2.0405,2.0386,2.0388,2.0385,2.0331,2.0312,2.0312,2.0312,2.0312,2.0312,2.0312,2.0312,2.0312,2.0115,1.9993,1.9944,2.0314,2.0499,2.0455,2.1134,2.1804,2.241,2.2795,2.3327,2.3914,2.4116,2.419,-0.1798,-0.1798,-0.1594,-0.0713,-0.0044,0.0646,0.1594,0.0,0.0,0.0,0.0,0.2182,0.2811,0.0,0.0,0.0,0.0,0.0,0.0,0.0,0.0,0.0,0.0,0.0,0.0,0.0,0.0,0.0,0.0,0.0,1.1549,1.2067,1.2463,1.2786,1.3256,1.4278,1.5815,1.6184,1.666,1.7304,1.8176,1.8585,1.8604,1.9099,1.9305,0.0,0.0,0.0,1.9802,1.9934,2.0115,2.0312,2.0312,2.0312,2.0312,2.0312,2.0312,2.0312,2.0312,2.0352,2.0418,2.0558,2.0605,2.0605,2.0605,2.0605,2.0605,2.0605,2.0605,2.0605,2.0605,2.0605,2.0605,2.0605,2.0605,2.0605,2.0605,2.0605,2.0605,2.0605,2.0566,2.0547,2.0547,2.052,2.0484,2.0484,2.0465,2.0453,2.0441,2.0363,2.0301,2.0292,2.0312,2.0312,2.0312,2.0312,2.0312,2.0312,2.0542,2.0661,2.0604,2.1167,2.1639,2.1943,2.2218,2.2793,2.3693,2.3603,2.3768,2.419,2.419,2.419,-0.1547,-0.1455,-0.1161,-0.0222,0.0512,0.1163,0.1683,0.0,0.0,0.0,0.0,0.0,0.0,0.0,0.0,0.0,0.0,0.0,0.0,0.0,0.0,0.0,0.0,0.0,0.0,0.0,0.0,0.0,0.0,0.0,1.1287,1.1615,1.2059,1.2636,1.2901,1.349,1.4367,1.5259,1.5983,1.6608,1.7848,1.8446,1.8483,1.9043,1.9305,1.9305,0.0,0.0,1.9786,1.9903,2.0088,2.0269,2.0285,2.0312,2.0312,2.0312,2.0312,2.0312,2.0312,2.0354,2.0445,2.0561,2.0605,2.0605,2.0605,2.0605,2.0605,2.0605,2.0605,2.0605,2.0605,2.0605,2.0605,2.0605,2.0605,2.0605,2.0605,2.0605,2.0605,2.0605,2.0605,2.0605,2.0605,2.0605,2.0605,2.0605,2.0547,2.0527,2.0527,2.0511,2.054,2.052,2.0619,2.0696,2.0677,2.0677,2.0677,2.0677,2.1196,2.1549,2.1672,2.2198,2.2802,2.3515,2.3322,2.3655,2.4561,2.4339,2.4247,2.4247,2.4209,2.4263,-0.0423,0.0089,0.0398,0.0089,0.0847,0.1683,0.1775,0.0,0.0,0.0,0.0,0.0,0.0,0.0,0.0,0.0,0.0,0.0,0.0,0.0,0.0,0.0,0.0,0.0,0.0,0.0,0.0,0.0,0.0,0.0,1.1287,1.1615,1.185,1.1939,1.2198,1.2535,1.2911,1.4442,1.5491,1.6036,1.7134,1.7718,1.7871,1.8851,1.9305,1.9305,0.0,1.9452,1.9649,1.9786,1.9912,2.0069,2.0233,2.0312,2.0312,2.0312,2.0312,2.0312,2.0369,2.0431,2.0489,2.0573,2.0605,2.0605,2.0605,2.0605,2.0605,2.0605,2.0605,2.0605,2.0605,2.0605,2.0605,2.0605,2.0605,2.0605,2.0605,2.0605,2.0605,2.0605,2.0605,2.0605,2.0605,2.0605,2.0605,2.0605,2.0586,2.0586,2.0586,2.1151,2.1545,2.1482,2.2081,2.2483,2.2408,2.2408,2.2408,2.2408,2.1831,2.2077,2.3359,2.336,2.3705,2.4553,2.4356,2.4431,2.476,2.4543,2.4444,2.4444,2.4266,2.4557,0.0714,0.1183,0.138,0.1314,0.1847,0.2413,0.2493,0.0,0.0,0.0,0.0,0.0,0.0,0.0,0.0,0.0,0.0,0.0,0.0,0.0,0.0,0.0,0.0,0.0,0.0,0.0,0.0,0.0,0.0,0.0,1.1287,1.1615,1.1869,1.2003,1.2291,1.2533,1.2815,1.3792,1.462,1.5332,1.68,1.7574,1.774,1.8812,1.9305,1.9305,0.0,1.9467,1.9701,1.9755,1.9941,2.0169,2.0249,2.0312,2.0312,2.0312,2.0331,2.0369,2.0427,2.0465,2.0513,2.0572,2.0605,2.0605,2.0605,2.0605,2.0605,2.0605,2.0605,2.0605,2.0605,2.0605,2.0605,2.0605,2.0562,2.0554,2.0554,2.0545,2.0547,2.0547,2.0586,2.0605,2.0605,2.0605,2.0605,2.0605,2.0996,2.1309,2.1309,2.1992,2.2486,2.2404,2.2697,2.287,2.2812,2.2793,2.3004,2.3475,2.3129,2.3372,2.4419,2.4353,2.4505,2.4898,2.4741,2.4741,2.4917,2.4741,2.4607,2.4513,2.4837,2.5208,0.1493,0.1883,0.2044,0.2284,0.0,0.2808,0.3051,0.3104,0.0,0.0,0.0,0.0,0.0,0.0,0.0,0.0,0.0,0.0,0.0,0.0,0.0,0.0,0.0,0.0,0.0,0.0,0.0,0.0,0.0,0.0,1.1371,1.171,1.2024,1.2291,1.2553,1.2815,1.3069,1.3427,1.3929,1.4619,1.6232,1.7086,1.7261,1.8462,1.9044,1.9088,1.9291,1.9532,1.979,1.9836,2.0001,2.0263,2.0296,2.0312,2.0312,2.0325,2.0369,2.0427,2.0485,2.0506,2.054,2.0578,2.0605,2.0605,2.0605,2.0605,2.0605,2.0605,2.0582,2.0573,2.0605,2.0582,2.0588,2.0588,2.0526,2.0487,2.0481,2.0493,2.0497,2.0508,2.0547,2.0605,2.0605,2.0762,2.0898,2.0898,2.1641,2.2207,2.2187,2.2908,2.3378,2.3285,2.3419,2.3486,2.3389,2.3389,2.3658,2.4341,2.4379,2.4601,2.505,2.5022,2.5022,2.5077,2.4917,2.4917,2.5077,2.4917,2.4771,2.4639,2.5417,2.5867,0.1536,0.2155,0.2486,0.2274,0.2236,0.0,0.298,0.3104,0.0,0.3921,0.0,0.0,0.0,0.0,0.0,0.0,0.0,0.0,0.0,0.0,0.0,0.0,0.0,0.0,0.0,0.0,0.0,0.0,0.0,0.0,1.1657,1.1993,1.2291,1.2572,1.2815,1.307,1.3278,1.3491,1.3726,1.3973,1.5038,1.5651,1.59,1.7458,1.8287,1.851,1.9247,1.9669,1.9802,1.9924,2.004,2.0135,2.0263,2.035,2.0392,2.0395,2.0435,2.0485,2.0504,2.0536,2.0585,2.0605,2.0605,2.0605,2.0605,2.0605,2.0605,2.0605,2.0561,2.0527,2.0578,2.0558,2.0511,2.0511,2.046,2.0405,2.0407,2.045,2.0507,2.0503,2.0547,2.0605,2.0605,2.1269,2.1816,2.1816,2.2559,2.3086,2.3027,2.3779,2.4267,2.4141,2.4826,2.5255,2.513,2.5111,2.5149,2.5207,2.5207,2.5226,2.5274,2.5099,2.5088,2.5274,2.5088,2.5077,2.5274,2.5077,2.4986,2.4993,2.5655,2.6378,0.197,0.2497,0.2829,0.2779,0.322,0.0,0.0,0.4155,0.4472,0.5097,0.0,0.0,0.0,0.0,0.0,0.0,0.0,0.0,0.0,0.0,0.0,0.0,0.0,0.0,0.0,0.0,0.0,0.0,0.0,0.0,0.0,1.238,1.2572,1.2834,1.2942,1.3158,1.3491,1.3693,1.3899,1.4096,1.4981,1.5514,1.576,1.7496,1.8328,1.846,1.9351,1.979,1.9933,2.002,2.0136,2.0227,2.0321,2.0392,2.0454,2.045,2.0502,2.0561,2.0561,2.0572,2.0605,2.0605,2.0605,2.0605,2.0605,2.0605,2.0605,2.0605,2.057,2.0561,2.0535,2.0487,2.0565,2.1116,2.0781,2.0495,2.1031,2.0746,2.0378,2.0371,2.0458,2.0703,2.125,2.1641,2.207,2.2578,2.3398,2.3945,2.3906,2.4673,2.5158,2.5022,2.5232,2.537,2.5303,2.5303,2.5303,2.5303,2.5303,2.5303,2.5303,2.5224,2.5224,2.5303,2.5224,2.5224,2.5303,2.5761,2.5926,2.5837,2.7143,2.7909,0.2332,0.277,0.3144,0.3369,0.0,0.0,0.5029,0.5124,0.5346,0.6125,0.0,0.0,0.0,0.0,0.0,0.0,0.0,0.0,0.0,0.0,0.0,0.0,0.0,0.0,0.0,0.0,0.0,0.0,0.0,0.0,0.0,1.2741,1.2855,1.3192,1.3192,1.3378,1.3798,1.3927,1.4118,1.4362,1.491,1.5246,1.5427,1.6934,1.7805,1.8208,1.9106,1.9715,2.0097,2.0136,2.0239,2.0373,2.0445,2.0489,2.0503,2.0503,2.052,2.0541,2.0566,2.0566,2.0566,2.0586,2.0605,2.0605,2.0605,2.0605,2.0605,2.0605,2.0572,2.054,2.0482,2.0636,2.0952,2.1532,2.1372,2.1254,2.1842,2.1523,2.1113,2.1121,2.1215,2.1481,2.2109,2.2461,2.2852,2.3418,2.4258,2.4805,2.4805,2.5339,2.5648,2.5505,2.5374,2.5303,2.5303,2.5303,2.5303,2.5303,2.5303,2.5303,2.5303,2.5303,2.5303,2.5303,2.5303,2.5437,2.5707,2.6313,2.6664,2.684,2.8243,2.8887,0.2567,0.2955,0.3443,0.0,0.0,0.0,0.5972,0.5785,0.5737,0.6881,0.0,0.0,0.0,0.0,0.0,0.0,0.0,0.0,0.0,0.0,0.0,0.0,0.0,0.0,0.0,0.0,0.0,0.0,0.0,0.0,0.0,1.3013,1.3192,1.3601,1.36,1.3795,1.4188,1.4201,1.4374,1.4707,1.4707,1.4707,1.4726,1.5543,1.6515,1.7636,1.8439,1.936,2.0292,2.0312,2.0369,2.0518,2.0566,2.0552,2.0512,2.0504,2.0469,2.0402,2.0483,2.0508,2.0508,2.0586,2.0605,2.0605,2.0605,2.0605,2.0605,2.0605,2.0508,2.041,2.0406,2.105,2.169,2.1622,2.2226,2.2793,2.2812,2.2868,2.2896,2.2896,2.2945,2.303,2.31,2.3769,2.4336,2.4394,2.5156,2.5703,2.5703,2.571,2.5653,2.5515,2.539,2.5303,2.5303,2.5303,2.5303,2.5303,2.5303,2.5303,2.5303,2.5303,2.5303,2.5303,2.5303,2.5726,2.6621,2.6621,2.7063,2.7928,2.8736,2.9102,0.2559,0.3283,0.0,0.0,0.0,0.0,0.0,0.6802,0.0,0.0,0.0,0.0,0.0,0.0,0.0,0.0,0.0,0.0,0.0,0.0,0.0,0.0,0.0,0.0,0.0,0.0,0.0,0.0,0.0,0.0,0.0,1.3427,1.3555,1.3795,1.3902,1.4072,1.4349,1.4434,1.461,1.4832,1.4841,1.4841,1.4878,1.577,1.6381,1.6848,1.8351,1.9177,1.9511,2.0169,2.0464,2.051,2.0522,2.0496,2.0424,2.0422,2.0427,2.0405,2.0474,2.0497,2.0508,2.0586,2.0572,2.0529,2.0529,2.0495,2.047,2.047,2.0432,2.039,2.0347,2.144,2.2536,2.2457,2.262,2.2966,2.359,2.3244,2.2821,2.2821,2.288,2.3155,2.3838,2.4146,2.4531,2.5215,2.5527,2.5672,2.5641,2.5629,2.5593,2.5514,2.5466,2.5428,2.537,2.537,2.5341,2.5303,2.5303,2.5303,2.5303,2.5303,2.5591,2.6197,2.6217,2.664,2.7525,2.8082,2.8486,2.8756,2.9621,3.0006,0.3534,0.0,0.0,0.0,0.0,0.0,0.0,0.0,0.0,0.0,0.0,0.0,0.0,0.0,0.0,0.0,0.0,0.0,0.0,0.0,0.0,0.0,0.0,0.0,0.0,0.0,0.0,0.0,0.0,0.0,0.0,1.3803,1.3916,1.4167,1.4259,1.4412,1.4595,1.4678,1.4804,1.4979,1.4981,1.5003,1.5075,1.5582,1.6067,1.6574,1.8378,1.9111,1.9163,2.0104,2.0477,2.0457,2.0458,2.0424,2.0363,2.0357,2.0369,2.0369,2.0446,2.0454,2.0472,2.0547,2.0521,2.0504,2.0465,2.043,2.0394,2.0394,2.0374,2.0352,2.0304,2.1573,2.2861,2.2812,2.3312,2.3947,2.4466,2.4159,2.3793,2.3793,2.3822,2.4034,2.462,2.4754,2.4965,2.5531,2.5641,2.5655,2.5643,2.561,2.5585,2.5549,2.5495,2.5443,2.5404,2.5697,2.587,2.5832,2.614,2.6332,2.6332,2.6005,2.6236,2.7101,2.7121,2.7525,2.8371,2.8852,2.9275,2.9621,3.016,3.0398,0.4896,0.0,0.0,0.0,0.0,0.0,0.0,0.0,0.0,0.0,0.0,0.0,0.0,0.0,0.0,0.0,0.0,0.0,0.0,0.0,0.0,0.0,0.0,0.0,0.0,0.0,0.0,0.0,0.0,0.0,0.0,1.4161,1.4294,1.4622,1.4642,1.4718,1.4926,1.4934,1.4995,1.5117,1.5117,1.5187,1.5293,1.516,1.5656,1.667,1.8365,1.9087,1.9177,2.0119,2.045,2.0385,2.0397,2.035,2.0312,2.0312,2.0312,2.0312,2.0369,2.0392,2.0409,2.0469,2.0481,2.0465,2.0408,2.0389,2.0389,2.0389,2.0408,2.0408,2.0408,2.1658,2.2908,2.2908,2.4139,2.5303,2.5303,2.5303,2.5303,2.5303,2.5303,2.5322,2.539,2.5464,2.5493,2.5512,2.5564,2.5625,2.5684,2.5629,2.5608,2.5597,2.5561,2.5524,2.5524,2.6255,2.6717,2.6717,2.7467,2.7928,2.8005,2.7178,2.7121,2.7986,2.8005,2.8409,2.9217,2.9217,2.9621,3.0398,3.0398,3.0398,0.0,0.4575,0.0,0.0,0.0,0.0,0.0,0.0,0.0,0.0,0.0,0.0,0.0,0.0,0.0,0.0,0.0,0.0,0.0,0.0,0.0,0.0,0.0,0.0,0.0,0.0,0.0,0.0,0.0,0.0,1.4492,1.4478,1.4596,1.4831,1.4935,1.5009,1.5065,1.5162,1.5225,0.0,1.5268,1.5263,1.5293,1.5262,1.5724,1.6573,1.7693,1.8551,1.9237,2.007,2.0373,2.0332,2.0327,2.0312,2.0312,2.0312,2.0312,2.0312,2.0331,2.0321,2.0323,2.041,2.0392,2.035,2.0331,2.0331,2.0331,2.0331,2.0773,2.1235,2.1235,2.2524,2.3821,2.3821,2.4582,2.5303,2.5303,2.5303,2.5303,2.5303,2.5303,2.5322,2.539,2.5456,2.555,2.5646,2.5664,2.5664,2.5625,2.5658,2.5652,2.5599,2.6188,2.6561,2.6497,2.7236,2.7687,2.7621,2.7794,2.8179,2.8813,2.8063,2.8005,2.8832,2.8832,2.9256,3.0121,3.0121,3.0217,3.0398,3.0398,3.0398,0.0,0.0,0.0,0.0,0.0,0.0,0.0,0.0,0.0,0.0,0.0,0.0,0.0,0.0,0.0,0.0,0.0,0.0,0.0,0.0,0.0,0.0,0.0,0.0,0.0,0.0,0.0,0.0,0.0,1.4598,1.4831,1.4841,1.4915,1.5082,1.5168,1.5211,1.5211,1.5277,1.528,1.5194,1.5194,1.5162,1.511,1.5166,1.5474,1.6,1.7258,1.8076,1.8612,1.9841,2.0331,2.0312,2.0312,2.0312,2.0312,2.0312,2.0312,2.0312,2.0312,2.0299,2.0315,2.0346,2.0334,2.0312,2.0312,2.0312,2.0389,2.0773,2.1177,2.16,2.2004,2.3109,2.411,2.411,2.4716,2.5303,2.5303,2.5303,2.5303,2.5303,2.5303,2.5322,2.539,2.547,2.555,2.5682,2.5664,2.5634,2.5595,2.6019,2.6273,2.6188,2.6945,2.7451,2.7388,2.808,2.8514,2.8467,2.8871,2.9294,2.9717,2.9313,2.9294,2.9717,2.9717,2.9948,3.0398,3.0398,3.0398,3.0398,3.0398,3.0609,0.0,0.0,0.0,0.0,0.0,0.0,0.0,0.0,0.0,0.0,0.0,0.0,0.0,0.0,0.0,0.0,0.0,0.0,0.0,0.0,0.0,0.0,0.0,0.0,0.0,0.0,0.0,0.0,0.0,1.4986,1.5127,1.5125,1.5188,1.529,1.5291,1.5289,1.5277,1.526,1.5191,1.5065,1.5074,1.5009,1.4888,1.5,1.5117,1.5331,1.6843,1.7579,1.7876,1.9431,2.0142,2.0241,2.0241,2.0241,2.0241,2.0241,2.0241,2.0249,2.0285,2.0312,2.0312,2.0312,2.0312,2.0312,2.0312,2.0408,2.0658,2.1312,2.1716,2.21,2.2831,2.3667,2.4322,2.4322,2.4812,2.5303,2.5303,2.5303,2.5303,2.5303,2.5303,2.5313,2.5389,2.5446,2.5516,2.5658,2.5618,2.5571,2.5571,2.6393,2.6922,2.681,2.7693,2.8272,2.8206,2.8898,2.9313,2.9313,3.0006,3.0398,3.0398,3.0398,3.0398,3.0398,3.0398,3.0398,3.0398,3.0398,3.0398,3.0398,3.0552,3.1006,0.0,0.0,0.0,0.0,0.0,0.0,0.0,0.0,0.0,0.0,0.0,0.0,0.0,0.0,0.0,0.0,0.0,0.0,0.0,0.0,0.0,0.0,0.0,0.0,0.0,0.0,0.0,0.0,1.5052,1.5133,1.5262,1.5265,1.5287,1.5292,1.5298,1.5237,1.5137,1.5138,1.5053,1.4926,1.4934,1.4914,1.4905,1.4794,1.4867,1.5092,1.6189,1.6987,1.7628,1.8716,1.9515,2.0031,2.0031,2.0031,2.0031,2.0031,2.0031,2.0069,2.0241,2.0312,2.0312,2.0312,2.0312,2.0312,2.0312,2.0792,2.137,2.1466,2.2581,2.3783,2.3898,2.4524,2.5139,2.5139,2.5207,2.5303,2.5303,2.5303,2.5303,2.5303,2.5303,2.5312,2.5386,2.5409,2.5446,2.5526,2.5527,2.5502,2.5502,2.6289,2.6818,2.6805,2.8162,2.9044,2.9048,2.9771,3.0237,3.0237,3.034,3.0398,3.0398,3.0398,3.0398,3.0398,3.0398,3.0398,3.0398,3.0398,3.0398,3.0417,3.1179,3.1583,0.4802,0.6634,0.0,0.0,0.0,0.0,0.0,0.0,0.0,0.0,0.0,0.0,0.0,0.0,0.0,0.0,0.0,0.0,0.0,0.0,0.0,0.0,0.0,0.0,0.0,0.0,0.0,0.0,1.5202,1.5243,1.5293,1.5301,1.5272,1.5188,1.5196,1.512,1.4982,1.4878,1.4757,1.4624,1.4534,1.4574,1.4685,1.4697,1.4785,1.4998,1.5805,1.662,1.7463,1.8384,1.9211,1.989,1.989,1.989,1.9901,1.9964,1.9993,2.0031,2.0233,2.0312,2.0312,2.0312,2.06,2.0966,2.0966,2.1562,2.2331,2.2812,2.3514,2.4206,2.4659,2.5024,2.5303,2.5303,2.5303,2.5303,2.5303,2.5303,2.5303,2.5303,2.5322,2.537,2.5385,2.5432,2.5633,2.6141,2.6227,2.6392,2.6837,2.7653,2.8173,2.8096,2.9184,2.9906,2.9886,3.0206,3.0398,3.0398,3.0398,3.0398,3.0398,3.0398,3.0398,3.0398,3.0398,3.0398,3.0398,3.0398,3.0648,3.1141,3.1525,3.2199,0.5064,0.6664,0.81,0.0,0.0,0.0,0.0,0.0,0.0,0.0,0.0,0.0,0.0,0.0,0.0,0.0,0.0,0.0,0.0,0.0,0.0,0.0,0.0,0.0,0.0,0.0,0.0,0.0,1.5306,1.5296,1.5296,1.5265,1.5195,1.5077,1.502,1.4914,1.4773,1.4537,1.4371,1.4271,1.4183,1.4201,1.4362,1.4444,1.4548,1.4678,1.5345,1.6257,1.7305,1.7998,1.8855,1.975,1.975,1.975,1.9762,1.9858,1.9901,1.9922,2.0107,2.0208,2.0214,2.0214,2.0806,2.1504,2.1504,2.2254,2.3283,2.3918,2.4245,2.4543,2.5139,2.5303,2.5303,2.5303,2.5303,2.5303,2.5303,2.5303,2.5303,2.5303,2.5341,2.537,2.537,2.5601,2.5995,2.6657,2.6946,2.7292,2.7907,2.8728,2.9201,2.9113,2.9929,3.0448,3.0398,3.0398,3.0398,3.0398,3.0398,3.0398,3.0398,3.0398,3.0494,3.0737,3.0737,3.0609,3.0398,3.0609,3.1064,3.1718,3.2141,3.3006,0.4779,0.5844,0.0,0.0,0.0,0.0,0.0,0.0,0.0,0.0,0.0,0.0,0.0,0.0,0.0,0.0,0.0,0.0,0.0,0.0,0.0,0.0,0.0,0.0,0.0,0.0,0.0,0.0,1.531,1.5295,1.5295,1.519,1.5087,1.5007,1.4765,1.4563,1.4441,1.4095,1.3924,1.3941,1.3927,1.3927,1.3941,1.3941,1.3955,1.3993,1.4666,1.577,1.7118,1.7305,1.8249,1.9609,1.9609,1.9609,1.9609,1.9609,1.9623,1.9649,1.9774,1.9912,2.0022,2.0022,2.0688,2.1504,2.1504,2.2677,2.4033,2.4091,2.4639,2.5245,2.5284,2.5303,2.5303,2.5303,2.5303,2.5303,2.5303,2.5303,2.5303,2.5303,2.5303,2.5303,2.5303,2.5986,2.6563,2.6601,2.7313,2.7852,2.789,2.8602,2.9113,2.9102,2.989,3.0398,3.0398,3.0398,3.0398,3.0398,3.0398,3.0398,3.0398,3.0398,3.0794,3.1621,3.1641,3.1237,3.0398,3.1237,3.166,3.1737,3.3333,3.4122,0.4524,0.5618,0.0,0.0,0.0,0.0,0.0,0.0,0.0,0.0,0.0,0.0,0.0,0.0,0.0,0.0,0.0,0.0,0.0,0.0,0.0,0.0,0.0,0.0,0.0,0.0,0.0,0.0,0.0,1.5128,1.5046,1.4875,1.4794,1.4803,1.4452,1.4143,1.3888,1.378,1.3706,1.3706,1.3706,1.3783,1.3913,1.3913,1.3913,1.3927,1.4296,1.5337,1.6794,1.6971,1.7972,1.9413,1.9413,1.9413,1.9409,1.9555,1.9614,1.9623,1.975,1.989,1.9993,1.9993,2.0688,2.16,2.2158,2.3167,2.4206,2.4716,2.5082,2.5303,2.5303,2.5303,2.5303,2.5303,2.5303,2.5303,2.5303,2.5303,2.5303,2.5303,2.5755,2.614,2.614,2.6851,2.7601,2.8121,2.8467,2.8871,2.9429,2.9756,2.9929,2.9929,3.0217,3.0398,3.0398,3.0398,3.0398,3.0398,3.0398,3.0648,3.1218,3.1237,3.1621,3.2449,3.2468,3.2314,3.2006,3.2314,3.2756,3.3314,3.391,3.4507,0.4409,0.0,0.0,0.0,0.0,0.0,0.0,0.0,0.0,0.0,0.0,0.0,0.0,0.0,0.0,0.0,0.0,0.0,0.0,0.0,0.0,0.0,0.0,0.0,0.0,0.0,0.0,0.0,0.0,0.0,1.4813,1.4632,1.4478,1.4337,1.4059,1.3803,1.354,1.3524,1.3524,1.3524,1.3524,1.3603,1.3726,1.3726,1.3726,1.3741,1.3913,1.4963,1.6507,1.6704,1.7723,1.9198,1.9198,1.9227,1.932,1.9456,1.9499,1.9495,1.9612,1.9743,1.9869,1.9869,2.0724,2.1875,2.2459,2.3466,2.4504,2.505,2.5253,2.5303,2.5303,2.5303,2.5303,2.5303,2.5303,2.5303,2.5303,2.5534,2.5736,2.5736,2.6447,2.7044,2.7044,2.7736,2.8467,2.9006,2.9352,2.9756,3.0321,3.0398,3.0398,3.0398,3.0398,3.0398,3.0398,3.0398,3.0398,3.0398,3.0679,3.1102,3.1679,3.1968,3.2487,3.3314,3.3333,3.3487,3.3776,3.3487,3.3622,3.4199,3.4507,3.4949,0.0,0.0,0.0,0.0,0.0,0.0,0.0,0.0,0.0,0.0,0.0,0.0,0.0,0.0,0.0,0.0,0.0,0.0,0.0,0.0,0.0,0.0,0.0,0.0,0.0,0.0,0.0,0.0,1.4965,1.4804,1.4604,1.4467,1.4142,1.36,1.3584,1.3524,1.3396,1.3379,1.3379,1.3396,1.3379,1.3396,1.3396,1.3396,1.3396,1.3413,1.354,1.463,1.6303,1.6427,1.7489,1.8984,1.9019,1.9117,1.9305,1.9305,1.9305,1.9305,1.9305,1.9423,1.9614,1.9614,2.08,2.228,2.2299,2.3544,2.4972,2.4991,2.5152,2.5303,2.5303,2.5303,2.5303,2.5303,2.5303,2.5303,2.5322,2.6024,2.664,2.6601,2.7313,2.7928,2.7928,2.8602,2.914,2.914,2.9871,3.0398,3.0398,3.0398,3.0398,3.0398,3.0398,3.0398,3.0398,3.0398,3.0398,3.0436,3.1237,3.1718,3.1775,3.2526,3.3353,3.4218,3.4237,3.4641,3.5493,3.4641,3.4237,3.4257,3.5122,3.5493,0.5619,0.0,0.0,0.0,0.0,0.0,0.0,0.0,0.0,0.0,0.0,0.0,0.0,0.0,0.0,0.0,0.0,0.0,0.0,0.0,0.0,0.0,0.0,0.0,0.0,0.0,0.0,0.0,1.4631,1.4475,1.432,1.4139,1.3853,1.3462,1.3412,1.3395,1.3396,1.3033,1.3033,1.3396,1.3191,1.3208,1.3396,1.3396,1.3396,1.3413,1.354,1.4434,1.5828,1.6364,1.7539,1.9001,1.9166,1.9243,1.9305,1.9305,1.9305,1.9305,1.9305,1.9423,1.9614,1.9614,2.0407,2.1475,2.2098,2.3152,2.4255,2.4839,2.5152,2.5303,2.5303,2.5303,2.5303,2.5303,2.5303,2.5476,2.6101,2.6928,2.7351,2.6717,2.7775,2.8775,2.8775,2.9486,3.0044,3.0044,3.0256,3.0398,3.0398,3.0398,3.0398,3.0398,3.0398,3.0398,3.0398,3.0398,3.0679,3.1295,3.1564,3.2237,3.3449,3.3718,3.4257,3.5122,3.5141,3.5257,3.5493,3.5257,3.5141,3.5161,3.5391,3.5493,0.0,0.0,0.0,0.0,0.0,0.0,0.0,0.8428,0.0,0.0,0.0,0.0,0.0,0.0,0.0,0.0,0.0,0.0,0.0,0.0,0.0,0.0,0.0,0.0,0.0,1.4976,1.4822,1.4579,1.4407,1.4216,1.3969,1.3786,1.3557,1.3243,1.3209,1.314,1.3069,1.2871,1.2908,1.3226,1.3191,1.326,1.3396,1.3396,1.3396,1.3396,1.3494,1.4315,1.5654,1.615,1.7325,1.8843,1.8965,1.9132,1.9305,1.9305,1.9305,1.9305,1.9305,1.9365,1.9485,1.9485,2.0317,2.1428,2.1995,2.3137,2.4341,2.4853,2.5152,2.5303,2.5303,2.5303,2.5303,2.5303,2.5303,2.5534,2.6409,2.7274,2.7852,2.7678,2.8736,2.964,2.964,3.0063,3.0398,3.0398,3.0398,3.0398,3.0398,3.0398,3.0398,3.0398,3.0398,3.0398,3.0398,3.0737,3.116,3.1679,3.2352,3.3179,3.416,3.4545,3.4988,3.5474,3.5493,3.5493,3.5493,3.5493,3.5493,3.5493,3.5493,3.5493,0.7753,0.8106,0.0,0.0,0.0,0.0,0.9557,0.9211,0.0,0.0,0.0,0.0,0.0,0.0,0.0,0.0,0.0,0.0,0.0,0.0,0.0,0.0,0.0,0.0,1.4859,1.4728,1.4587,1.4366,1.4203,1.3969,1.3601,1.3429,1.326,1.3013,1.2942,1.2832,1.2649,1.2778,1.2906,1.3013,1.3208,1.3329,1.3363,1.3379,1.3396,1.3396,1.3396,1.4243,1.5615,1.5864,1.699,1.8566,1.8604,1.8913,1.9259,1.9289,1.9305,1.9305,1.9305,1.9305,1.9305,1.9305,2.0443,2.1818,2.1937,2.3274,2.4799,2.4962,2.5141,2.5264,2.5264,2.5274,2.5284,2.5274,2.5351,2.5668,2.6563,2.7428,2.8275,2.9083,2.9871,3.0398,3.0398,3.0398,3.0398,3.0398,3.0398,3.0398,3.0398,3.0398,3.0398,3.0398,3.0398,3.0398,3.0398,3.1198,3.1737,3.1833,3.3314,3.4237,3.4334,3.5084,3.5493,3.5493,3.5493,3.5493,3.5493,3.5493,3.5493,3.5493,3.5493,3.5493,0.8553,0.9137,0.9629,0.0,0.0,0.0,0.0,0.8432,0.0,0.0,0.0,0.0,0.0,0.0,0.0,0.0,0.0,0.0,0.0,0.0,0.0,0.0,0.0,0.0,1.4529,1.4456,1.4331,1.402,1.3824,1.365,1.3446,1.3208,1.3049,1.3013,1.2569,1.253,1.2924,1.2316,1.2356,1.2995,1.2834,1.2871,1.3085,1.3311,1.3396,1.3396,1.3396,1.4243,1.5595,1.5654,1.6721,1.833,1.8752,1.8984,1.9086,1.9227,1.9305,1.9305,1.9305,1.9305,1.9305,1.9305,2.0443,2.1803,2.1835,2.311,2.4604,2.4924,2.5022,2.5065,2.5065,2.5173,2.5264,2.5099,2.571,2.6582,2.7467,2.8294,2.9121,2.9987,3.0294,3.0398,3.0398,3.0398,3.0398,3.0398,3.0398,3.0398,3.0398,3.0398,3.0398,3.0398,3.0398,3.0398,3.0398,3.1198,3.1987,3.2622,3.3622,3.4507,3.5218,3.5411,3.5493,3.5493,3.5493,3.5493,3.5493,3.5493,3.5493,3.5493,3.5493,3.5493,0.9291,0.9612,0.9844,0.9375,0.0,0.0,0.0,0.0,0.0,0.0,0.0,0.0,0.0,0.0,0.0,0.0,0.0,0.0,0.0,0.0,0.0,0.0,0.0,0.0,1.3594,1.3594,1.3643,1.3731,1.3603,1.3412,1.3208,1.3067,1.2869,1.2607,1.2332,1.2251,1.2396,1.2128,1.2271,1.2797,1.2668,1.2815,1.3191,1.3191,1.326,1.3396,1.3396,1.4022,1.5088,1.5443,1.6319,1.7546,1.8292,1.8679,1.8825,1.9067,1.915,1.9166,1.9277,1.9305,1.9305,1.9305,2.0443,2.1801,2.1881,2.3188,2.4666,2.485,2.4904,2.4917,2.4986,2.5057,2.5152,2.5152,2.5896,2.6832,2.7717,2.8525,2.9352,3.0237,3.0398,3.0398,3.0398,3.0398,3.0398,3.0398,3.0398,3.0398,3.0398,3.0398,3.0398,3.0398,3.0398,3.0571,3.1006,3.1814,3.266,3.3506,3.4372,3.5045,3.5474,3.5493,3.5493,3.5493,3.5493,3.5493,3.5493,3.5493,3.5493,3.5493,3.5493,3.5493,0.0,0.0,0.0,0.0,0.0,0.9625,0.0,0.0,0.0,0.0,0.0,0.0,0.0,0.0,0.0,0.0,0.0,0.0,0.0,0.0,0.0,0.0,0.0,0.0,0.0,1.2306,1.2519,1.3231,1.3039,1.2941,1.2997,1.2906,1.2662,1.221,1.2149,1.2045,1.1891,1.2024,1.2271,1.2514,1.2572,1.2834,1.3243,1.3138,1.3173,1.3329,1.3379,1.3785,1.4473,1.5271,1.6018,1.6804,1.7811,1.833,1.8566,1.8878,1.9002,1.9018,1.9227,1.9305,1.9305,1.9305,2.0443,2.1892,2.2296,2.3475,2.4685,2.4731,2.4775,2.4832,2.4885,2.4962,2.5061,2.5317,2.6071,2.6956,2.7819,2.8668,2.9466,3.0139,3.0299,3.0343,3.0398,3.0398,3.0398,3.0398,3.0398,3.0398,3.0398,3.0398,3.0398,3.0398,3.0398,3.0756,3.1641,3.2449,3.3276,3.4141,3.5026,3.5493,3.5493,3.5493,3.5493,3.5493,3.5493,3.5493,3.5493,3.5493,3.5493,3.5493,3.5493,3.557,0.0,0.0,0.0,0.0,0.9504,0.0,0.0,0.0,0.0,0.0,0.0,0.0,0.0,0.0,0.0,0.0,0.0,0.0,0.0,0.0,0.0,0.0,0.0,0.0,0.0,1.0527,1.0703,1.2088,1.1512,1.1662,1.2931,1.2549,1.2251,1.219,1.1961,1.194,1.2149,1.194,1.1982,1.2251,1.2494,1.263,1.2706,1.3139,1.3226,1.3067,1.3294,1.368,1.4231,1.5196,1.6018,1.6804,1.7811,1.8208,1.831,1.8807,1.9002,1.9018,1.9227,1.9305,1.9305,1.9305,2.0443,2.2078,2.3511,2.41,2.4303,2.4478,2.4654,2.476,2.4607,2.4776,2.5095,2.5555,2.6408,2.7343,2.8159,2.9167,2.987,2.9777,2.9908,3.0122,3.0355,3.0398,3.0398,3.0398,3.0398,3.0398,3.0398,3.0398,3.0398,3.0398,3.0398,3.0756,3.1641,3.2449,3.3276,3.4141,3.5026,3.5493,3.5493,3.5493,3.5493,3.5493,3.5493,3.5493,3.5493,3.5493,3.5493,3.5493,3.5493,3.5892,0.0,0.0,0.0,0.0,0.0,0.0,0.0,0.0,0.8689,0.0,0.0,0.0,0.0,0.0,0.0,0.0,0.0,0.0,0.0,0.0,0.0,0.0,0.0,0.0,0.0,0.0,0.0,0.0,1.0942,1.114,1.1901,1.2113,1.2143,1.1961,1.1869,1.1854,1.1976,1.1869,1.2024,1.2416,1.2235,1.2376,1.2815,1.2741,1.2722,1.2778,1.3051,1.3519,1.4175,1.5177,1.6018,1.6766,1.7637,1.7971,1.8035,1.8566,1.877,1.8825,1.918,1.9305,1.947,2.0443,2.1233,2.2115,2.3712,2.419,2.4209,2.4303,2.4393,2.4461,2.4495,2.4604,2.4919,2.5686,2.6559,2.7431,2.8225,2.9158,2.9796,2.9713,2.9861,3.0047,3.015,3.0182,3.0209,3.0386,3.0398,3.0398,3.0398,3.0398,3.0398,3.0398,3.0852,3.1487,3.2333,3.316,3.4026,3.4911,3.5295,3.5493,3.5493,3.5493,3.5493,3.5493,3.5493,3.5493,3.5493,3.5493,3.5738,3.6199,3.6199,3.6392,0.81,0.0,0.0,0.0,0.0,0.0,0.0,0.0,0.0,0.0,0.0,0.0,0.0,0.0,0.0,0.0,0.0,0.0,0.0,0.0,0.0,0.0,0.0,0.0,0.0,0.0,0.0,0.0,0.0,1.0367,1.115,1.1594,1.1779,1.1681,1.1747,1.1762,1.1659,1.1747,1.2003,1.2376,1.2066,1.2231,1.2776,1.2451,1.2431,1.261,1.2887,1.3427,1.4175,1.5177,1.6018,1.6783,1.7507,1.7811,1.7856,1.831,1.8528,1.866,1.9066,1.9389,1.9858,2.1343,2.195,2.2391,2.3768,2.419,2.419,2.419,2.4247,2.4303,2.4393,2.4611,2.5052,2.5959,2.6779,2.7566,2.839,2.912,2.9607,2.9514,2.9729,2.9924,2.9924,3.0013,3.0182,3.0367,3.0398,3.0398,3.0398,3.0398,3.0494,3.0737,3.1314,3.2122,3.316,3.3833,3.4564,3.5449,3.5493,3.5493,3.5493,3.5493,3.5493,3.5493,3.5493,3.5493,3.5493,3.5718,3.6142,3.6699,3.6699,3.6969,0.0,0.0,0.0,0.7564,0.0,0.0,0.0,0.0,0.8087,0.0,0.0,0.0,0.0,0.0,0.0,0.0,0.0,0.0,0.0,0.0,0.0,0.0,0.0,0.0,0.0,0.0,0.0,0.0,0.0,0.0,1.1085,1.0974,1.0988,1.1304,1.1637,1.1637,1.1318,1.1637,1.1805,1.1826,1.2066,1.219,1.2231,1.2475,1.2591,1.261,1.2887,1.3427,1.4175,1.5177,1.6018,1.6783,1.7507,1.7811,1.7816,1.8103,1.8371,1.8623,1.8914,1.9661,2.0594,2.151,2.2336,2.3125,2.3951,2.419,2.419,2.419,2.4339,2.4444,2.4266,2.4931,2.582,2.6438,2.7203,2.7993,2.8819,2.9206,2.933,2.9067,2.9397,2.9713,2.9713,3.0099,3.0398,3.0398,3.0398,3.0398,3.0398,3.0398,3.0717,3.1564,3.1679,3.2372,3.4007,3.418,3.4564,3.5449,3.5493,3.5493,3.5493,3.5493,3.5493,3.5493,3.5493,3.5493,3.5493,3.6276,3.668,3.6699,3.6699,3.7603,0.0,0.0,0.8093,0.7208,0.0,0.0,0.0,0.0,0.0,0.0,0.0,0.0,0.0,0.0,0.0,0.0,0.0,0.0,0.0,0.0,0.0,0.0,0.0,0.0,0.0,0.0,0.0,0.0,0.793,0.0,0.0,1.0127,1.0658,1.0967,1.1293,1.1512,1.1637,1.1747,1.1891,1.2066,1.1997,1.2024,1.2205,1.2107,1.2071,1.2092,1.2533,1.3443,1.4609,1.5302,1.6323,1.7456,1.771,1.7811,1.7833,1.8103,1.8371,1.866,1.9049,1.9776,2.0631,2.151,2.2336,2.3162,2.3951,2.419,2.419,2.419,2.4247,2.4413,2.4871,2.526,2.5833,2.7093,2.7603,2.8026,2.881,2.9067,2.9112,2.9017,2.927,2.9494,2.9494,2.9731,3.0037,3.0355,3.0254,3.0196,3.0386,3.091,3.1371,3.1679,3.2699,3.3583,3.4141,3.4737,3.5199,3.5474,3.5493,3.5493,3.5493,3.5493,3.5493,3.5493,3.5493,3.5776,3.6295,3.6396,3.702,3.8074,3.7852,3.8195,0.744,0.7613,0.0,0.7157,0.7202,0.0,0.6699,0.0,0.0,0.0,0.0,0.0,0.0,0.0,0.0,0.0,0.0,0.0,0.0,0.0,0.0,0.0,0.0,0.0,0.0,0.0,0.6617,0.7412,0.0,0.0,0.0,0.0,1.0317,1.0506,1.1133,1.1512,1.1615,1.1747,1.1891,1.206,1.1876,1.1876,1.2045,1.1891,1.1897,1.2107,1.2744,1.3796,1.5134,1.5728,1.6712,1.7811,1.7811,1.7811,1.7833,1.7992,1.8229,1.8563,1.934,2.0147,2.0986,2.1933,2.2776,2.3529,2.4043,2.419,2.419,2.419,2.441,2.474,2.5274,2.5825,2.6502,2.7548,2.8026,2.8374,2.8906,2.8994,2.8994,2.8994,2.9222,2.9412,2.9412,2.9513,2.9732,3.0099,3.0003,3.0083,3.0644,3.1207,3.1828,3.2526,3.3564,3.4334,3.4641,3.518,3.5446,3.5369,3.5446,3.5446,3.5369,3.5446,3.5493,3.5493,3.5691,3.6044,3.6562,3.6861,3.7565,3.8609,3.8591,3.8719]},{"header":{"parameterUnit":"m.s-1","parameterCategory":1,"la1":30.6,"la2":29.2853,"lo1":-89.7004,"lo2":-87.6739,"dy":0.0162,"dx":0.0183,"nx":112,"ny":82,"refTime":"2026-05-02T00:00:00:Z","depth":0,"parameterNumber":3,"parameterNumberName":"V-component_of_WINDS"},"data":[0.0,0.0,0.0,0.0,0.0,0.0,0.0,0.0,0.0,0.0,0.0,0.0,0.0,0.0,0.0,0.0,0.0,0.0,0.0,0.0,0.0,0.0,0.0,0.0,0.0,0.0,0.0,0.0,0.0,0.0,0.0,0.0,0.0,0.0,0.0,0.0,0.0,0.0,0.0,0.0,0.0,0.0,0.0,0.0,0.0,0.0,0.0,0.0,0.0,0.0,0.0,0.0,0.0,0.0,0.0,0.0,0.0,0.0,0.0,0.0,0.0,0.0,0.0,0.0,0.0,0.0,0.0,0.0,0.0,0.0,0.0,0.0,0.0,0.0,0.0,0.0,0.0,0.0,0.0,0.0,0.0,0.0,0.0,0.0,0.0,0.0,0.0,0.0,0.0,0.0,0.0,0.7895,0.8664,0.9149,0.9293,0.9303,0.9358,0.95,0.0,0.0,0.0,0.0,0.0,0.0,0.0,0.0,0.0,0.0,0.0,0.0,0.0,0.0,0.0,0.0,0.0,0.0,0.0,0.0,0.0,0.0,0.0,0.0,0.0,0.0,0.0,0.0,0.0,0.0,0.0,0.0,0.0,0.0,0.0,0.0,0.0,0.0,0.0,0.0,0.0,0.0,0.0,0.0,0.0,0.0,0.0,0.0,0.0,0.0,0.0,0.0,0.0,0.0,0.0,0.0,0.0,0.0,0.0,0.0,0.0,0.0,0.0,0.0,0.0,0.0,0.0,0.0,0.0,0.0,0.0,0.0,0.0,0.0,0.0,0.0,0.0,0.0,0.0,0.0,0.0,0.0,0.0,0.0,0.0,0.0,0.0,0.0,0.0,0.0,0.0,0.0,0.0,0.0,0.0,0.0,0.0,0.0,0.0,0.0,0.0,0.0,0.0,0.0,0.708,0.8726,0.9026,0.9149,0.9293,0.9303,0.9358,0.95,0.0,0.0,0.0,0.0,0.0,0.0,0.0,0.0,0.0,0.0,0.0,0.0,0.0,0.0,0.0,0.0,0.0,0.0,0.0,0.0,0.0,0.0,0.0,0.0,0.0,0.0,0.0,0.0,0.0,0.0,0.0,0.0,0.0,0.0,0.0,0.0,0.0,0.0,0.0,0.0,0.0,0.0,0.0,0.0,0.0,0.0,0.0,0.0,0.0,0.0,0.0,0.0,0.0,0.0,0.0,0.0,0.0,0.0,0.0,0.0,0.0,0.0,0.0,0.0,0.0,0.0,0.0,0.0,0.0,0.0,0.0,0.0,0.0,0.0,0.0,0.0,0.0,0.0,0.0,0.0,0.0,0.0,0.0,0.0,0.0,0.0,0.0,0.0,0.0,0.0,0.0,0.0,0.0,0.0,0.0,0.0,0.0,0.0,0.0,0.0,0.0,0.0,0.0,0.754,0.7961,0.879,0.8946,0.9022,0.9068,0.9078,0.9139,0.9284,0.7809,0.0,0.0,0.0,0.0,0.0,0.0,0.0,0.0,0.0,0.0,0.0,0.0,0.0,0.0,0.0,0.0,0.0,0.0,0.0,0.0,0.0,0.0,0.0,0.0,0.0,0.0,0.0,0.0,0.0,0.0,0.0,0.0,0.0,0.0,0.0,0.0,0.0,0.0,0.0,0.0,0.0,0.0,0.0,0.0,0.0,0.0,0.0,0.0,0.0,0.0,0.0,0.0,0.0,0.0,0.0,0.0,0.0,0.0,0.0,0.0,0.0,0.0,0.0,0.0,0.0,0.0,0.0,0.0,0.0,0.0,0.0,0.0,0.0,0.0,0.0,0.0,0.0,0.0,0.0,0.0,0.0,0.0,0.0,0.0,0.0,0.0,0.0,0.0,0.0,0.0,0.0,0.0,0.0,0.0,0.0,0.0,0.0,0.0,0.0,0.0,0.0,0.0,0.8379,0.8592,0.8693,0.8794,0.8858,0.8891,0.8891,0.8979,0.9129,0.7692,0.0,0.0,0.0,0.0,0.0,0.0,0.0,0.0,0.0,0.0,0.0,0.0,0.0,0.0,0.0,0.0,0.0,0.0,0.0,0.0,0.0,0.0,0.0,0.0,0.0,0.0,0.0,0.0,0.0,0.0,0.0,0.0,0.0,0.0,0.0,0.0,0.0,0.0,0.0,0.0,0.0,0.0,0.0,0.0,0.0,0.0,0.0,0.0,0.0,0.0,0.0,0.0,0.0,0.0,0.0,0.0,0.0,0.0,0.0,0.0,0.0,0.0,0.0,0.0,0.0,0.0,0.0,0.0,0.0,0.0,0.0,0.0,0.0,0.0,0.0,0.0,0.0,0.0,0.0,0.0,0.0,0.0,0.0,0.0,0.0,0.0,0.0,0.0,0.0,0.0,0.0,0.0,0.0,0.0,0.0,0.0,0.0,0.0,0.0,0.0,0.0,0.0,0.7784,0.8277,0.8669,0.8705,0.876,0.888,0.8891,0.9022,0.9274,0.7786,0.0,0.0,0.0,0.0,0.0,0.0,0.0,0.0,0.0,0.0,0.0,0.0,0.0,0.0,0.0,0.0,0.0,0.0,0.0,0.0,0.0,0.0,0.0,0.0,0.0,0.0,0.0,0.0,0.0,0.0,0.0,0.0,0.0,0.0,0.0,0.0,0.0,0.0,0.0,0.0,0.0,0.0,0.0,0.0,0.0,0.0,0.0,0.0,0.0,0.0,0.0,0.0,0.0,0.0,0.0,0.0,0.0,0.0,0.0,0.0,0.0,0.0,0.0,0.0,0.0,0.0,0.0,0.0,0.0,0.0,0.0,0.0,0.0,0.0,0.0,0.0,0.0,0.0,0.0,0.0,0.0,0.0,0.0,0.0,0.0,0.0,0.0,0.0,0.0,0.0,0.0,0.0,0.0,0.0,0.0,0.0,0.0,0.0,0.0,0.0,0.0,0.0,0.7828,0.8171,0.0,0.8538,0.8729,0.8771,0.8863,0.8946,0.9054,0.0,0.0,0.0,0.0,0.0,0.0,0.0,0.0,0.0,0.0,0.0,0.0,0.0,0.0,0.0,0.0,0.0,0.0,0.0,0.0,0.0,0.0,0.0,0.0,0.0,0.0,0.0,0.0,0.0,0.0,0.0,0.0,0.0,0.0,0.0,0.0,0.0,0.0,0.0,0.0,0.0,0.0,0.0,0.0,0.0,0.0,0.0,0.0,0.0,0.0,0.0,0.0,0.0,0.0,0.0,0.0,0.0,0.0,0.0,0.0,0.0,0.0,0.0,0.0,0.0,0.0,0.0,0.0,0.0,0.0,0.0,0.0,0.0,0.0,0.0,0.0,0.0,0.0,0.0,0.0,0.0,0.0,0.0,0.0,0.0,0.0,0.0,0.0,0.0,0.0,0.0,0.0,0.0,0.0,0.0,0.0,0.0,0.0,0.0,0.0,0.0,0.0,0.7431,0.7854,0.8049,0.0,0.8396,0.8632,0.8693,0.8829,0.8913,0.8968,0.0,0.0,0.0,0.0,0.0,0.0,0.0,0.0,0.0,0.0,0.0,0.0,0.0,0.0,0.0,0.0,0.0,0.0,0.0,0.0,0.0,0.0,0.0,0.0,0.0,0.0,0.0,0.0,0.0,0.0,0.0,0.0,0.0,0.0,0.0,0.0,0.0,0.0,0.0,0.0,0.0,0.0,0.0,0.0,0.0,0.0,0.0,0.0,0.0,0.0,0.0,0.0,0.0,0.0,0.0,0.0,0.0,0.0,0.0,0.0,0.0,0.0,0.0,0.0,0.0,0.0,0.0,0.0,0.0,0.0,0.0,0.0,0.0,0.0,0.0,0.0,0.0,0.0,0.0,0.0,0.0,0.0,0.0,0.0,0.0,0.0,0.0,0.0,0.0,0.0,0.0,0.0,0.0,0.0,0.0,0.0,0.0,0.0,0.0,0.0,0.0,0.0,0.7402,0.7768,0.7956,0.809,0.828,0.8479,0.8681,0.8818,0.8957,0.0,0.0,0.0,0.0,0.0,0.0,0.0,0.0,0.0,0.0,0.0,0.0,0.0,0.0,0.0,0.0,0.0,0.0,0.0,0.0,0.0,0.0,0.0,0.0,0.0,0.0,0.0,0.0,0.0,0.0,0.0,0.0,0.0,0.0,0.0,0.0,0.0,0.0,0.0,0.0,0.0,0.0,0.0,0.0,0.0,0.0,0.0,0.0,0.0,0.0,0.0,0.0,0.0,0.0,0.0,0.0,0.0,0.0,0.0,0.0,0.0,0.0,0.0,0.0,0.0,0.0,0.0,0.0,0.0,0.0,0.0,0.0,0.0,0.0,0.0,0.0,0.0,0.0,0.0,0.0,0.0,0.0,0.0,0.0,0.0,0.0,0.0,0.0,0.0,0.0,0.0,0.0,0.0,0.0,0.0,0.0,0.0,0.0,0.0,0.0,0.0,0.0,0.0,0.6756,0.7362,0.7695,0.7739,0.8008,0.8211,0.8264,0.8434,0.8624,0.8806,0.0,0.0,0.0,0.0,0.0,0.0,0.0,0.0,0.0,0.0,0.0,0.0,0.0,0.0,0.0,0.0,0.0,0.0,0.0,0.0,0.0,0.0,0.0,0.0,0.0,0.0,0.0,0.0,0.0,0.0,0.0,0.0,0.0,0.0,0.0,0.0,0.0,0.0,0.0,0.0,0.0,0.0,0.0,0.0,0.0,0.0,0.0,0.0,0.0,0.0,0.0,0.0,0.0,0.0,0.0,0.0,0.0,0.0,0.0,0.0,0.0,0.0,0.0,0.0,0.0,0.0,0.0,0.0,0.0,0.0,0.0,0.0,0.0,0.0,0.0,0.0,0.0,0.0,0.0,0.0,0.0,0.0,0.0,0.0,0.0,0.0,0.0,0.0,0.0,0.0,0.0,0.0,0.0,0.0,0.0,0.0,0.0,0.0,0.0,0.0,0.0,0.0,0.6461,0.7176,0.7605,0.7605,0.7896,0.8102,0.8102,0.828,0.8338,0.8183,0.0,0.0,0.0,0.0,0.0,0.0,0.0,0.0,0.0,0.0,0.0,0.0,0.0,0.0,0.0,0.0,0.0,0.0,0.0,0.0,0.0,0.0,0.0,0.0,0.0,0.0,0.0,0.0,0.0,0.0,0.0,0.0,0.0,0.0,0.0,0.0,0.0,0.0,0.0,0.0,0.0,0.0,0.0,0.0,0.0,0.0,0.0,0.0,0.0,0.0,0.0,0.0,0.0,0.0,0.0,0.0,0.0,0.0,0.0,0.0,0.0,0.0,0.0,0.0,0.0,0.0,0.0,0.0,0.0,0.0,0.0,0.0,0.0,0.0,0.0,0.0,0.0,0.0,0.0,0.0,0.0,0.0,0.0,0.0,0.0,0.0,0.0,0.0,0.0,0.0,0.0,0.0,0.0,0.0,0.0,0.0,0.0,0.0,0.0,0.0,0.0,0.0,0.6394,0.7112,0.7545,0.756,0.7854,0.8048,0.809,0.824,0.809,0.7499,0.0,0.0,0.0,0.0,0.0,0.0,0.0,0.0,0.0,0.0,0.0,0.0,0.0,0.0,0.0,0.0,0.0,0.0,0.0,0.0,0.0,0.0,0.0,0.0,0.0,0.0,0.0,0.0,0.0,0.0,0.0,0.0,0.0,0.0,0.0,0.0,0.0,0.0,0.0,0.0,0.0,0.0,0.0,0.0,0.0,0.0,0.0,0.0,0.0,0.0,0.0,0.0,0.0,0.0,0.0,0.0,0.0,0.0,0.0,0.0,0.2164,0.0,0.0,0.0,0.0,0.0,0.0,0.0,0.0,0.0,0.0,0.0,0.0,0.0,0.0,0.0,0.0,0.0,0.0,0.0,0.0,0.0,0.0,0.0,0.0,0.0,0.0,0.0,0.0,0.0,0.0,0.0,0.0,0.0,0.0,0.0,0.0,0.0,0.0,0.0,0.0,0.0,0.5925,0.663,0.7109,0.7256,0.7531,0.7768,0.7927,0.7984,0.7991,0.7955,0.0,0.0,0.0,0.0,0.0,0.0,0.0,0.0,0.0,0.0,0.0,0.0,0.0,0.0,0.0,0.0,0.0,0.0,0.0,0.0,0.0,0.0,0.0,0.0,0.0,0.0,0.0,0.0,0.0,0.0,0.0,0.0,0.0,0.0,0.0,0.0,0.0,0.0,0.0,0.0,0.0,0.0,0.0,0.0,0.0,0.0,0.0,0.0,0.0,0.0,0.0,0.0,0.0,0.0,0.0,0.0,0.0,0.0,0.0,0.0,0.0,0.2732,0.0,0.0,0.0,0.0,0.0,0.0,0.0,0.0,0.0,0.0,0.0,0.0,0.0,0.0,0.0,0.0,0.0,0.0,0.0,0.0,0.0,0.0,0.0,0.0,0.0,0.0,0.0,0.0,0.0,0.0,0.0,0.0,0.0,0.0,0.0,0.0,0.0,0.0,0.0,0.0,0.581,0.6746,0.7423,0.7665,0.8163,0.8435,0.8379,0.8394,0.8138,0.7568,0.7149,0.0,0.0,0.0,0.0,0.0,0.0,0.0,0.0,0.0,0.0,0.0,0.0,0.0,0.0,0.0,0.0,0.0,0.0,0.0,0.0,0.0,0.0,0.0,0.0,0.0,0.0,0.0,0.0,0.0,0.0,0.0,0.0,0.0,0.0,0.0,0.0,0.0,0.0,0.0,0.0,0.0,0.0,0.0,0.0,0.0,0.0,0.0,0.0,0.0,0.0,0.0,0.0,0.0,0.2072,0.2113,0.2307,0.2654,0.3021,0.3382,0.3577,0.3659,0.3639,0.0,0.0,0.0,0.0,0.0,0.0,0.0,0.0,0.0,0.0,0.0,0.0,0.0,0.0,0.0,0.0,0.0,0.0,0.0,0.0,0.0,0.0,0.0,0.0,0.0,0.4228,0.4202,0.0,0.0,0.0,0.0,0.0,0.0,0.0,0.0,0.0,0.0,0.0,0.0,0.5967,0.7055,0.7911,0.8227,0.8907,0.9245,0.9,0.8932,0.8439,0.7316,0.7555,0.7286,0.0,0.0,0.0,0.0,0.0,0.0,0.0,0.0,0.0,0.0,0.0,0.0,0.0,0.0,0.0,0.0,0.0,0.0,0.0,0.0,0.0,0.0,0.0,0.0,0.0,0.0,0.0,0.0,0.0,0.0,0.0,0.0,-0.071,-0.1377,0.0,0.0,0.0,0.0,0.0,0.0,0.0,0.0,0.0,0.0,0.0,0.0,0.0,-0.1101,0.0397,0.1516,0.2164,0.235,0.2228,0.2324,0.266,0.3043,0.3372,0.3671,0.4108,0.0,0.4262,0.3998,0.0,0.0,0.0,0.0,0.0,0.0,0.0,0.0,0.0,0.0,0.0,0.0,0.0,0.0,0.0,0.0,0.0,0.0,0.0,0.0,0.0,0.0,0.4295,0.4335,0.4375,0.4369,0.0,0.3805,0.344,0.34,0.3171,0.0,0.0,0.0,0.0,0.0,0.0,0.0,0.6504,0.7255,0.794,0.8496,0.8913,0.9183,0.9331,0.9068,0.883,0.8649,0.7629,0.7212,0.7629,0.6601,0.0,0.0,0.0,0.0,0.0,0.0,0.0,0.0,0.0,0.0,0.0,0.0,0.0,0.0,0.0,0.0,0.0,0.0,0.0,0.0,0.0,0.0,0.0,0.0,0.0,0.0,0.0,0.0,0.0,-0.1008,-0.1221,-0.162,-0.1597,-0.1526,0.0,0.0,0.0,0.0,0.0,0.0,0.0,0.0,0.0,-0.12,-0.0924,-0.0489,0.0167,0.1715,0.2466,0.24,0.2449,0.2544,0.2724,0.3394,0.3761,0.3911,0.4596,0.4896,0.4863,0.4402,0.4215,0.4202,0.0,0.0,0.0,0.0,0.4102,0.4235,0.4402,0.4349,0.0,0.4416,0.0,0.0,0.0,0.0,0.0,0.0,0.0,0.0,0.0,0.0,0.4615,0.4615,0.4776,0.4896,0.4896,0.4562,0.419,0.0,0.3899,0.3766,0.3711,0.0,0.0,0.0,0.0,0.0,0.6969,0.7691,0.8414,0.9092,0.956,0.9791,0.9689,0.9715,0.9596,0.9216,0.8465,0.8154,0.8454,0.754,0.6936,0.0,0.0,0.0,0.0,0.0,0.0,0.0,0.0,0.0,0.0,0.0,0.0,0.0,0.0,0.0,0.0,0.0,0.0,0.0,0.0,0.0,0.0,0.0,0.0,0.0,0.0,0.0,0.0,-0.1394,-0.168,-0.1785,-0.1716,-0.1648,0.0,0.0,0.0,0.0,0.0,0.0,-0.179,-0.1805,-0.167,-0.1351,-0.046,0.0,0.0,0.1323,0.2176,0.2464,0.2635,0.2683,0.2712,0.3467,0.3826,0.3858,0.473,0.5119,0.508,0.4666,0.4516,0.4509,0.4436,0.4402,0.4402,0.4402,0.4449,0.4542,0.4734,0.4807,0.4821,0.4894,0.0,0.4768,0.4555,0.0,0.0,0.0,0.0,0.4502,0.4464,0.4611,0.4735,0.4735,0.4932,0.5151,0.5277,0.5104,0.4834,0.0,0.4502,0.451,0.4541,0.0,0.0,0.0,0.0,0.7,0.7339,0.8003,0.8725,0.9458,0.9975,1.0187,1.004,1.0177,1.0086,0.9695,0.9063,0.8759,0.8905,0.8199,0.7547,0.6952,0.0,0.0,0.0,0.0,0.0,0.0,0.0,0.0,0.0,0.0,0.0,0.0,0.0,0.0,0.0,0.0,0.0,0.0,0.0,0.0,0.0,0.0,0.0,0.0,0.0,0.0,0.0,0.0,0.0,-0.1797,-0.1798,0.0,0.0,0.0,0.0,-0.0964,-0.0912,-0.1167,-0.1761,-0.1797,-0.1269,-0.0122,-0.0031,0.0,0.0,0.01,0.1003,0.2686,0.2693,0.269,0.2716,0.3134,0.3323,0.3388,0.4269,0.4634,0.4642,0.4729,0.4787,0.4754,0.4509,0.4402,0.4402,0.4402,0.4548,0.4787,0.4801,0.4807,0.4854,0.5164,0.5063,0.4801,0.4787,0.4595,0.0,0.0,0.4787,0.4759,0.4622,0.4605,0.461,0.461,0.4622,0.4762,0.5214,0.5302,0.517,0.0,0.4774,0.4826,0.4958,0.0,0.5824,0.5954,0.6614,0.721,0.7556,0.8009,0.8601,0.9334,0.9676,0.997,1.0332,1.0094,1.0044,1.032,0.8959,0.8359,0.8874,0.8062,0.768,0.784,0.6559,0.0,0.0,0.0,0.0,0.0,0.0,0.0,0.0,0.0,0.0,0.0,0.0,0.0,0.0,0.0,0.0,0.0,0.0,0.0,0.0,0.0,0.0,0.0,0.0,0.0,0.0,0.0,0.0,-0.1923,-0.2,0.0,-0.2047,-0.1792,-0.1508,-0.1311,-0.1219,-0.101,-0.0655,-0.0649,-0.0447,-0.0,0.0,0.0,0.0,0.0,0.0336,0.0973,0.2153,0.2696,0.2726,0.3101,0.329,0.3323,0.3951,0.4215,0.421,0.4251,0.4623,0.511,0.501,0.4963,0.4963,0.4963,0.5037,0.5124,0.5124,0.5124,0.5137,0.5244,0.521,0.5124,0.5124,0.505,0.499,0.509,0.5124,0.5113,0.5055,0.5055,0.5055,0.5055,0.5055,0.5132,0.5485,0.5558,0.5585,0.5671,0.5386,0.5079,0.4906,0.5425,0.5799,0.5651,0.6461,0.7234,0.7629,0.8034,0.8589,0.9328,0.949,0.9687,1.0034,1.0162,1.0133,0.9894,0.9165,0.8651,0.8456,0.7734,0.7317,0.7266,0.645,0.5929,0.0,0.0,0.0,0.0,0.0,0.0,0.0,0.0,0.0,0.0,0.0,0.0,0.0,0.0,0.0,0.0,0.0,0.0,0.0,0.0,0.0,0.0,0.0,0.0,0.0,0.0,-0.2032,-0.2053,-0.2252,-0.2345,-0.2288,-0.2062,-0.1908,-0.1908,-0.1825,-0.1519,-0.095,-0.0329,0.0,0.0,0.0,0.0,0.0,0.0,0.0,0.0,0.1208,0.2119,0.27,0.2981,0.3105,0.313,0.356,0.3756,0.3788,0.3928,0.435,0.4864,0.5023,0.5151,0.5309,0.5309,0.5309,0.5309,0.5309,0.5309,0.5309,0.5309,0.5309,0.5309,0.5309,0.5309,0.5277,0.5119,0.5055,0.5023,0.489,0.4858,0.489,0.5023,0.5158,0.5287,0.5511,0.5725,0.5892,0.6021,0.5806,0.5577,0.5501,0.579,0.6003,0.5929,0.6585,0.7207,0.7472,0.784,0.8336,0.8965,0.9019,0.9209,0.9698,0.9932,1.0005,0.988,0.9204,0.8731,0.8512,0.7598,0.7064,0.6996,0.6405,0.592,0.5568,0.0,0.0,0.0,0.0,0.0,0.0,0.0,0.0,0.0,0.0,0.0,0.0,0.0,0.0,0.0,0.0,0.0,0.0,0.0,0.0,0.0,0.0,0.0,-0.1898,-0.1998,-0.2134,-0.2228,-0.2532,-0.2663,-0.2472,-0.2608,-0.273,-0.273,-0.2696,-0.2696,-0.2696,-0.104,-0.0067,-0.0,0.0,0.0,0.0,0.0,0.0,0.0,0.0,0.0906,0.263,0.2663,0.269,0.2716,0.3097,0.3294,0.3327,0.3761,0.3961,0.4026,0.4409,0.4858,0.5284,0.5284,0.5277,0.5309,0.5309,0.5309,0.5309,0.5309,0.5309,0.5309,0.5309,0.5277,0.5182,0.473,0.4596,0.4505,0.4091,0.3993,0.4091,0.4505,0.4822,0.5116,0.5268,0.5752,0.6065,0.5805,0.5979,0.635,0.6724,0.653,0.6409,0.6801,0.7018,0.0,0.7107,0.746,0.788,0.8262,0.829,0.8589,0.9316,0.9396,0.9673,1.0296,0.9059,0.852,0.9061,0.7682,0.7006,0.7205,0.6492,0.5831,0.5177,0.0,0.0,0.0,0.0,0.0,0.0,0.0,0.0,0.0,0.0,0.0,0.0,0.0,0.0,0.0,0.0,0.0,0.0,0.0,0.0,0.0,0.0,-0.3061,-0.266,-0.2488,-0.2492,-0.2804,-0.3021,-0.3259,-0.352,-0.3306,-0.3138,-0.3138,-0.2878,-0.269,-0.2696,-0.2222,-0.1343,-0.0034,0.0,0.0,0.0,0.0,0.0,0.0,0.0,0.0269,0.0772,0.2086,0.2696,0.2693,0.2812,0.2874,0.2874,0.301,0.3237,0.3523,0.3988,0.4409,0.4794,0.4794,0.5017,0.5309,0.5309,0.5309,0.5309,0.5309,0.5309,0.5309,0.5309,0.5055,0.4762,0.4634,0.4377,0.4151,0.4026,0.3993,0.4026,0.4151,0.4236,0.4526,0.5269,0.5406,0.5638,0.6475,0.656,0.6483,0.6371,0.6297,0.6278,0.6378,0.7001,0.0,0.6997,0.7697,0.8228,0.8293,0.829,0.8477,0.8926,0.9235,0.9281,0.9047,0.8572,0.8363,0.852,0.7713,0.7299,0.7342,0.7147,0.6941,0.0,0.0,0.0,0.0,0.0,0.0,0.0,0.0,0.0,0.0,0.0,0.0,0.0,0.0,0.0,0.0,0.0,0.0,0.0,0.0,0.0,0.0,-0.373,-0.3721,-0.3483,-0.3203,-0.3147,-0.3446,-0.3556,-0.3691,-0.3961,-0.3761,-0.3523,-0.3327,-0.3068,-0.2878,-0.2723,-0.2693,-0.2222,-0.1176,-0.0403,0.0,0.0,0.0,0.0,0.0,0.0,0.0,0.0034,0.1475,0.232,0.0,0.2754,0.2774,0.2781,0.2842,0.2965,0.0,0.0,0.0,0.0,0.0,0.489,0.5309,0.5309,0.5309,0.5309,0.5309,0.5182,0.5017,0.5017,0.4698,0.4312,0.4108,0.3881,0.3691,0.3691,0.3691,0.3756,0.3961,0.4097,0.4311,0.4759,0.5062,0.5462,0.6085,0.6415,0.0,0.6404,0.6377,0.6377,0.6377,0.6893,0.7264,0.7186,0.7679,0.8105,0.8319,0.8174,0.8195,0.8551,0.88,0.0,0.0,0.0,0.8356,0.8311,0.7814,0.0,0.0,0.0,0.0,0.0,0.0,0.0,0.0,0.7126,0.7416,0.0,0.0,0.0,0.0,0.0,0.0,0.0,0.0,0.0,0.0,0.0,0.0,0.0,0.0,0.0,0.0,-0.4495,-0.4405,-0.4406,-0.4198,-0.4041,-0.4065,-0.4058,-0.4091,-0.4156,-0.4091,-0.3891,-0.3486,-0.3392,-0.3196,-0.2779,0.0,0.0,0.0,0.0,-0.0201,-0.0,0.0,0.0,0.0,0.0,0.0,0.0034,0.0803,0.1715,0.27,0.2856,0.292,0.2944,0.3069,0.3046,0.2953,0.321,0.3556,0.3961,0.4377,0.4794,0.5151,0.5151,0.0,0.0,0.5183,0.4882,0.4543,0.4534,0.4264,0.3826,0.3425,0.3261,0.3229,0.3229,0.3229,0.3327,0.3761,0.4039,0.4167,0.3998,0.4662,0.5226,0.5168,0.5856,0.6461,0.6533,0.6593,0.664,0.664,0.676,0.7051,0.7531,0.7552,0.7725,0.8279,0.0,0.0,0.8205,0.8262,0.8589,0.9235,0.8841,0.8514,0.828,0.8022,0.784,0.7736,0.745,0.7288,0.7288,0.7777,0.7763,0.7328,0.7669,0.7898,0.0,0.0,0.0,0.0,0.0,0.0,0.0,0.0,0.0,0.0,0.0,0.0,0.0,0.0,0.0,-0.5751,-0.5744,-0.568,-0.5596,-0.551,-0.5253,-0.4564,-0.4473,-0.4634,-0.5023,-0.4698,-0.4436,-0.4371,-0.4053,-0.3658,-0.3196,-0.32,-0.3043,-0.2696,-0.2356,-0.1479,-0.0,0.0,0.0,0.0,0.0,0.0,0.0,0.0168,0.1137,0.2714,0.2907,0.3055,0.3215,0.3152,0.3065,0.309,0.3253,0.3355,0.349,0.3956,0.4183,0.4248,0.4248,0.4248,0.428,0.4395,0.4264,0.4122,0.4259,0.3885,0.0,0.3327,0.3068,0.2808,0.2808,0.2808,0.2845,0.2944,0.3,0.3184,0.3738,0.3796,0.4059,0.522,0.542,0.5564,0.6162,0.6627,0.6941,0.6941,0.7111,0.7311,0.742,0.7628,0.7761,0.7831,0.7754,0.7725,0.7812,0.8119,0.8375,0.8505,0.8955,0.8886,0.8089,0.872,0.8706,0.7943,0.7893,0.7843,0.7843,0.7932,0.8038,0.81,0.843,0.8368,0.0,0.0,0.0,0.0,0.0,0.0,0.0,0.0,0.0,0.0,0.0,-0.6263,-0.6126,0.0,-0.6463,-0.633,-0.6303,-0.6281,-0.622,-0.6183,-0.5967,-0.532,-0.5074,-0.5112,-0.5554,-0.5207,-0.4858,-0.4628,-0.4409,-0.4113,-0.3691,-0.3425,-0.32,-0.3014,-0.2793,-0.2256,-0.1377,-0.0436,0.0,0.0,0.0,0.0,0.0,0.0,0.0738,0.2012,0.2094,0.2581,0.3296,0.3239,0.3196,0.3212,0.3202,0.3357,0.3575,0.3827,0.404,0.4211,0.4211,0.4211,0.4196,0.4262,0.412,0.3898,0.3894,0.3508,0.3079,0.3025,0.2841,0.2712,0.2712,0.2712,0.2712,0.2712,0.2712,0.28,0.3181,0.3294,0.351,0.4261,0.4767,0.5203,0.5585,0.6179,0.6587,0.6587,0.6723,0.6907,0.7181,0.7101,0.7202,0.7658,0.7534,0.7471,0.7666,0.8062,0.829,0.829,0.88,0.8893,0.8405,0.8693,0.8634,0.815,0.7961,0.7852,0.7852,0.7852,0.7893,0.8004,0.8166,0.8098,0.0,0.0,0.0,0.0,0.0,0.0,0.0,0.0,-0.704,-0.6758,-0.7192,-0.7512,-0.7146,-0.7233,-0.7238,-0.6916,-0.685,-0.6781,-0.6631,-0.6601,-0.6488,-0.6183,-0.5765,-0.5617,-0.5882,-0.5617,-0.5239,-0.4762,-0.473,-0.457,-0.4151,-0.3751,-0.3486,-0.329,-0.2981,-0.2807,-0.2774,-0.1193,-0.0274,0.0,0.0,0.0,0.0,0.0,0.0393,0.1034,0.1041,0.1912,0.3366,0.3353,0.335,0.334,0.3259,0.341,0.3759,0.3691,0.3851,0.4152,0.4152,0.4152,0.4157,0.4159,0.3957,0.3643,0.3573,0.3261,0.2917,0.2768,0.2723,0.2717,0.2723,0.2712,0.2712,0.2712,0.2712,0.2712,0.2712,0.294,0.3196,0.3294,0.4086,0.4802,0.4979,0.551,0.5953,0.6176,0.6142,0.6276,0.68,0.6473,0.6534,0.7384,0.7256,0.7275,0.7666,0.8004,0.8176,0.8176,0.8495,0.8679,0.8595,0.8393,0.8262,0.8176,0.787,0.7695,0.7695,0.7695,0.7695,0.7695,0.7695,0.7695,-1.0732,-0.9769,-0.8895,-0.9147,-0.8934,-0.8636,0.0,0.0,-0.8077,-0.7494,-0.7782,-0.8107,-0.8052,-0.833,-0.8502,-0.8145,-0.8109,-0.784,-0.7139,-0.702,-0.702,-0.6961,-0.6601,-0.6244,-0.5944,-0.5851,-0.5672,-0.5246,-0.5214,-0.5023,-0.457,-0.4468,-0.4108,-0.3323,-0.3261,-0.3146,-0.2958,-0.2228,-0.1248,0.0,0.0,0.0,0.0,0.0,0.004,0.0126,0.0131,0.1463,0.3558,0.3554,0.3554,0.3551,0.3537,0.3571,0.3583,0.3302,0.3197,0.3236,0.3236,0.3236,0.3257,0.3398,0.3312,0.3183,0.3303,0.3205,0.3066,0.2924,0.2883,0.2852,0.2717,0.2712,0.2712,0.2712,0.2712,0.2712,0.2712,0.2746,0.2874,0.3229,0.3405,0.3752,0.4513,0.4731,0.511,0.6042,0.5932,0.5896,0.6326,0.6144,0.6122,0.6576,0.6897,0.7275,0.7666,0.7754,0.7754,0.7754,0.8148,0.8195,0.7831,0.8119,0.8119,0.7783,0.7725,0.7695,0.7695,0.7695,0.7695,0.7695,0.7695,0.7695,-1.1777,-1.0826,0.0,0.0,-1.0551,-1.0197,-0.9866,-0.985,-0.9611,-0.8582,-0.896,-0.9304,-0.8672,-0.887,-0.9019,0.0,-0.8421,-0.8195,-0.784,-0.7608,-0.7442,-0.7442,-0.7294,-0.6948,-0.6305,-0.6037,-0.5734,-0.534,-0.5309,-0.5214,-0.5017,-0.4762,-0.4536,-0.434,-0.3766,-0.3333,-0.3018,-0.2882,-0.2569,-0.2073,-0.0683,0.0,0.0,0.0,0.0,0.0,0.0,0.058,0.1606,0.3037,0.3581,0.3581,0.3581,0.3581,0.3565,0.3436,0.3388,0.3388,0.3388,0.3388,0.3398,0.3463,0.3439,0.3385,0.3316,0.3307,0.3225,0.3076,0.2971,0.2896,0.2829,0.2747,0.2712,0.2712,0.2712,0.2712,0.2712,0.2712,0.2746,0.2907,0.313,0.3421,0.3784,0.4081,0.4416,0.4854,0.5238,0.5523,0.5679,0.5631,0.5703,0.6098,0.6721,0.7178,0.7344,0.7569,0.7695,0.7695,0.786,0.786,0.7695,0.787,0.787,0.7695,0.7695,0.7695,0.7695,0.7695,0.7695,0.7695,0.7695,0.7695,-1.2113,0.0,0.0,-1.1873,-1.1878,-1.1544,-1.1218,-1.1256,-1.1052,-0.9886,-1.0184,-1.0394,-0.9532,-0.953,0.0,-0.9147,-0.8816,-0.8561,-0.8449,-0.8119,-0.787,-0.787,-0.7783,-0.7412,-0.673,-0.6397,-0.6068,-0.5672,-0.5522,-0.5467,-0.5467,-0.5119,-0.4961,-0.5085,-0.4301,-0.3692,-0.3321,-0.3346,-0.3425,-0.3596,-0.1848,-0.064,0.0,0.0,0.0,0.0,0.0,0.0,0.0134,0.1875,0.2996,0.3585,0.3581,0.3581,0.3581,0.3581,0.3581,0.3581,0.3581,0.3581,0.3581,0.3581,0.3581,0.3558,0.3446,0.3415,0.3423,0.3225,0.311,0.3022,0.2978,0.2886,0.2791,0.2754,0.2744,0.273,0.2723,0.2712,0.2712,0.2712,0.294,0.3196,0.3458,0.3658,0.3891,0.4118,0.4698,0.5119,0.5119,0.5214,0.546,0.5851,0.6427,0.6841,0.7089,0.7373,0.7569,0.7695,0.7695,0.7695,0.7695,0.7695,0.7695,0.7695,0.7695,0.7695,0.7695,0.7695,0.7695,0.7695,0.7695,0.7665,0.0,0.0,-1.1577,-1.2832,-1.295,-1.2743,-1.2724,-1.2553,-1.2132,-1.1395,-1.1261,-1.1176,-1.0883,-1.0581,-1.0234,-0.9843,-0.9544,-0.9235,-0.8844,-0.8495,-0.829,-0.829,-0.7947,-0.7539,0.0,-0.708,-0.6901,-0.6488,-0.6098,-0.5882,-0.5882,-0.5736,-0.5499,-0.5126,-0.4734,-0.4427,-0.4155,-0.3675,-0.3461,-0.3612,-0.3537,-0.2279,0.0,0.0,0.0,0.0,0.0,0.0,0.0,0.0089,0.1475,0.3595,0.3585,0.3581,0.3581,0.3581,0.3581,0.3581,0.3581,0.3581,0.3581,0.3581,0.3581,0.3581,0.3575,0.3571,0.3541,0.3343,0.3341,0.3344,0.3154,0.311,0.3073,0.2937,0.2903,0.2862,0.2713,0.2712,0.2712,0.2712,0.2716,0.2977,0.3831,0.3626,0.3616,0.4468,0.4602,0.4628,0.4628,0.5017,0.546,0.5851,0.5913,0.6244,0.702,0.7118,0.7275,0.7666,0.7695,0.7695,0.7695,0.7695,0.7695,0.7695,0.7695,0.7695,0.7695,0.7695,0.7695,0.7695,0.7695,0.7638,0.0,0.0,-1.3189,-1.4109,-1.4099,-1.3799,-1.3648,-1.3289,-1.2811,-1.216,-1.1928,-1.1728,-1.1424,-1.0987,-1.0623,-1.0489,-0.9868,-0.9343,-0.9209,-0.8883,-0.8623,-0.8623,-0.8512,0.0,0.0,0.0,0.0,-0.654,-0.6366,-0.6183,-0.5913,-0.6033,-0.5999,-0.5819,-0.5521,-0.5211,-0.4937,-0.4346,-0.3908,-0.3578,-0.2773,-0.1564,0.0,0.0,0.0,0.0,0.0,0.0,0.0,0.0,0.0492,0.1297,0.2097,0.2907,0.3592,0.3585,0.3581,0.3581,0.3581,0.3581,0.3581,0.3581,0.3581,0.3581,0.3581,0.3581,0.3568,0.3517,0.3429,0.3337,0.3246,0.3155,0.3107,0.3059,0.2978,0.2896,0.2846,0.2754,0.2712,0.2712,0.2712,0.2779,0.3076,0.3006,0.3101,0.3649,0.4242,0.4698,0.5023,0.5214,0.534,0.5491,0.5734,0.6006,0.6275,0.6781,0.7148,0.7275,0.7569,0.7695,0.7695,0.7695,0.7695,0.7695,0.7695,0.7695,0.7695,0.8018,0.8164,0.8164,0.8084,0.8015,-1.4269,-1.4306,-1.4043,-1.4788,-1.4803,-1.4568,-1.4228,-1.3904,-1.3428,-1.2539,-1.2243,-1.2018,-1.1695,-1.0946,-1.0547,-1.1039,-1.0243,-0.9617,-0.9752,-0.9413,-0.912,-0.9035,-0.8899,0.0,0.0,0.0,0.0,-0.7178,-0.6871,-0.6576,-0.6269,-0.6394,-0.6421,-0.6337,-0.6037,-0.58,-0.561,-0.5043,-0.4347,-0.3612,-0.2804,-0.1825,-0.0626,-0.0627,-0.0627,-0.0627,-0.0179,0.0,0.0,0.0,0.0,0.009,0.0848,0.2148,0.3557,0.3135,0.322,0.3585,0.3581,0.3581,0.3581,0.3581,0.3581,0.3581,0.3581,0.3581,0.3581,0.3581,0.351,0.339,0.339,0.3358,0.3269,0.3175,0.3095,0.3015,0.2998,0.2907,0.2839,0.2839,0.2798,0.2829,0.2996,0.2944,0.3003,0.3257,0.3784,0.4366,0.4985,0.5182,0.5309,0.5309,0.5522,0.5734,0.589,0.6366,0.6721,0.6871,0.7255,0.7412,0.7264,0.7539,0.7578,0.7264,0.7412,0.7448,0.7415,0.7702,0.801,0.8342,0.8051,0.799,-1.403,-1.4062,-1.4232,-1.4941,-1.5099,-1.4972,-1.4526,-1.4386,-1.3962,-1.2624,-1.226,-1.2049,0.0,0.0,-1.0125,-1.1446,-1.0692,-1.0058,-1.0365,-1.0083,-0.9728,0.0,0.0,0.0,0.0,0.0,0.0,-0.841,0.0,-0.7094,-0.6967,-0.69,-0.681,-0.6659,-0.6419,-0.6264,-0.6184,-0.561,-0.4778,-0.3676,-0.3635,-0.302,-0.1873,-0.1875,-0.1875,-0.183,-0.067,-0.0134,-0.0089,-0.0045,0.0,0.0,0.0,0.139,0.3293,0.2192,0.2551,0.3598,0.3537,0.3534,0.3581,0.3581,0.3581,0.3581,0.3581,0.3581,0.3581,0.3581,0.3581,0.3581,0.3581,0.3581,0.3544,0.3353,0.3313,0.3266,0.3125,0.3088,0.3082,0.3082,0.3005,0.305,0.3472,0.3386,0.3261,0.3261,0.329,0.3616,0.4468,0.4985,0.5277,0.5277,0.5277,0.546,0.582,0.589,0.6068,0.6457,0.685,0.6901,0.6518,0.7225,0.7294,0.6543,0.6897,0.7028,0.6917,0.6933,0.7366,0.8193,0.7643,0.7621,-1.4912,-1.4966,-1.5018,-1.5192,-1.5177,-1.5057,-1.4901,-1.4148,-1.3402,-1.3043,-1.2286,-1.1625,0.0,0.0,0.0,-1.1139,-1.0879,0.0,-1.0774,-1.047,0.0,0.0,0.0,-0.978,-1.0183,-0.9923,0.0,0.0,-0.8704,-0.7929,-0.7605,-0.8035,-0.7948,-0.7231,-0.7359,-0.707,-0.6227,-0.561,-0.5173,-0.4865,-0.3986,-0.346,-0.3152,-0.3129,-0.3141,-0.3141,-0.2823,-0.2192,-0.125,-0.0358,0.0,0.0,0.0,0.0359,0.0988,0.1569,0.2558,0.3471,0.2551,0.286,0.3581,0.3581,0.3581,0.3581,0.3581,0.3581,0.3581,0.3581,0.3581,0.3581,0.3581,0.3581,0.3568,0.3531,0.339,0.3296,0.3259,0.3162,0.3082,0.3082,0.3005,0.2946,0.305,0.2949,0.2841,0.2841,0.3097,0.3523,0.4086,0.4505,0.4794,0.4794,0.5087,0.534,0.5435,0.5734,0.5944,0.6037,0.6427,0.6609,0.6518,0.67,0.6797,0.6811,0.6908,0.7066,0.7279,0.7573,0.7825,0.8036,0.7858,0.783,-1.5241,-1.5306,-1.5305,-1.5291,-1.5248,-1.5068,-1.4584,-1.3898,-1.3161,-1.2382,-1.1654,0.0,0.0,0.0,0.0,0.0,0.0,0.0,-1.1075,-1.0902,-1.0712,0.0,-1.0235,0.0,-1.0671,-1.0412,-1.0309,0.0,-0.9606,-0.8744,-0.8259,-0.8604,-0.8426,-0.7651,-0.7807,-0.7447,-0.6562,-0.6209,-0.5905,-0.5696,-0.5038,-0.4465,-0.3946,-0.3965,-0.3803,-0.3592,0.0,-0.3223,-0.2544,-0.1876,-0.0938,0.0,0.0,0.0,0.009,0.0763,0.1436,0.1979,0.1839,0.2239,0.2909,0.3407,0.3588,0.3588,0.3588,0.3585,0.3581,0.3581,0.3581,0.3581,0.3581,0.3581,0.3581,0.3581,0.3514,0.3449,0.3449,0.3385,0.3303,0.3236,0.3158,0.3045,0.3012,0.293,0.2873,0.2873,0.3082,0.329,0.3576,0.4038,0.4409,0.457,0.4826,0.5081,0.5284,0.5491,0.5641,0.5641,0.6006,0.6223,0.6148,0.6498,0.6666,0.6612,0.675,0.6927,0.7056,0.7272,0.7593,0.7945,0.7658,0.7655,-1.5248,-1.5291,-1.5299,-1.5302,-1.5304,-1.505,-1.4052,-1.3634,-1.2983,-1.1352,0.0,-1.0322,-0.9483,0.0,-1.0108,-1.0415,0.0,-1.1235,-1.141,-1.1341,-1.1113,-1.0592,-1.0512,-1.0599,-1.0855,-1.064,-1.0702,-1.1168,-1.0518,-0.9753,-0.9041,-0.9003,-0.8733,-0.8152,-0.7953,-0.7655,-0.7105,-0.7021,-0.6768,-0.6307,-0.6227,-0.5653,-0.4652,-0.4474,-0.4136,-0.3707,-0.3622,0.0,-0.3581,-0.3592,-0.237,-0.0447,-0.0313,-0.0134,0.0,0.0,0.0,0.0135,0.1215,0.1573,0.1748,0.2781,0.3233,0.3369,0.3369,0.3363,0.3398,0.3534,0.3581,0.3581,0.3581,0.3581,0.3581,0.3581,0.3581,0.3581,0.3581,0.3581,0.3585,0.3451,0.3364,0.3266,0.3135,0.3095,0.3082,0.3082,0.3082,0.3082,0.3082,0.3606,0.4102,0.4427,0.4612,0.4853,0.5248,0.5377,0.543,0.543,0.5738,0.5891,0.5758,0.6428,0.6619,0.6243,0.6606,0.6725,0.6647,0.6647,0.7024,0.7787,0.7238,0.728,-1.5338,-1.5253,-1.5303,-1.5295,-1.5307,-1.5062,-1.4174,-1.33,0.0,0.0,0.0,-0.9857,-0.9527,-0.9746,0.0,-1.0712,0.0,0.0,0.0,0.0,-1.125,0.0,0.0,0.0,0.0,0.0,0.0,0.0,0.0,-1.1477,-1.0169,-1.0074,-0.9808,-0.9239,-0.8357,-0.7836,-0.7746,-0.7238,-0.6937,-0.6852,-0.6392,-0.6093,-0.5873,-0.487,-0.4347,-0.422,-0.3796,0.0,-0.3581,-0.3581,-0.3353,-0.286,-0.1875,-0.0894,0.0,0.0,0.0,0.0045,0.0225,0.0314,0.0359,0.0537,0.1295,0.2099,0.2099,0.2099,0.2322,0.3309,0.3581,0.3581,0.3581,0.3581,0.3581,0.3581,0.3581,0.3581,0.3581,0.3581,0.3571,0.3588,0.3436,0.3299,0.3273,0.3165,0.3082,0.3082,0.3082,0.3082,0.3082,0.3536,0.3815,0.3792,0.4608,0.5156,0.5146,0.5689,0.6041,0.6041,0.6106,0.6134,0.6115,0.6254,0.6398,0.6545,0.6591,0.6733,0.6947,0.6947,0.7016,0.7147,0.7063,0.7063,-1.5351,-1.5253,-1.5292,-1.531,-1.5293,-1.4962,-1.3667,0.0,0.0,0.0,0.0,-0.962,-0.9039,0.0,0.0,0.0,0.0,0.0,0.0,0.0,0.0,0.0,0.0,0.0,0.0,0.0,0.0,0.0,0.0,-1.1998,-1.0777,-1.0185,-0.9765,-0.9518,-0.848,-0.7919,-0.7919,-0.7321,-0.6979,-0.6979,-0.6732,-0.6477,-0.6184,-0.5265,-0.4691,-0.4391,-0.3836,0.0,-0.3581,-0.3581,-0.3581,-0.3534,-0.2948,-0.2368,-0.17,-0.0447,0.0,0.0,0.0,0.0,0.0,0.0,0.0403,0.0851,0.0851,0.085,0.0982,0.1561,0.2637,0.3588,0.3588,0.3585,0.3581,0.3581,0.3581,0.3581,0.3581,0.3581,0.3581,0.3581,0.352,0.347,0.347,0.3409,0.3358,0.3358,0.3358,0.3358,0.3358,0.3569,0.3717,0.3717,0.4435,0.5016,0.5197,0.5817,0.6196,0.6196,0.6196,0.6263,0.6418,0.6418,0.652,0.6807,0.6814,0.688,0.6979,0.6979,0.6979,0.6979,0.6979,0.6979,-1.5319,-1.5253,-1.5301,-1.5307,-1.5306,-1.4851,-1.3174,-1.2664,0.0,0.0,-0.9857,-0.9598,-0.8846,0.0,0.0,0.0,0.0,0.0,0.0,0.0,0.0,0.0,0.0,0.0,0.0,0.0,0.0,0.0,0.0,0.0,-1.1207,-1.0321,-0.9825,-0.9825,-0.8797,-0.8234,-0.8234,-0.7648,-0.7314,-0.7196,-0.7196,-0.6894,-0.6349,-0.561,-0.5043,-0.4565,-0.388,0.0,0.0,-0.3581,-0.3581,-0.3581,-0.3581,-0.3585,-0.3366,-0.1474,-0.0447,0.0,0.0,0.0,0.0,0.0,0.0,0.0,0.0,0.0,0.0,0.0,0.1566,0.3233,0.323,0.3223,0.3265,0.3537,0.3581,0.3581,0.3581,0.3581,0.3581,0.3581,0.3581,0.3581,0.3581,0.3581,0.3581,0.3581,0.3581,0.3581,0.3581,0.3581,0.3619,0.373,0.4239,0.4762,0.5225,0.585,0.6263,0.6384,0.6377,0.6485,0.6673,0.668,0.6787,0.6979,0.6979,0.6979,0.6979,0.6979,0.6979,0.6979,0.6979,0.6979,-1.5165,-1.5253,-1.5297,-1.5309,-1.5302,-1.4856,-1.3187,0.0,0.0,-1.0369,-0.9944,-0.9838,-0.9698,-0.9631,-0.9771,0.0,0.0,-1.1154,0.0,0.0,0.0,0.0,0.0,0.0,0.0,0.0,0.0,0.0,0.0,0.0,-1.1737,-1.1169,-1.0857,-1.0857,-0.9903,-0.9359,-0.9359,-0.8837,-0.8316,-0.7829,-0.7829,-0.7489,-0.6894,-0.5776,-0.5265,-0.5178,-0.4056,0.0,0.0,-0.3581,-0.3581,-0.3581,-0.3581,-0.3581,-0.3581,-0.3353,-0.1875,0.0,0.0,0.0,0.0,0.0,0.0,0.0,0.0,0.0,0.0,0.0,0.094,0.1971,0.1966,0.1964,0.2233,0.3322,0.3588,0.3581,0.3581,0.3581,0.3581,0.3581,0.3581,0.3581,0.3581,0.3581,0.3581,0.3581,0.3581,0.3581,0.3581,0.3581,0.3615,0.3628,0.4089,0.4608,0.5075,0.5802,0.6403,0.6899,0.6941,0.6954,0.6981,0.6981,0.6994,0.6979,0.6979,0.6979,0.6979,0.6979,0.6979,0.6979,0.6979,0.6979,-1.5146,-1.5214,-1.5253,-1.5291,-1.4914,-1.4217,-1.3058,0.0,-1.1546,-1.0278,-0.9955,-0.9888,-0.9811,-0.9692,-0.9684,-0.9897,-1.0021,-1.0204,0.0,0.0,0.0,0.0,0.0,0.0,0.0,0.0,0.0,0.0,0.0,0.0,-1.265,-1.1616,-1.1019,-1.1019,-1.0021,-0.9518,-0.9518,-0.8958,-0.8594,-0.8398,-0.8036,-0.7787,-0.7489,-0.6343,-0.5653,-0.526,-0.4439,0.0,0.0,-0.3581,-0.3581,-0.3581,-0.3581,-0.3581,-0.3581,-0.3581,-0.2998,-0.1969,-0.0492,0.0,0.0,0.0,0.0,0.0,0.0,0.0,0.0,0.0,0.0359,0.0718,0.0717,0.0716,0.1027,0.2235,0.2679,0.299,0.349,0.3581,0.3581,0.3581,0.3581,0.3581,0.3581,0.3581,0.3581,0.3581,0.3581,0.3581,0.3581,0.3581,0.3581,0.3581,0.4092,0.4487,0.4669,0.5295,0.5916,0.6477,0.652,0.6647,0.6979,0.6979,0.6979,0.6979,0.6979,0.6979,0.6979,0.6979,0.6979,0.7027,0.7208,0.7288,-1.4769,-1.4997,-1.5214,-1.5272,-1.4648,-1.3791,0.0,0.0,-1.1167,-1.022,-0.9965,-0.9875,-0.9844,-0.9761,-0.9675,-0.9585,-0.9707,-0.9964,-1.033,0.0,0.0,0.0,0.0,0.0,0.0,0.0,0.0,0.0,0.0,0.0,0.0,-1.1595,-1.109,-1.1409,-1.0629,-1.0089,-0.9942,-0.9579,-0.9231,-0.8918,-0.8398,-0.8036,-0.787,-0.6732,-0.5959,-0.5524,-0.4735,0.0,0.0,-0.3667,-0.3581,-0.3581,-0.3581,-0.3581,-0.3581,-0.3581,-0.3585,-0.3318,-0.1251,-0.0313,0.0,0.0,0.0,0.0,0.0,0.0,0.0,0.0,0.0,0.0,0.0,0.0,0.0224,0.1072,0.1472,0.2051,0.3315,0.3588,0.3585,0.3581,0.3581,0.3581,0.3581,0.3581,0.3581,0.3581,0.3581,0.3581,0.3581,0.3581,0.3581,0.3581,0.3921,0.422,0.4391,0.4778,0.5303,0.5873,0.6093,0.6349,0.6768,0.6894,0.6979,0.6979,0.6979,0.6979,0.6979,0.6979,0.7068,0.7161,0.7368,0.7607,-1.3898,-1.4536,-1.5214,-1.5272,-1.4631,-1.3798,0.0,-1.2132,-1.1223,-1.029,-0.9996,-0.9893,-0.9893,-0.9784,-0.9698,-0.9698,-1.0195,-1.0865,-1.1657,0.0,0.0,0.0,0.0,0.0,0.0,0.0,0.0,0.0,0.0,0.0,0.0,-1.1106,-1.1317,-1.2437,-1.2029,-1.1505,-1.0981,-1.0981,-1.0475,-0.9478,-0.8958,-0.8398,-0.787,-0.6732,-0.6179,0.0,0.0,0.0,0.0,-0.384,-0.3581,-0.3581,-0.3581,-0.3581,-0.3581,-0.3581,-0.3581,-0.3445,-0.2188,-0.0982,0.0,0.0,0.0,0.0,0.0,0.0,0.0,0.0,0.0,0.0,0.0,0.0,0.0,0.0,0.0,0.0671,0.3063,0.3605,0.3595,0.3581,0.3581,0.3581,0.3581,0.3581,0.3581,0.3581,0.3581,0.3581,0.3581,0.3581,0.3581,0.3581,0.3626,0.384,0.4347,0.4391,0.4652,0.5265,0.5873,0.6184,0.6227,0.6732,0.6979,0.6979,0.6979,0.6979,0.6979,0.6979,0.7174,0.7506,0.7513,0.7836,-1.2891,-1.3277,-1.3517,-1.3574,-1.2934,-1.2212,-1.1978,-1.1247,-1.051,-1.0175,-1.0034,-0.996,-0.9904,-0.9831,-0.9932,-1.0433,-1.0685,-1.1049,0.0,0.0,0.0,0.0,0.0,0.0,0.0,0.0,0.0,0.0,0.0,0.0,0.0,-1.1783,-1.1891,-1.1961,-1.1468,-1.1129,-1.1008,-1.1019,-1.0677,-1.004,-0.9119,-0.8594,-0.8398,-0.7273,-0.6562,0.0,0.0,0.0,0.0,-0.384,-0.3581,-0.3581,-0.3581,-0.3581,-0.3581,-0.3581,-0.3581,-0.3534,-0.3173,-0.1697,0.0,0.0,0.0,0.0,0.0,0.0,0.0,0.0,0.0,0.0,0.0,0.0,0.0,0.0,0.0,0.0224,0.0985,0.1789,0.2368,0.2366,0.3037,0.3581,0.3581,0.3581,0.3581,0.3581,0.3581,0.3581,0.3581,0.3581,0.3581,0.3581,0.3581,0.3667,0.3836,0.3836,0.4096,0.4652,0.526,0.5787,0.6179,0.6732,0.6979,0.6979,0.6979,0.6979,0.7021,0.7228,0.7589,0.8138,0.8138,0.8297,0.0,-1.2445,-1.2723,-1.2769,-1.2142,-1.1506,-1.1506,-1.0831,-1.0175,-1.0113,-1.0052,-0.9972,-0.991,-0.985,-0.9949,-1.0386,-1.0691,-1.1123,0.0,0.0,0.0,0.0,0.0,0.0,0.0,0.0,0.0,0.0,0.0,0.0,0.0,-1.1274,-1.1529,-1.1652,-1.1728,-1.1627,-1.1308,-1.1319,-1.0943,-1.0283,-0.9199,-0.8716,-0.8675,-0.7523,-0.681,0.0,0.0,0.0,0.0,-0.3924,-0.3581,-0.3581,-0.3581,-0.3581,-0.3581,-0.3581,-0.3581,-0.3581,-0.3581,-0.2637,-0.1207,-0.0313,0.0,0.0,0.0,0.0,0.0,0.0,0.0,0.0,0.0,0.0,0.0,0.0,0.0,0.0,0.0,0.0582,0.1118,0.1116,0.1739,0.2546,0.3448,0.3588,0.3588,0.3588,0.3585,0.3581,0.3581,0.3581,0.3581,0.3581,0.3581,0.3581,0.3581,0.3581,0.3751,0.4092,0.4652,0.5221,0.583,0.6386,0.681,0.6979,0.7134,0.7188,0.7194,0.7609,0.8051,0.8377,0.8484,0.8637,0.0,-1.1911,-1.254,-1.2594,-1.2007,-1.1405,-1.1401,-1.0789,0.0,-1.0113,-1.0057,-0.9996,-0.9986,-0.9894,-0.9826,-0.9861,-1.0498,0.0,0.0,0.0,0.0,0.0,0.0,0.0,0.0,0.0,0.0,0.0,0.0,0.0,0.0,-0.9943,-1.0445,-1.1487,-1.2522,-1.2683,-1.1811,-1.1811,-1.1292,-1.0283,-0.9199,-0.8716,-0.8675,-0.7523,-0.6979,0.0,0.0,0.0,0.0,-0.41,-0.3622,-0.3581,-0.3581,-0.3581,-0.3581,-0.3581,-0.3581,-0.3581,-0.3581,-0.3588,-0.3188,-0.0804,0.0,0.0,0.0,0.0,0.0,0.0,0.0,0.0,0.0,0.0,0.0,0.0,0.0,0.0,0.0,0.0,0.0,0.0,0.0,0.0715,0.296,0.3414,0.3458,0.3458,0.3452,0.349,0.3581,0.3581,0.3581,0.3581,0.3581,0.3581,0.3581,0.3581,0.3581,0.3581,0.4092,0.4648,0.5216,0.589,0.6465,0.697,0.7348,0.7553,0.7574,0.8145,0.8383,0.841,0.8684,0.8804,-1.0406,0.0,-1.0784,-1.0817,-1.0664,-1.0506,0.0,-1.0348,-1.0175,-1.0113,0.0,-1.023,-1.0735,-1.0308,-1.0242,-1.1351,-1.1691,0.0,0.0,0.0,0.0,0.0,0.0,0.0,0.0,0.0,0.0,0.0,0.0,0.0,0.0,-1.0307,-1.0618,-1.0894,-1.1613,-1.1931,-1.1799,-1.1811,-1.1292,-1.0283,-0.9199,-0.8716,-0.8675,-0.7523,-0.6979,0.0,0.0,0.0,-0.526,-0.4526,-0.3965,-0.3581,-0.3581,-0.3581,-0.3581,-0.3581,-0.3581,-0.3581,-0.3581,-0.3588,-0.3188,-0.0807,0.0,0.0,0.0,0.0,0.0,0.0,0.0,0.0,0.0,0.0,0.0,0.0,0.0,0.0,0.0,0.0,0.0,0.0,0.0,0.0179,0.076,0.1607,0.2235,0.2235,0.2233,0.2549,0.3503,0.3585,0.3581,0.3581,0.3581,0.3581,0.3581,0.3581,0.3581,0.3581,0.4092,0.4478,0.4604,0.5825,0.6562,0.6696,0.7432,0.7936,0.8212,0.8353,0.849,0.8704,0.8778,0.8804,-1.0194,-1.0194,-1.0208,-1.019,-1.0195,-1.0194,-1.0208,0.0,0.0,0.0,0.0,-1.0159,-1.0489,0.0,0.0,0.0,0.0,0.0,0.0,0.0,0.0,0.0,0.0,0.0,0.0,0.0,0.0,0.0,0.0,0.0,-1.0173,-1.0261,-1.0458,-1.0681,-1.0879,-1.1006,-1.1125,-1.1279,-1.0923,-0.999,-0.9112,-0.8716,-0.8675,-0.7523,-0.6979,0.0,0.0,0.0,-0.526,-0.4648,-0.4092,-0.3581,-0.3581,-0.3581,-0.3581,-0.3581,-0.3581,-0.3581,-0.3581,-0.3223,-0.2462,-0.0583,0.0,0.0,0.0,0.0,0.0,0.0,0.0,0.0,0.0,0.0,0.0,0.0,0.0,0.0,0.0,0.0,0.0,0.0,0.0,0.0,0.0,0.0537,0.0984,0.0984,0.0983,0.1206,0.1878,0.2591,0.317,0.3578,0.3581,0.3581,0.3581,0.3581,0.3581,0.3581,0.3947,0.425,0.4521,0.5672,0.6513,0.6919,0.7704,0.8128,0.81,0.8416,0.8651,0.8804,0.8804,0.8804,-1.0196,-1.019,-1.0188,-1.0193,-1.0202,-1.0207,-1.0194,0.0,0.0,0.0,0.0,0.0,0.0,0.0,0.0,0.0,0.0,0.0,0.0,0.0,0.0,0.0,0.0,0.0,0.0,0.0,0.0,0.0,0.0,0.0,-1.0434,-1.0097,-1.0119,-1.0556,-1.0262,-1.0073,-1.006,-1.0487,-1.0281,-0.9396,-0.885,-0.8552,-0.8472,-0.7453,-0.6979,-0.6979,0.0,0.0,-0.5394,-0.4778,-0.4224,-0.3711,-0.3622,-0.3581,-0.3581,-0.3581,-0.3581,-0.3581,-0.3581,-0.2951,-0.1834,-0.0449,0.0,0.0,0.0,0.0,0.0,0.0,0.0,0.0,0.0,0.0,0.0,0.0,0.0,0.0,0.0,0.0,0.0,0.0,0.0,0.0,0.0,0.0,0.0,0.0,0.0,0.0,0.0,0.121,0.2431,0.3526,0.3636,0.3649,0.3646,0.3646,0.3646,0.3646,0.3737,0.4091,0.4755,0.5586,0.6431,0.7189,0.7917,0.803,0.7509,0.8262,0.8646,0.8646,0.8752,0.8831,-1.0206,-1.0156,-1.0129,-1.0195,-1.0199,-1.0194,-1.0198,0.0,0.0,0.0,0.0,0.0,0.0,0.0,0.0,0.0,0.0,0.0,0.0,0.0,0.0,0.0,0.0,0.0,0.0,0.0,0.0,0.0,0.0,0.0,-1.0434,-1.0097,-0.9943,-1.0018,-0.9702,-0.936,-0.9041,-0.9604,-0.9447,-0.8572,-0.8265,-0.7935,-0.7586,-0.7189,-0.6979,-0.6979,0.0,-0.6556,-0.6007,-0.5394,-0.4826,-0.422,-0.3796,-0.3581,-0.3581,-0.3581,-0.3581,-0.3581,-0.3592,-0.3465,-0.2971,-0.0718,0.0,0.0,0.0,0.0,0.0,0.0,0.0,0.0,0.0,0.0,0.0,0.0,0.0,0.0,0.0,0.0,0.0,0.0,0.0,0.0,0.0,0.0,0.0,0.0,0.0,0.0,0.0,0.0231,0.1271,0.3691,0.3894,0.3863,0.3951,0.3951,0.3951,0.3951,0.3849,0.4241,0.5178,0.5933,0.6463,0.6694,0.7446,0.7469,0.675,0.7503,0.7883,0.7883,0.8533,0.8938,-1.0209,-1.0185,-1.0141,-1.015,-1.0086,-1.0147,-1.0589,0.0,0.0,0.0,0.0,0.0,0.0,0.0,0.0,0.0,0.0,0.0,0.0,0.0,0.0,0.0,0.0,0.0,0.0,0.0,0.0,0.0,0.0,0.0,-1.0434,-1.0097,-0.9828,-0.9633,-0.9262,-0.8899,-0.8523,-0.8369,-0.823,-0.8066,-0.8013,-0.7779,-0.7393,-0.7127,-0.6979,-0.6979,0.0,-0.6513,-0.5696,-0.5432,-0.4787,-0.3921,-0.3707,-0.3581,-0.3581,-0.3581,-0.3585,-0.3592,-0.3602,-0.3609,-0.3203,-0.0763,0.0,0.0,0.0,0.0,0.0,0.0,0.0,0.0,0.0,0.0,0.0,0.0,0.0988,0.1934,0.1934,0.0942,0.0,0.0,0.0,0.0,0.0,0.0,0.0,0.0,0.0,0.0,0.0,0.0,0.0785,0.28,0.3646,0.4033,0.4022,0.4019,0.4056,0.4086,0.4026,0.4437,0.5358,0.5734,0.594,0.5977,0.6745,0.6745,0.5982,0.6745,0.7289,0.7729,0.825,0.8496,-1.0145,-1.004,-0.9829,-0.9796,0.0,-1.0126,-1.0909,-1.1098,0.0,0.0,0.0,0.0,0.0,0.0,0.0,0.0,0.0,0.0,0.0,0.0,0.0,0.0,0.0,0.0,0.0,0.0,0.0,0.0,0.0,0.0,-1.0284,-0.9957,-0.9607,-0.9262,-0.8871,-0.8523,-0.8166,-0.7443,-0.7251,-0.7489,-0.7569,-0.7385,-0.7018,-0.6949,-0.6838,-0.6713,-0.6784,-0.6252,-0.5303,-0.513,-0.4618,-0.3847,-0.367,-0.3581,-0.3581,-0.3265,-0.3363,-0.3602,-0.3612,-0.3248,-0.2431,-0.0584,0.0,0.0,0.0,0.0,0.0,0.0,0.0404,0.0718,0.0135,0.0404,0.0854,0.0854,0.2022,0.3245,0.3519,0.2154,0.0671,0.0089,0.0,0.0,0.0,0.0,0.0,0.0,0.0,0.0,0.0,0.03,0.097,0.2088,0.3448,0.4247,0.4124,0.4124,0.4172,0.4237,0.4244,0.4559,0.521,0.5433,0.5433,0.5273,0.5982,0.5982,0.5273,0.5982,0.6637,0.7182,0.765,0.7847,-0.998,-0.9525,-0.8816,-0.8793,-0.9406,0.0,-1.0929,-1.1098,0.0,-1.189,0.0,0.0,0.0,0.0,0.0,0.0,0.0,0.0,0.0,0.0,0.0,0.0,0.0,0.0,0.0,0.0,0.0,0.0,0.0,0.0,-0.9869,-0.9583,-0.9262,-0.8844,-0.8523,-0.8127,-0.7744,-0.7325,-0.6918,-0.659,-0.6461,-0.6205,-0.5826,-0.6398,-0.6341,-0.5792,-0.6115,-0.5873,-0.526,-0.4691,-0.4535,-0.4556,-0.3847,-0.3588,-0.3458,-0.2324,-0.2645,-0.3612,-0.3615,-0.2113,-0.0225,-0.0045,0.0,0.0,0.0,0.0,0.0,0.0,0.1618,0.2839,0.0584,0.1663,0.334,0.334,0.2603,0.2235,0.3369,0.3468,0.27,0.0447,0.0,0.0,0.0,0.0,0.0,0.0,0.0,0.0,0.0,0.1194,0.207,0.2165,0.3544,0.4453,0.4488,0.4484,0.4491,0.4501,0.4501,0.4505,0.457,0.5164,0.5218,0.457,0.5218,0.5273,0.457,0.5273,0.5597,0.5655,0.6575,0.713,-0.9904,-0.9744,-0.9326,-0.9382,-1.0289,0.0,0.0,-1.1187,-1.1882,-1.3106,0.0,0.0,0.0,0.0,0.0,0.0,0.0,0.0,0.0,0.0,0.0,0.0,0.0,0.0,0.0,0.0,0.0,0.0,0.0,0.0,0.0,-0.9078,-0.8844,-0.8495,-0.8365,-0.7984,-0.7325,-0.694,-0.6518,-0.6129,-0.6244,-0.6072,-0.5697,-0.5939,-0.5911,-0.5688,-0.564,-0.5303,-0.4739,-0.4622,-0.4372,-0.3932,-0.2901,-0.2957,-0.3561,-0.3102,-0.2245,-0.1348,-0.1348,-0.0763,0.0,0.0,0.0,0.0,0.0,0.0,0.0,0.0,0.1754,0.3395,0.2476,0.238,0.2707,0.3628,0.3384,0.3063,0.3661,0.3705,0.3182,0.1782,0.067,0.0,0.0,0.0,0.0,0.0,0.0,0.0,0.0,0.1293,0.2201,0.2189,0.3602,0.4473,0.4519,0.4519,0.4519,0.4519,0.4519,0.4519,0.4519,0.4732,0.4732,0.4519,0.4732,0.4732,0.4519,0.4833,0.5216,0.5728,0.6329,0.6572,-0.9443,-0.9426,-0.9328,-0.9581,0.0,0.0,-1.0908,-1.1509,-1.2519,-1.3757,0.0,0.0,0.0,0.0,0.0,0.0,0.0,0.0,0.0,0.0,0.0,0.0,0.0,0.0,0.0,0.0,0.0,0.0,0.0,0.0,0.0,-0.8634,-0.8428,-0.7927,-0.7927,-0.753,-0.673,-0.6457,-0.6029,-0.5477,-0.5686,-0.5624,-0.535,-0.5461,-0.5359,-0.5092,-0.4986,-0.4642,-0.418,-0.428,-0.4072,-0.3455,-0.1834,-0.1253,-0.1344,-0.1344,-0.0537,0.0493,0.0135,0.0,0.0,0.0,0.0,0.0,0.0,0.0,0.0,0.0,0.1484,0.3024,0.3015,0.2763,0.2758,0.3748,0.3865,0.3748,0.39,0.3795,0.3533,0.2968,0.1996,0.0985,0.0145,0.0,0.0,0.0,0.0,0.0,0.0,0.1273,0.2413,0.285,0.3849,0.4519,0.4519,0.4519,0.4519,0.4519,0.4519,0.4519,0.4519,0.4519,0.4519,0.4519,0.4519,0.4543,0.4591,0.464,0.5002,0.5522,0.5875,0.5943,-0.8528,-0.8402,-0.8468,0.0,0.0,0.0,-1.1114,-1.2128,-1.3116,-1.3504,0.0,0.0,0.0,0.0,0.0,0.0,0.0,0.0,0.0,0.0,0.0,0.0,0.0,0.0,0.0,0.0,0.0,0.0,0.0,0.0,0.0,-0.829,-0.7927,-0.7118,-0.708,-0.6691,-0.5913,-0.5882,-0.5446,-0.4602,-0.4602,-0.4602,-0.4608,-0.4938,-0.4619,-0.3829,-0.4088,-0.3983,-0.3578,-0.3581,-0.3592,-0.3296,-0.0898,0.1482,0.3571,0.3615,0.2831,0.165,0.0447,0.0,0.0,0.0,0.0,0.0045,0.0045,0.0045,0.0,0.0,0.0895,0.1786,0.183,0.2912,0.3971,0.391,0.3969,0.4019,0.4022,0.3929,0.3883,0.3883,0.3943,0.3134,0.0504,0.0,0.0,0.0,0.0,0.0,0.0056,0.1291,0.2753,0.4327,0.4477,0.4519,0.4519,0.4519,0.4519,0.4519,0.4519,0.4519,0.4519,0.4519,0.4519,0.4519,0.4519,0.4594,0.4694,0.4694,0.4772,0.4925,0.5067,0.5131,-0.8571,-0.8781,0.0,0.0,0.0,0.0,0.0,-1.2084,0.0,0.0,0.0,0.0,0.0,0.0,0.0,0.0,0.0,0.0,0.0,0.0,0.0,0.0,0.0,0.0,0.0,0.0,0.0,0.0,0.0,0.0,0.0,-0.7443,-0.7207,-0.6691,-0.6372,-0.5937,-0.5401,-0.5111,-0.4712,-0.4183,-0.4361,-0.4361,-0.4161,-0.4078,-0.3971,-0.3774,-0.365,-0.3598,-0.3616,-0.3602,-0.1611,0.1524,0.2248,0.2471,0.2417,0.328,0.3372,0.3004,0.265,0.1433,0.0,0.0,0.1168,0.2521,0.2521,0.1928,0.1252,0.1252,0.1518,0.2008,0.286,0.3588,0.4126,0.401,0.3988,0.405,0.4107,0.4046,0.3973,0.3973,0.4086,0.3875,0.298,0.1265,0.0,0.0,0.0,0.0784,0.2865,0.168,0.1621,0.4212,0.449,0.4484,0.4473,0.4473,0.4525,0.4519,0.4519,0.4519,0.4519,0.4519,0.457,0.4619,0.4623,0.4697,0.4853,0.4952,0.5023,0.507,0.5223,0.5291,-0.7983,0.0,0.0,0.0,0.0,0.0,0.0,0.0,0.0,0.0,0.0,0.0,0.0,0.0,0.0,0.0,0.0,0.0,0.0,0.0,0.0,0.0,0.0,0.0,0.0,0.0,0.0,0.0,0.0,0.0,0.0,-0.6584,-0.6342,-0.576,-0.5473,-0.5174,-0.4884,-0.4628,-0.435,-0.4014,-0.4155,-0.3602,-0.2455,-0.3348,-0.3599,-0.3372,-0.3406,-0.2941,-0.2099,-0.1142,0.067,0.2921,0.3423,0.3143,0.2591,0.3315,0.3592,0.3592,0.3605,0.233,0.0804,0.1257,0.2429,0.3615,0.3609,0.3099,0.2504,0.2504,0.2502,0.2679,0.3398,0.3852,0.4082,0.4022,0.4111,0.4222,0.4314,0.426,0.4195,0.4195,0.4254,0.4292,0.423,0.2329,0.0872,0.0892,0.0392,0.0672,0.2469,0.2184,0.2014,0.2629,0.3413,0.3916,0.391,0.43,0.4562,0.4555,0.4609,0.4643,0.4643,0.4585,0.4626,0.4779,0.4782,0.4853,0.5003,0.5087,0.5162,0.5223,0.5318,0.5428,-0.6992,0.0,0.0,0.0,0.0,0.0,0.0,0.0,0.0,0.0,0.0,0.0,0.0,0.0,0.0,0.0,0.0,0.0,0.0,0.0,0.0,0.0,0.0,0.0,0.0,0.0,0.0,0.0,0.0,0.0,0.0,-0.5722,-0.538,-0.461,-0.4547,-0.45,-0.435,-0.4106,-0.3878,-0.3629,-0.3629,-0.2371,-0.0067,-0.2537,-0.3185,-0.2491,-0.2909,-0.188,0.0335,0.2649,0.2965,0.2053,0.3185,0.3588,0.3581,0.3581,0.3581,0.3581,0.3592,0.2821,0.201,0.3105,0.3519,0.3609,0.3598,0.3595,0.3595,0.3595,0.3598,0.3598,0.3598,0.3819,0.4039,0.4039,0.4256,0.4519,0.4519,0.4519,0.4519,0.4519,0.4519,0.4522,0.4477,0.3352,0.2399,0.24,0.106,0.0,0.0,0.2411,0.3144,0.067,0.2068,0.319,0.319,0.4158,0.4711,0.4711,0.4843,0.4925,0.4938,0.4792,0.4782,0.4935,0.4938,0.5009,0.5152,0.5152,0.5223,0.5428,0.5428,0.5428,0.0,-0.6879,0.0,0.0,0.0,0.0,0.0,0.0,0.0,0.0,0.0,0.0,0.0,0.0,0.0,0.0,0.0,0.0,0.0,0.0,0.0,0.0,0.0,0.0,0.0,0.0,0.0,0.0,0.0,0.0,-0.4884,-0.5163,-0.5062,-0.4464,-0.4247,-0.4127,-0.4072,-0.1996,-0.0931,0.0,-0.0867,-0.0566,-0.0033,-0.06,-0.0755,-0.0543,0.027,0.0932,0.1514,0.2999,0.3455,0.322,0.3493,0.3581,0.3581,0.3581,0.3581,0.3581,0.3585,0.3037,0.2271,0.219,0.2821,0.3588,0.3585,0.3585,0.3585,0.3585,0.3663,0.3744,0.3744,0.3972,0.4147,0.4147,0.4334,0.4519,0.4519,0.4519,0.4519,0.4519,0.4519,0.4522,0.4477,0.4203,0.399,0.4005,0.1738,0.0,0.0,0.056,0.1625,0.337,0.4324,0.4803,0.4493,0.4802,0.4944,0.487,0.4901,0.4969,0.5081,0.4948,0.4938,0.5084,0.5084,0.5159,0.5311,0.5311,0.5328,0.5428,0.5428,0.5428,0.0,0.0,0.0,0.0,0.0,0.0,0.0,0.0,0.0,0.0,0.0,0.0,0.0,0.0,0.0,0.0,0.0,0.0,0.0,0.0,0.0,0.0,0.0,0.0,0.0,0.0,0.0,0.0,0.0,-0.4814,-0.4113,-0.4431,-0.4101,-0.2966,-0.2368,-0.207,-0.207,-0.07,0.0634,0.1899,0.1899,0.1996,0.209,0.1963,0.1695,0.1329,0.2081,0.246,0.2574,0.332,0.3585,0.3581,0.3581,0.3581,0.3581,0.3581,0.3581,0.3581,0.3581,0.3306,0.2946,0.2724,0.3084,0.3581,0.3581,0.3581,0.3595,0.3663,0.3734,0.3809,0.388,0.4023,0.4197,0.4197,0.4358,0.4519,0.4519,0.4519,0.4519,0.4519,0.4519,0.4522,0.4477,0.3863,0.3137,0.2473,0.2245,0.213,0.2127,0.0909,0.0917,0.339,0.3907,0.4348,0.4953,0.5078,0.5092,0.502,0.5091,0.5165,0.524,0.5169,0.5165,0.524,0.524,0.5281,0.5428,0.5428,0.5428,0.5428,0.5428,0.5466,0.0,0.0,0.0,0.0,0.0,0.0,0.0,0.0,0.0,0.0,0.0,0.0,0.0,0.0,0.0,0.0,0.0,0.0,0.0,0.0,0.0,0.0,0.0,0.0,0.0,0.0,0.0,0.0,0.0,-0.3911,-0.294,-0.3146,-0.261,-0.1136,-0.0234,0.0367,0.07,0.0633,0.1764,0.4072,0.4039,0.4127,0.434,0.416,0.3629,0.2807,0.3008,0.3218,0.3434,0.3514,0.3642,0.3751,0.3751,0.3751,0.3751,0.3751,0.3751,0.3707,0.3622,0.3581,0.3581,0.3581,0.3581,0.3581,0.3581,0.3598,0.3643,0.3758,0.3829,0.3897,0.4026,0.412,0.4234,0.4234,0.4375,0.4519,0.4519,0.4519,0.4519,0.4519,0.4519,0.4463,0.4249,0.3181,0.1896,0.056,0.2523,0.4107,0.4107,0.2193,0.1293,0.2581,0.2972,0.3722,0.5037,0.5161,0.5169,0.5169,0.5291,0.5428,0.5428,0.5428,0.5428,0.5428,0.5428,0.5428,0.5428,0.5428,0.5428,0.5428,0.5456,0.5467,0.0,0.0,0.0,0.0,0.0,0.0,0.0,0.0,0.0,0.0,0.0,0.0,0.0,0.0,0.0,0.0,0.0,0.0,0.0,0.0,0.0,0.0,0.0,0.0,0.0,0.0,0.0,0.0,-0.3893,-0.301,-0.06,-0.05,-0.0434,-0.0167,0.0668,0.1871,0.346,0.3183,0.3475,0.435,0.4106,0.4031,0.4064,0.4382,0.4053,0.3208,0.3,0.3302,0.3868,0.3511,0.3705,0.4303,0.4303,0.4303,0.4303,0.4303,0.4303,0.422,0.3751,0.3581,0.3581,0.3581,0.3581,0.3581,0.3581,0.3666,0.3768,0.3785,0.3982,0.414,0.416,0.4324,0.4433,0.4433,0.4501,0.4519,0.4519,0.4519,0.4519,0.4519,0.4519,0.4236,0.3342,0.3007,0.2674,0.2009,0.2233,0.2512,0.2512,0.3519,0.3829,0.2817,0.4083,0.5121,0.5318,0.5383,0.5332,0.5332,0.5418,0.5428,0.5428,0.5428,0.5428,0.5428,0.5428,0.5428,0.5428,0.5428,0.5428,0.5432,0.5498,0.5569,-0.5082,-0.5616,0.0,0.0,0.0,0.0,0.0,0.0,0.0,0.0,0.0,0.0,0.0,0.0,0.0,0.0,0.0,0.0,0.0,0.0,0.0,0.0,0.0,0.0,0.0,0.0,0.0,0.0,-0.1665,-0.1233,-0.0067,0.0969,0.174,0.2236,0.2441,0.3076,0.4225,0.4161,0.4371,0.4858,0.5004,0.4947,0.4736,0.4634,0.4274,0.3705,0.3941,0.4144,0.4314,0.4244,0.4479,0.4913,0.4913,0.4913,0.487,0.4517,0.4387,0.4303,0.3796,0.3581,0.3581,0.3581,0.3632,0.3697,0.3697,0.3802,0.3938,0.4022,0.4093,0.4214,0.4348,0.4412,0.4519,0.4519,0.4519,0.4519,0.4519,0.4519,0.4519,0.4519,0.4522,0.4359,0.3907,0.3858,0.3831,0.3732,0.3686,0.3768,0.3831,0.4442,0.4651,0.4136,0.4884,0.5408,0.5404,0.5394,0.5428,0.5428,0.5428,0.5428,0.5428,0.5428,0.5428,0.5428,0.5428,0.5428,0.5428,0.5428,0.5473,0.5491,0.5559,0.5677,-0.4934,-0.5301,-0.5593,0.0,0.0,0.0,0.0,0.0,0.0,0.0,0.0,0.0,0.0,0.0,0.0,0.0,0.0,0.0,0.0,0.0,0.0,0.0,0.0,0.0,0.0,0.0,0.0,0.0,0.0434,0.0701,0.0701,0.2111,0.3195,0.3794,0.378,0.4031,0.4587,0.4935,0.523,0.555,0.5875,0.5882,0.5585,0.5257,0.4903,0.4628,0.4655,0.4739,0.484,0.4823,0.5096,0.5524,0.5524,0.5524,0.548,0.5043,0.487,0.4783,0.4228,0.3928,0.3792,0.3792,0.3809,0.3792,0.3792,0.3924,0.4053,0.4164,0.422,0.4328,0.4433,0.4519,0.4519,0.4519,0.4519,0.4519,0.4519,0.4519,0.4519,0.4519,0.4525,0.4473,0.4473,0.4514,0.4642,0.482,0.4873,0.4935,0.5046,0.5001,0.5018,0.5068,0.5277,0.5369,0.5428,0.5428,0.5428,0.5428,0.5428,0.5428,0.5428,0.5428,0.5446,0.542,0.542,0.5466,0.5428,0.5466,0.5477,0.5593,0.5667,0.582,-0.3905,-0.4732,0.0,0.0,0.0,0.0,0.0,0.0,0.0,0.0,0.0,0.0,0.0,0.0,0.0,0.0,0.0,0.0,0.0,0.0,0.0,0.0,0.0,0.0,0.0,0.0,0.0,0.0,0.1575,0.256,0.256,0.3125,0.3414,0.3327,0.413,0.4732,0.5149,0.5983,0.6419,0.6427,0.6457,0.6457,0.6427,0.6427,0.6397,0.6267,0.473,0.4596,0.5397,0.484,0.5233,0.6136,0.6136,0.6136,0.6136,0.6136,0.6093,0.6007,0.5437,0.4826,0.4347,0.4347,0.4115,0.3792,0.3792,0.3999,0.4184,0.4194,0.4345,0.4508,0.4515,0.4519,0.4519,0.4519,0.4519,0.4519,0.4519,0.4519,0.4519,0.4519,0.4519,0.4519,0.4519,0.4582,0.4684,0.4691,0.4816,0.4911,0.4918,0.5043,0.5068,0.5131,0.527,0.5428,0.5428,0.5428,0.5428,0.5428,0.5428,0.5428,0.5428,0.5428,0.543,0.5576,0.5579,0.5508,0.5428,0.5508,0.5583,0.5596,0.5878,0.6017,-0.3409,-0.4195,0.0,0.0,0.0,0.0,0.0,0.0,0.0,0.0,0.0,0.0,0.0,0.0,0.0,0.0,0.0,0.0,0.0,0.0,0.0,0.0,0.0,0.0,0.0,0.0,0.0,0.0,0.0,0.3319,0.3508,0.3951,0.4172,0.414,0.4941,0.5714,0.6403,0.6721,0.6871,0.6871,0.6871,0.676,0.6488,0.6488,0.6488,0.6457,0.5595,0.5658,0.6279,0.5844,0.6057,0.6732,0.6732,0.6732,0.6683,0.6307,0.6184,0.6093,0.5524,0.4913,0.4387,0.4387,0.4115,0.3809,0.3907,0.4033,0.4214,0.4358,0.4423,0.4519,0.4519,0.4519,0.4519,0.4519,0.4519,0.4519,0.4519,0.4519,0.4519,0.4519,0.4541,0.4609,0.4609,0.4735,0.4867,0.4958,0.502,0.5091,0.5189,0.5247,0.5277,0.5277,0.5328,0.5428,0.5428,0.5428,0.5428,0.5428,0.5428,0.5473,0.5504,0.5508,0.5576,0.5722,0.5725,0.5698,0.5644,0.5698,0.5776,0.5874,0.5979,0.6084,-0.3102,0.0,0.0,0.0,0.0,0.0,0.0,0.0,0.0,0.0,0.0,0.0,0.0,0.0,0.0,0.0,0.0,0.0,0.0,0.0,0.0,0.0,0.0,0.0,0.0,0.0,0.0,0.0,0.0,0.0,0.4178,0.4579,0.4985,0.5432,0.5968,0.6584,0.7275,0.7305,0.7305,0.7305,0.7305,0.7157,0.6918,0.6918,0.6918,0.6889,0.6488,0.6584,0.7049,0.6622,0.6803,0.7321,0.7321,0.7189,0.6937,0.6605,0.6477,0.6428,0.5996,0.5475,0.5,0.5,0.4785,0.455,0.462,0.4668,0.4652,0.4812,0.468,0.4519,0.4519,0.4519,0.4519,0.4519,0.4519,0.4519,0.4519,0.456,0.4538,0.4538,0.4663,0.4769,0.4769,0.4891,0.502,0.5114,0.5176,0.5247,0.5415,0.5428,0.5428,0.5428,0.5428,0.5428,0.5428,0.5428,0.5428,0.5428,0.541,0.5484,0.5586,0.5637,0.5728,0.5874,0.5878,0.5905,0.5956,0.5905,0.5928,0.603,0.6084,0.6162,0.0,0.0,0.0,0.0,0.0,0.0,0.0,0.0,0.0,0.0,0.0,0.0,0.0,0.0,0.0,0.0,0.0,0.0,0.0,0.0,0.0,0.0,0.0,0.0,0.0,0.0,0.0,0.0,0.3836,0.421,0.4605,0.5017,0.5822,0.708,0.7109,0.7305,0.7695,0.7725,0.7725,0.7695,0.7725,0.7695,0.7695,0.7695,0.7695,0.7666,0.7275,0.7294,0.7602,0.7185,0.7334,0.7912,0.7878,0.753,0.6979,0.6979,0.6979,0.6979,0.6979,0.6641,0.6184,0.6184,0.6112,0.597,0.5975,0.5761,0.5479,0.5483,0.5003,0.4519,0.4519,0.4519,0.4519,0.4519,0.4519,0.4519,0.4522,0.4589,0.4697,0.4691,0.4816,0.4925,0.4925,0.5043,0.5138,0.5138,0.5267,0.5428,0.5428,0.5428,0.5428,0.5428,0.5428,0.5428,0.5428,0.5428,0.5428,0.5435,0.5508,0.5593,0.5603,0.5735,0.5881,0.6034,0.6037,0.6108,0.6338,0.6108,0.6037,0.604,0.6193,0.6338,-0.2458,0.0,0.0,0.0,0.0,0.0,0.0,0.0,0.0,0.0,0.0,0.0,0.0,0.0,0.0,0.0,0.0,0.0,0.0,0.0,0.0,0.0,0.0,0.0,0.0,0.0,0.0,0.0,0.4648,0.5055,0.5533,0.5929,0.657,0.75,0.7549,0.7579,0.7695,0.8223,0.8223,0.7695,0.8004,0.7976,0.7695,0.7695,0.7695,0.7666,0.7275,0.7675,0.8505,0.7328,0.7265,0.787,0.7405,0.7147,0.6979,0.6979,0.6979,0.6979,0.6979,0.6641,0.6184,0.6184,0.5996,0.5805,0.5973,0.5719,0.5377,0.545,0.5003,0.4519,0.4519,0.4519,0.4519,0.4519,0.4519,0.4549,0.4602,0.4748,0.4823,0.4711,0.4897,0.5074,0.5074,0.5199,0.5298,0.5298,0.5335,0.5428,0.5428,0.5428,0.5428,0.5428,0.5428,0.5428,0.5428,0.5428,0.541,0.5518,0.5566,0.5684,0.5898,0.5945,0.604,0.6193,0.6196,0.6217,0.6338,0.6217,0.6196,0.62,0.624,0.6338,0.0,0.0,0.0,0.0,0.0,0.0,0.0,-0.2043,0.0,0.0,0.0,0.0,0.0,0.0,0.0,0.0,0.0,0.0,0.0,0.0,0.0,0.0,0.0,0.0,0.0,0.3873,0.4215,0.4808,0.5244,0.5743,0.6366,0.6798,0.7285,0.7918,0.7937,0.8013,0.8166,0.8439,0.8382,0.7947,0.8004,0.7928,0.7695,0.7695,0.7695,0.7695,0.7442,0.7976,0.8902,0.7833,0.7714,0.8193,0.7855,0.744,0.6979,0.6979,0.6979,0.6979,0.6979,0.681,0.652,0.652,0.6552,0.6602,0.6411,0.6092,0.5788,0.5567,0.5003,0.4519,0.4519,0.4519,0.4519,0.4519,0.4519,0.456,0.4657,0.4809,0.4911,0.488,0.5067,0.5226,0.5226,0.5301,0.5428,0.5428,0.5428,0.5428,0.5428,0.5428,0.5428,0.5428,0.5428,0.5428,0.5428,0.542,0.5494,0.5586,0.5705,0.585,0.6023,0.6091,0.6169,0.6335,0.6338,0.6338,0.6338,0.6338,0.6338,0.6338,0.6338,0.6338,-0.1754,-0.2478,0.0,0.0,0.0,0.0,-0.0794,-0.0382,0.0,0.0,0.0,0.0,0.0,0.0,0.0,0.0,0.0,0.0,0.0,0.0,0.0,0.0,0.0,0.0,0.4086,0.4468,0.4845,0.53,0.5774,0.6366,0.7118,0.7559,0.7928,0.829,0.8365,0.8533,0.8734,0.8578,0.8421,0.829,0.7976,0.7812,0.7754,0.7725,0.7695,0.7695,0.7695,0.8182,0.897,0.848,0.8471,0.8756,0.8675,0.7979,0.7105,0.7021,0.6979,0.6979,0.6979,0.6979,0.6979,0.6979,0.739,0.778,0.7128,0.6839,0.6529,0.5706,0.5058,0.4625,0.4625,0.457,0.4515,0.457,0.4584,0.4584,0.4684,0.4836,0.4986,0.5128,0.5267,0.5428,0.5428,0.5428,0.5428,0.5428,0.5428,0.5428,0.5428,0.5428,0.5428,0.5428,0.5428,0.5428,0.5428,0.5501,0.5596,0.5613,0.5874,0.6037,0.6054,0.6186,0.6338,0.6338,0.6338,0.6338,0.6338,0.6338,0.6338,0.6338,0.6338,0.6338,0.0168,-0.0259,-0.061,0.0,0.0,0.0,0.0,0.0645,0.0,0.0,0.0,0.0,0.0,0.0,0.0,0.0,0.0,0.0,0.0,0.0,0.0,0.0,0.0,0.0,0.4897,0.5048,0.5394,0.6206,0.6631,0.7068,0.7569,0.7976,0.8233,0.829,0.8883,0.8937,0.8393,0.9197,0.9143,0.8319,0.8495,0.8439,0.8176,0.7841,0.7695,0.7695,0.7695,0.8182,0.9004,0.8902,0.9031,0.9239,0.8398,0.7912,0.7663,0.7189,0.6979,0.6979,0.6979,0.6979,0.6979,0.6979,0.739,0.7882,0.7732,0.7565,0.723,0.5869,0.5433,0.5328,0.5328,0.4893,0.4625,0.5164,0.4998,0.4687,0.4843,0.4989,0.5135,0.5287,0.5342,0.5428,0.5428,0.5428,0.5428,0.5428,0.5428,0.5428,0.5428,0.5428,0.5428,0.5428,0.5428,0.5428,0.5428,0.5501,0.564,0.5752,0.5928,0.6084,0.621,0.6244,0.6338,0.6338,0.6338,0.6338,0.6338,0.6338,0.6338,0.6338,0.6338,0.6338,0.2038,0.1934,0.1758,0.1822,0.0,0.0,0.0,0.0,0.0,0.0,0.0,0.0,0.0,0.0,0.0,0.0,0.0,0.0,0.0,0.0,0.0,0.0,0.0,0.0,0.5458,0.5561,0.5897,0.6734,0.7157,0.7588,0.7976,0.8205,0.8477,0.8828,0.9209,0.9316,0.9089,0.9475,0.9289,0.8551,0.8706,0.8523,0.8004,0.8004,0.7889,0.7695,0.7695,0.8096,0.8711,0.8916,0.9233,0.9477,0.8922,0.8513,0.8234,0.7655,0.7447,0.7405,0.7112,0.6979,0.6979,0.6979,0.739,0.7828,0.7481,0.7256,0.7015,0.6253,0.6036,0.5982,0.5597,0.5269,0.5003,0.5003,0.4858,0.4731,0.4887,0.503,0.5176,0.5332,0.5428,0.5428,0.5428,0.5428,0.5428,0.5428,0.5428,0.5428,0.5428,0.5428,0.5428,0.5428,0.5428,0.5459,0.5467,0.561,0.5759,0.5908,0.6061,0.6179,0.6335,0.6338,0.6338,0.6338,0.6338,0.6338,0.6338,0.6338,0.6338,0.6338,0.6338,0.6338,0.0,0.0,0.0,0.0,0.0,0.3913,0.0,0.0,0.0,0.0,0.0,0.0,0.0,0.0,0.0,0.0,0.0,0.0,0.0,0.0,0.0,0.0,0.0,0.0,0.0,0.6002,0.6276,0.7109,0.7415,0.7776,0.828,0.8421,0.8784,0.9369,0.9449,0.9581,0.9802,0.9607,0.9289,0.8926,0.8844,0.8495,0.7918,0.8091,0.8033,0.7812,0.7725,0.7999,0.8525,0.8861,0.9248,0.9604,0.952,0.9239,0.8756,0.816,0.7919,0.7829,0.7189,0.6979,0.6979,0.6979,0.739,0.7806,0.7352,0.7121,0.702,0.6858,0.6696,0.648,0.6032,0.5706,0.5441,0.5266,0.5186,0.524,0.5407,0.5443,0.5528,0.5858,0.5752,0.5624,0.5428,0.5428,0.5428,0.5428,0.5428,0.5428,0.5428,0.5428,0.5428,0.5428,0.5428,0.5423,0.5579,0.5722,0.5867,0.602,0.6176,0.6338,0.6338,0.6338,0.6338,0.6338,0.6338,0.6338,0.6338,0.6338,0.6338,0.6338,0.6338,0.6352,0.0,0.0,0.0,0.0,0.4482,0.0,0.0,0.0,0.0,0.0,0.0,0.0,0.0,0.0,0.0,0.0,0.0,0.0,0.0,0.0,0.0,0.0,0.0,0.0,0.0,0.6294,0.6495,0.7299,0.7193,0.743,0.8238,0.891,0.9316,0.9396,0.9686,0.9712,0.9449,0.9712,0.9659,0.9316,0.8953,0.8761,0.8651,0.8052,0.7947,0.8205,0.787,0.8139,0.8849,0.8951,0.9248,0.9604,0.952,0.9478,0.9279,0.8275,0.7919,0.7829,0.7189,0.6979,0.6979,0.6979,0.739,0.7981,0.8441,0.8534,0.8427,0.7777,0.7128,0.675,0.7289,0.6465,0.5909,0.7388,0.7386,0.7071,0.7348,0.6935,0.6759,0.7562,0.7111,0.6334,0.5557,0.5428,0.5428,0.5428,0.5428,0.5428,0.5428,0.5428,0.5428,0.5428,0.5428,0.5423,0.5579,0.5722,0.5867,0.602,0.6176,0.6338,0.6338,0.6338,0.6338,0.6338,0.6338,0.6338,0.6338,0.6338,0.6338,0.6338,0.6338,0.6329,0.0,0.0,0.0,0.0,0.0,0.0,0.0,0.0,0.5144,0.0,0.0,0.0,0.0,0.0,0.0,0.0,0.0,0.0,0.0,0.0,0.0,0.0,0.0,0.0,0.0,0.0,0.0,0.0,0.7106,0.7409,0.8372,0.9045,0.9487,0.9686,0.9828,0.9816,0.9698,0.9828,0.9607,0.9062,0.9304,0.9116,0.8523,0.8634,0.8662,0.8578,0.8195,0.8366,0.8901,0.8984,0.9248,0.9631,0.9877,0.9961,0.9843,0.8756,0.8357,0.8234,0.7314,0.6979,0.7038,0.739,0.7676,0.7995,0.8631,0.8804,0.8752,0.8427,0.8103,0.783,0.7723,0.723,0.6911,0.7426,0.7428,0.735,0.7629,0.7541,0.7567,0.7962,0.7307,0.6593,0.6203,0.6141,0.6009,0.5495,0.5428,0.5428,0.5428,0.5428,0.5428,0.5428,0.544,0.5552,0.5701,0.5847,0.6,0.6156,0.6224,0.6338,0.6338,0.6338,0.6338,0.6338,0.6338,0.6338,0.6338,0.6338,0.6302,0.6383,0.6383,0.6417,0.6159,0.0,0.0,0.0,0.0,0.0,0.0,0.0,0.0,0.0,0.0,0.0,0.0,0.0,0.0,0.0,0.0,0.0,0.0,0.0,0.0,0.0,0.0,0.0,0.0,0.0,0.0,0.0,0.0,0.7327,0.844,0.9017,0.9538,1.0021,0.9944,0.9957,1.0046,0.9944,0.9633,0.9116,0.9555,0.9343,0.8617,0.9046,0.9074,0.8789,0.8449,0.8513,0.8901,0.8984,0.9248,0.9641,1.0107,1.0283,1.0205,0.9279,0.8837,0.8553,0.7607,0.7201,0.7228,0.7716,0.7935,0.815,0.8651,0.8804,0.8804,0.8804,0.8646,0.8427,0.8103,0.7937,0.7839,0.7813,0.7932,0.8165,0.8409,0.8419,0.842,0.8672,0.7827,0.7046,0.7046,0.6654,0.6141,0.5491,0.5428,0.5428,0.5428,0.5428,0.5446,0.542,0.5521,0.5664,0.5847,0.5966,0.6095,0.6251,0.6338,0.6338,0.6338,0.6338,0.6338,0.6338,0.6338,0.6338,0.6338,0.6298,0.6373,0.6471,0.6471,0.6519,0.0,0.0,0.0,0.7433,0.0,0.0,0.0,0.0,0.7708,0.0,0.0,0.0,0.0,0.0,0.0,0.0,0.0,0.0,0.0,0.0,0.0,0.0,0.0,0.0,0.0,0.0,0.0,0.0,0.0,0.0,0.8429,0.8887,0.9509,1.0358,1.0072,1.0072,1.0371,1.0072,0.9905,0.988,0.9555,0.9396,0.9343,0.8981,0.8816,0.8789,0.8449,0.8513,0.8901,0.8984,0.9248,0.9641,1.0107,1.0283,1.0235,0.9677,0.9159,0.8635,0.8077,0.7695,0.7547,0.7829,0.813,0.8417,0.8717,0.8804,0.8804,0.8804,0.8262,0.7883,0.8593,0.8463,0.8452,0.9362,0.9834,1.0119,1.0418,0.9843,0.953,1.0364,0.9128,0.7962,0.7962,0.6535,0.5428,0.5428,0.5428,0.5428,0.5428,0.5428,0.5416,0.5566,0.5586,0.5708,0.5996,0.6027,0.6095,0.6251,0.6338,0.6338,0.6338,0.6338,0.6338,0.6338,0.6338,0.6338,0.6338,0.6396,0.6468,0.6471,0.6471,0.663,0.0,0.0,1.0358,0.8941,0.0,0.0,0.0,0.0,0.0,0.0,0.0,0.0,0.0,0.0,0.0,0.0,0.0,0.0,0.0,0.0,0.0,0.0,0.0,0.0,0.0,0.0,0.0,0.0,0.6714,0.0,0.0,0.8921,0.9471,0.9533,0.9991,1.0185,1.0072,0.9944,0.9802,0.9555,0.9672,0.9607,0.9408,0.9502,0.9516,0.949,0.8899,0.9025,0.967,0.9194,0.9424,1.0078,1.0225,1.0283,1.0244,0.9677,0.9159,0.8553,0.7648,0.7394,0.756,0.7829,0.813,0.843,0.8717,0.8804,0.8804,0.8804,0.8646,0.8526,0.893,0.8945,0.9021,0.9794,1.0047,1.02,1.0557,1.0364,1.0238,1.0561,0.9652,0.8877,0.8877,0.7897,0.6728,0.5557,0.5881,0.6075,0.5495,0.545,0.5532,0.5586,0.5766,0.5922,0.602,0.6125,0.6207,0.6335,0.6338,0.6338,0.6338,0.6338,0.6338,0.6338,0.6338,0.6308,0.64,0.724,0.77,0.8006,0.8739,0.873,1.0479,1.1025,0.0,1.0081,1.0097,0.0,0.8769,0.0,0.0,0.0,0.0,0.0,0.0,0.0,0.0,0.0,0.0,0.0,0.0,0.0,0.0,0.0,0.0,0.0,0.0,0.0,0.6531,0.6972,0.0,0.0,0.0,0.0,0.9208,0.9377,0.9936,1.0185,1.0097,0.9944,0.9802,0.9593,0.979,0.979,0.9581,0.9802,0.9764,0.9502,0.9175,0.9305,0.9688,0.9357,0.9648,1.0283,1.0283,1.0283,1.0244,0.9922,0.9439,0.8854,0.7814,0.7683,0.7951,0.8037,0.829,0.8564,0.8751,0.8804,0.8804,0.8804,0.8884,0.9005,0.9137,0.9336,0.9646,1.0027,1.02,1.0327,1.0521,1.0624,1.0624,1.0624,0.9919,0.9274,0.9274,0.8812,0.7967,0.6535,0.6789,0.6876,0.6026,0.5995,0.5971,0.5735,0.5918,0.6054,0.6108,0.6203,0.649,0.6795,0.649,0.649,0.6795,0.649,0.6338,0.6338,0.6776,0.7006,0.7107,0.8341,0.9105,0.9358,1.0521,1.0647]}]]